<?xml version="1.0" encoding="UTF-8" standalone="no" ?>
<gpx xmlns="http://www.topografix.com/GPX/1/1" xmlns:xsi="http://www.w3.org/2001/XMLSchema-instance" xsi:schemaLocation="http://www.topografix.com/GPX/1/1 http://www.topografix.com/GPX/1/1/gpx.xsd" version="1.1" creator="VisuGPX - https://www.visugpx.com">
  <metadata>
    <name>RANDO ABBAYE DE FONTAINE GUERARD-24 05 10</name>
    <desc><![CDATA[Depuis Fresne, descente par Flipou vers Pont St Pierre, passage près de l'Abbaye de Fontaine Guerard puis remontée par Douville, Bacqueville]]></desc>
  </metadata>
  <wpt lat="49.28894" lon="1.40709">
    <ele>196</ele>
  </wpt>
  <wpt lat="49.28878" lon="1.40736">
    <ele>144</ele>
  </wpt>
  <trk>
    <name><![CDATA[RANDO ABBAYE DE FONTAINE GUERARD-24 05 10_1]]></name>
    <trkseg>
      <trkpt lat="49.28894" lon="1.40709">
        <ele>196</ele>
        <time>2010-05-24T05:22:33Z</time>
      </trkpt>
      <trkpt lat="49.28873" lon="1.40679">
        <ele>147</ele>
        <time>2010-05-24T05:22:36Z</time>
      </trkpt>
      <trkpt lat="49.28871" lon="1.40693">
        <ele>154</ele>
        <time>2010-05-24T05:22:36Z</time>
      </trkpt>
      <trkpt lat="49.28868" lon="1.40708">
        <ele>160</ele>
        <time>2010-05-24T05:25:06Z</time>
      </trkpt>
      <trkpt lat="49.28863" lon="1.40695">
        <ele>147</ele>
        <time>2010-05-24T05:26:38Z</time>
      </trkpt>
      <trkpt lat="49.28854" lon="1.4069">
        <ele>147</ele>
        <time>2010-05-24T05:26:42Z</time>
      </trkpt>
      <trkpt lat="49.28848" lon="1.40678">
        <ele>147</ele>
        <time>2010-05-24T05:26:47Z</time>
      </trkpt>
      <trkpt lat="49.28844" lon="1.40664">
        <ele>147</ele>
        <time>2010-05-24T05:26:51Z</time>
      </trkpt>
      <trkpt lat="49.2884" lon="1.40651">
        <ele>147</ele>
        <time>2010-05-24T05:26:54Z</time>
      </trkpt>
      <trkpt lat="49.28834" lon="1.40636">
        <ele>147</ele>
        <time>2010-05-24T05:26:58Z</time>
      </trkpt>
      <trkpt lat="49.28827" lon="1.40623">
        <ele>141</ele>
        <time>2010-05-24T05:27:01Z</time>
      </trkpt>
      <trkpt lat="49.28817" lon="1.40604">
        <ele>141</ele>
        <time>2010-05-24T05:27:06Z</time>
      </trkpt>
      <trkpt lat="49.28811" lon="1.40593">
        <ele>141</ele>
        <time>2010-05-24T05:27:08Z</time>
      </trkpt>
      <trkpt lat="49.28804" lon="1.40581">
        <ele>141</ele>
        <time>2010-05-24T05:27:11Z</time>
      </trkpt>
      <trkpt lat="49.28797" lon="1.40569">
        <ele>150</ele>
        <time>2010-05-24T05:27:14Z</time>
      </trkpt>
      <trkpt lat="49.28788" lon="1.4056">
        <ele>150</ele>
        <time>2010-05-24T05:27:16Z</time>
      </trkpt>
      <trkpt lat="49.28779" lon="1.40552">
        <ele>150</ele>
        <time>2010-05-24T05:27:18Z</time>
      </trkpt>
      <trkpt lat="49.28771" lon="1.40542">
        <ele>144</ele>
        <time>2010-05-24T05:27:20Z</time>
      </trkpt>
      <trkpt lat="49.28764" lon="1.40531">
        <ele>144</ele>
        <time>2010-05-24T05:27:22Z</time>
      </trkpt>
      <trkpt lat="49.28755" lon="1.40523">
        <ele>144</ele>
        <time>2010-05-24T05:27:24Z</time>
      </trkpt>
      <trkpt lat="49.28747" lon="1.40513">
        <ele>138</ele>
        <time>2010-05-24T05:27:26Z</time>
      </trkpt>
      <trkpt lat="49.28739" lon="1.40502">
        <ele>138</ele>
        <time>2010-05-24T05:27:28Z</time>
      </trkpt>
      <trkpt lat="49.28731" lon="1.40493">
        <ele>138</ele>
        <time>2010-05-24T05:27:30Z</time>
      </trkpt>
      <trkpt lat="49.28726" lon="1.40481">
        <ele>138</ele>
        <time>2010-05-24T05:27:32Z</time>
      </trkpt>
      <trkpt lat="49.28721" lon="1.40462">
        <ele>138</ele>
        <time>2010-05-24T05:27:35Z</time>
      </trkpt>
      <trkpt lat="49.28725" lon="1.40444">
        <ele>132</ele>
        <time>2010-05-24T05:27:37Z</time>
      </trkpt>
      <trkpt lat="49.28728" lon="1.40426">
        <ele>132</ele>
        <time>2010-05-24T05:27:39Z</time>
      </trkpt>
      <trkpt lat="49.2873" lon="1.40409">
        <ele>132</ele>
        <time>2010-05-24T05:27:41Z</time>
      </trkpt>
      <trkpt lat="49.28732" lon="1.40391">
        <ele>132</ele>
        <time>2010-05-24T05:27:43Z</time>
      </trkpt>
      <trkpt lat="49.28734" lon="1.40375">
        <ele>132</ele>
        <time>2010-05-24T05:27:45Z</time>
      </trkpt>
      <trkpt lat="49.28737" lon="1.40359">
        <ele>132</ele>
        <time>2010-05-24T05:27:47Z</time>
      </trkpt>
      <trkpt lat="49.28738" lon="1.40343">
        <ele>132</ele>
        <time>2010-05-24T05:27:49Z</time>
      </trkpt>
      <trkpt lat="49.2874" lon="1.40327">
        <ele>132</ele>
        <time>2010-05-24T05:27:51Z</time>
      </trkpt>
      <trkpt lat="49.28745" lon="1.40312">
        <ele>132</ele>
        <time>2010-05-24T05:27:53Z</time>
      </trkpt>
      <trkpt lat="49.2875" lon="1.40299">
        <ele>132</ele>
        <time>2010-05-24T05:27:55Z</time>
      </trkpt>
      <trkpt lat="49.28757" lon="1.40285">
        <ele>132</ele>
        <time>2010-05-24T05:27:57Z</time>
      </trkpt>
      <trkpt lat="49.28764" lon="1.40275">
        <ele>132</ele>
        <time>2010-05-24T05:27:59Z</time>
      </trkpt>
      <trkpt lat="49.2877" lon="1.40265">
        <ele>132</ele>
        <time>2010-05-24T05:28:01Z</time>
      </trkpt>
      <trkpt lat="49.28777" lon="1.40255">
        <ele>132</ele>
        <time>2010-05-24T05:28:03Z</time>
      </trkpt>
      <trkpt lat="49.28784" lon="1.40244">
        <ele>132</ele>
        <time>2010-05-24T05:28:05Z</time>
      </trkpt>
      <trkpt lat="49.2879" lon="1.40233">
        <ele>132</ele>
        <time>2010-05-24T05:28:08Z</time>
      </trkpt>
      <trkpt lat="49.28786" lon="1.40221">
        <ele>132</ele>
        <time>2010-05-24T05:28:12Z</time>
      </trkpt>
      <trkpt lat="49.28775" lon="1.4022">
        <ele>132</ele>
        <time>2010-05-24T05:28:16Z</time>
      </trkpt>
      <trkpt lat="49.28765" lon="1.40223">
        <ele>132</ele>
        <time>2010-05-24T05:28:19Z</time>
      </trkpt>
      <trkpt lat="49.28754" lon="1.40227">
        <ele>132</ele>
        <time>2010-05-24T05:28:22Z</time>
      </trkpt>
      <trkpt lat="49.28742" lon="1.40232">
        <ele>132</ele>
        <time>2010-05-24T05:28:25Z</time>
      </trkpt>
      <trkpt lat="49.28729" lon="1.40233">
        <ele>132</ele>
        <time>2010-05-24T05:28:28Z</time>
      </trkpt>
      <trkpt lat="49.28716" lon="1.40235">
        <ele>132</ele>
        <time>2010-05-24T05:28:31Z</time>
      </trkpt>
      <trkpt lat="49.28703" lon="1.40237">
        <ele>132</ele>
        <time>2010-05-24T05:28:34Z</time>
      </trkpt>
      <trkpt lat="49.2869" lon="1.40237">
        <ele>132</ele>
        <time>2010-05-24T05:28:37Z</time>
      </trkpt>
      <trkpt lat="49.28681" lon="1.40232">
        <ele>132</ele>
        <time>2010-05-24T05:28:40Z</time>
      </trkpt>
      <trkpt lat="49.28678" lon="1.40219">
        <ele>132</ele>
        <time>2010-05-24T05:28:43Z</time>
      </trkpt>
      <trkpt lat="49.28683" lon="1.40203">
        <ele>132</ele>
        <time>2010-05-24T05:28:46Z</time>
      </trkpt>
      <trkpt lat="49.2869" lon="1.40188">
        <ele>132</ele>
        <time>2010-05-24T05:28:49Z</time>
      </trkpt>
      <trkpt lat="49.28695" lon="1.40174">
        <ele>132</ele>
        <time>2010-05-24T05:28:52Z</time>
      </trkpt>
      <trkpt lat="49.28702" lon="1.40158">
        <ele>132</ele>
        <time>2010-05-24T05:28:55Z</time>
      </trkpt>
      <trkpt lat="49.28709" lon="1.40143">
        <ele>132</ele>
        <time>2010-05-24T05:28:58Z</time>
      </trkpt>
      <trkpt lat="49.28715" lon="1.40129">
        <ele>132</ele>
        <time>2010-05-24T05:29:01Z</time>
      </trkpt>
      <trkpt lat="49.28721" lon="1.40116">
        <ele>137</ele>
        <time>2010-05-24T05:29:04Z</time>
      </trkpt>
      <trkpt lat="49.28727" lon="1.40103">
        <ele>137</ele>
        <time>2010-05-24T05:29:07Z</time>
      </trkpt>
      <trkpt lat="49.28733" lon="1.4009">
        <ele>137</ele>
        <time>2010-05-24T05:29:10Z</time>
      </trkpt>
      <trkpt lat="49.28739" lon="1.40075">
        <ele>137</ele>
        <time>2010-05-24T05:29:13Z</time>
      </trkpt>
      <trkpt lat="49.28745" lon="1.40062">
        <ele>137</ele>
        <time>2010-05-24T05:29:16Z</time>
      </trkpt>
      <trkpt lat="49.28751" lon="1.40048">
        <ele>137</ele>
        <time>2010-05-24T05:29:19Z</time>
      </trkpt>
      <trkpt lat="49.28758" lon="1.40035">
        <ele>137</ele>
        <time>2010-05-24T05:29:22Z</time>
      </trkpt>
      <trkpt lat="49.28766" lon="1.40021">
        <ele>137</ele>
        <time>2010-05-24T05:29:25Z</time>
      </trkpt>
      <trkpt lat="49.28773" lon="1.40009">
        <ele>137</ele>
        <time>2010-05-24T05:29:28Z</time>
      </trkpt>
      <trkpt lat="49.2878" lon="1.39996">
        <ele>137</ele>
        <time>2010-05-24T05:29:31Z</time>
      </trkpt>
      <trkpt lat="49.28789" lon="1.39985">
        <ele>137</ele>
        <time>2010-05-24T05:29:34Z</time>
      </trkpt>
      <trkpt lat="49.28798" lon="1.39972">
        <ele>137</ele>
        <time>2010-05-24T05:29:37Z</time>
      </trkpt>
      <trkpt lat="49.28808" lon="1.39961">
        <ele>137</ele>
        <time>2010-05-24T05:29:40Z</time>
      </trkpt>
      <trkpt lat="49.28818" lon="1.39949">
        <ele>137</ele>
        <time>2010-05-24T05:29:43Z</time>
      </trkpt>
      <trkpt lat="49.28827" lon="1.39938">
        <ele>143</ele>
        <time>2010-05-24T05:29:46Z</time>
      </trkpt>
      <trkpt lat="49.28837" lon="1.39927">
        <ele>143</ele>
        <time>2010-05-24T05:29:49Z</time>
      </trkpt>
      <trkpt lat="49.28847" lon="1.39916">
        <ele>143</ele>
        <time>2010-05-24T05:29:52Z</time>
      </trkpt>
      <trkpt lat="49.28858" lon="1.39904">
        <ele>143</ele>
        <time>2010-05-24T05:29:55Z</time>
      </trkpt>
      <trkpt lat="49.28869" lon="1.3989">
        <ele>143</ele>
        <time>2010-05-24T05:29:58Z</time>
      </trkpt>
      <trkpt lat="49.28878" lon="1.39882">
        <ele>143</ele>
        <time>2010-05-24T05:30:00Z</time>
      </trkpt>
      <trkpt lat="49.28885" lon="1.39873">
        <ele>143</ele>
        <time>2010-05-24T05:30:02Z</time>
      </trkpt>
      <trkpt lat="49.28894" lon="1.39866">
        <ele>143</ele>
        <time>2010-05-24T05:30:04Z</time>
      </trkpt>
      <trkpt lat="49.28905" lon="1.39855">
        <ele>143</ele>
        <time>2010-05-24T05:30:07Z</time>
      </trkpt>
      <trkpt lat="49.28915" lon="1.39844">
        <ele>143</ele>
        <time>2010-05-24T05:30:10Z</time>
      </trkpt>
      <trkpt lat="49.28927" lon="1.39833">
        <ele>143</ele>
        <time>2010-05-24T05:30:13Z</time>
      </trkpt>
      <trkpt lat="49.28935" lon="1.39825">
        <ele>143</ele>
        <time>2010-05-24T05:30:15Z</time>
      </trkpt>
      <trkpt lat="49.28946" lon="1.39813">
        <ele>143</ele>
        <time>2010-05-24T05:30:18Z</time>
      </trkpt>
      <trkpt lat="49.28954" lon="1.39805">
        <ele>143</ele>
        <time>2010-05-24T05:30:20Z</time>
      </trkpt>
      <trkpt lat="49.28962" lon="1.39797">
        <ele>143</ele>
        <time>2010-05-24T05:30:22Z</time>
      </trkpt>
      <trkpt lat="49.2897" lon="1.39789">
        <ele>143</ele>
        <time>2010-05-24T05:30:24Z</time>
      </trkpt>
      <trkpt lat="49.28978" lon="1.3978">
        <ele>143</ele>
        <time>2010-05-24T05:30:26Z</time>
      </trkpt>
      <trkpt lat="49.28986" lon="1.39771">
        <ele>143</ele>
        <time>2010-05-24T05:30:28Z</time>
      </trkpt>
      <trkpt lat="49.28994" lon="1.39763">
        <ele>143</ele>
        <time>2010-05-24T05:30:30Z</time>
      </trkpt>
      <trkpt lat="49.29002" lon="1.39754">
        <ele>143</ele>
        <time>2010-05-24T05:30:32Z</time>
      </trkpt>
      <trkpt lat="49.29009" lon="1.39746">
        <ele>143</ele>
        <time>2010-05-24T05:30:34Z</time>
      </trkpt>
      <trkpt lat="49.2902" lon="1.39735">
        <ele>143</ele>
        <time>2010-05-24T05:30:37Z</time>
      </trkpt>
      <trkpt lat="49.2903" lon="1.39724">
        <ele>143</ele>
        <time>2010-05-24T05:30:40Z</time>
      </trkpt>
      <trkpt lat="49.2904" lon="1.39714">
        <ele>143</ele>
        <time>2010-05-24T05:30:43Z</time>
      </trkpt>
      <trkpt lat="49.29051" lon="1.39702">
        <ele>143</ele>
        <time>2010-05-24T05:30:46Z</time>
      </trkpt>
      <trkpt lat="49.2906" lon="1.39693">
        <ele>143</ele>
        <time>2010-05-24T05:30:49Z</time>
      </trkpt>
      <trkpt lat="49.29068" lon="1.39684">
        <ele>143</ele>
        <time>2010-05-24T05:30:52Z</time>
      </trkpt>
      <trkpt lat="49.29076" lon="1.39676">
        <ele>143</ele>
        <time>2010-05-24T05:30:55Z</time>
      </trkpt>
      <trkpt lat="49.29085" lon="1.39667">
        <ele>143</ele>
        <time>2010-05-24T05:30:58Z</time>
      </trkpt>
      <trkpt lat="49.29093" lon="1.39659">
        <ele>143</ele>
        <time>2010-05-24T05:31:01Z</time>
      </trkpt>
      <trkpt lat="49.29102" lon="1.39649">
        <ele>143</ele>
        <time>2010-05-24T05:31:04Z</time>
      </trkpt>
      <trkpt lat="49.29112" lon="1.3964">
        <ele>143</ele>
        <time>2010-05-24T05:31:07Z</time>
      </trkpt>
      <trkpt lat="49.29122" lon="1.39629">
        <ele>143</ele>
        <time>2010-05-24T05:31:10Z</time>
      </trkpt>
      <trkpt lat="49.29132" lon="1.39619">
        <ele>143</ele>
        <time>2010-05-24T05:31:13Z</time>
      </trkpt>
      <trkpt lat="49.2914" lon="1.39609">
        <ele>143</ele>
        <time>2010-05-24T05:31:16Z</time>
      </trkpt>
      <trkpt lat="49.29151" lon="1.39599">
        <ele>143</ele>
        <time>2010-05-24T05:31:19Z</time>
      </trkpt>
      <trkpt lat="49.29161" lon="1.39587">
        <ele>143</ele>
        <time>2010-05-24T05:31:22Z</time>
      </trkpt>
      <trkpt lat="49.29169" lon="1.39578">
        <ele>143</ele>
        <time>2010-05-24T05:31:25Z</time>
      </trkpt>
      <trkpt lat="49.29171" lon="1.39564">
        <ele>143</ele>
        <time>2010-05-24T05:31:29Z</time>
      </trkpt>
      <trkpt lat="49.29165" lon="1.39551">
        <ele>143</ele>
        <time>2010-05-24T05:31:32Z</time>
      </trkpt>
      <trkpt lat="49.29157" lon="1.39539">
        <ele>143</ele>
        <time>2010-05-24T05:31:35Z</time>
      </trkpt>
      <trkpt lat="49.29149" lon="1.39525">
        <ele>143</ele>
        <time>2010-05-24T05:31:38Z</time>
      </trkpt>
      <trkpt lat="49.2914" lon="1.3951">
        <ele>143</ele>
        <time>2010-05-24T05:31:41Z</time>
      </trkpt>
      <trkpt lat="49.29132" lon="1.39495">
        <ele>143</ele>
        <time>2010-05-24T05:31:44Z</time>
      </trkpt>
      <trkpt lat="49.29125" lon="1.39481">
        <ele>143</ele>
        <time>2010-05-24T05:31:47Z</time>
      </trkpt>
      <trkpt lat="49.29116" lon="1.39467">
        <ele>143</ele>
        <time>2010-05-24T05:31:50Z</time>
      </trkpt>
      <trkpt lat="49.29108" lon="1.39452">
        <ele>143</ele>
        <time>2010-05-24T05:31:53Z</time>
      </trkpt>
      <trkpt lat="49.29099" lon="1.39438">
        <ele>143</ele>
        <time>2010-05-24T05:31:56Z</time>
      </trkpt>
      <trkpt lat="49.29093" lon="1.39428">
        <ele>143</ele>
        <time>2010-05-24T05:31:58Z</time>
      </trkpt>
      <trkpt lat="49.29087" lon="1.39417">
        <ele>143</ele>
        <time>2010-05-24T05:32:00Z</time>
      </trkpt>
      <trkpt lat="49.29079" lon="1.39402">
        <ele>149</ele>
        <time>2010-05-24T05:32:03Z</time>
      </trkpt>
      <trkpt lat="49.29073" lon="1.39391">
        <ele>149</ele>
        <time>2010-05-24T05:32:05Z</time>
      </trkpt>
      <trkpt lat="49.29065" lon="1.39375">
        <ele>149</ele>
        <time>2010-05-24T05:32:08Z</time>
      </trkpt>
      <trkpt lat="49.29059" lon="1.39364">
        <ele>149</ele>
        <time>2010-05-24T05:32:10Z</time>
      </trkpt>
      <trkpt lat="49.29053" lon="1.39352">
        <ele>149</ele>
        <time>2010-05-24T05:32:12Z</time>
      </trkpt>
      <trkpt lat="49.29046" lon="1.39334">
        <ele>149</ele>
        <time>2010-05-24T05:32:15Z</time>
      </trkpt>
      <trkpt lat="49.29042" lon="1.39322">
        <ele>149</ele>
        <time>2010-05-24T05:32:17Z</time>
      </trkpt>
      <trkpt lat="49.29038" lon="1.39309">
        <ele>149</ele>
        <time>2010-05-24T05:32:19Z</time>
      </trkpt>
      <trkpt lat="49.29034" lon="1.39296">
        <ele>149</ele>
        <time>2010-05-24T05:32:21Z</time>
      </trkpt>
      <trkpt lat="49.2903" lon="1.39276">
        <ele>149</ele>
        <time>2010-05-24T05:32:24Z</time>
      </trkpt>
      <trkpt lat="49.29028" lon="1.39262">
        <ele>149</ele>
        <time>2010-05-24T05:32:26Z</time>
      </trkpt>
      <trkpt lat="49.29026" lon="1.39247">
        <ele>149</ele>
        <time>2010-05-24T05:32:28Z</time>
      </trkpt>
      <trkpt lat="49.29024" lon="1.39227">
        <ele>149</ele>
        <time>2010-05-24T05:32:31Z</time>
      </trkpt>
      <trkpt lat="49.29024" lon="1.39213">
        <ele>149</ele>
        <time>2010-05-24T05:32:33Z</time>
      </trkpt>
      <trkpt lat="49.29026" lon="1.39194">
        <ele>149</ele>
        <time>2010-05-24T05:32:36Z</time>
      </trkpt>
      <trkpt lat="49.29036" lon="1.39184">
        <ele>149</ele>
        <time>2010-05-24T05:32:39Z</time>
      </trkpt>
      <trkpt lat="49.29048" lon="1.39177">
        <ele>149</ele>
        <time>2010-05-24T05:32:42Z</time>
      </trkpt>
      <trkpt lat="49.29056" lon="1.39171">
        <ele>149</ele>
        <time>2010-05-24T05:32:44Z</time>
      </trkpt>
      <trkpt lat="49.29068" lon="1.39165">
        <ele>149</ele>
        <time>2010-05-24T05:32:47Z</time>
      </trkpt>
      <trkpt lat="49.29079" lon="1.39157">
        <ele>149</ele>
        <time>2010-05-24T05:32:50Z</time>
      </trkpt>
      <trkpt lat="49.29088" lon="1.39151">
        <ele>149</ele>
        <time>2010-05-24T05:32:52Z</time>
      </trkpt>
      <trkpt lat="49.29101" lon="1.39143">
        <ele>149</ele>
        <time>2010-05-24T05:32:55Z</time>
      </trkpt>
      <trkpt lat="49.2911" lon="1.39136">
        <ele>149</ele>
        <time>2010-05-24T05:32:57Z</time>
      </trkpt>
      <trkpt lat="49.29119" lon="1.3913">
        <ele>149</ele>
        <time>2010-05-24T05:33:00Z</time>
      </trkpt>
      <trkpt lat="49.29128" lon="1.39123">
        <ele>149</ele>
        <time>2010-05-24T05:33:37Z</time>
      </trkpt>
      <trkpt lat="49.29137" lon="1.39118">
        <ele>149</ele>
        <time>2010-05-24T05:33:41Z</time>
      </trkpt>
      <trkpt lat="49.29148" lon="1.39108">
        <ele>149</ele>
        <time>2010-05-24T05:33:45Z</time>
      </trkpt>
      <trkpt lat="49.29158" lon="1.39101">
        <ele>149</ele>
        <time>2010-05-24T05:33:48Z</time>
      </trkpt>
      <trkpt lat="49.29169" lon="1.39092">
        <ele>149</ele>
        <time>2010-05-24T05:33:51Z</time>
      </trkpt>
      <trkpt lat="49.2918" lon="1.39084">
        <ele>149</ele>
        <time>2010-05-24T05:33:54Z</time>
      </trkpt>
      <trkpt lat="49.29189" lon="1.39077">
        <ele>149</ele>
        <time>2010-05-24T05:33:56Z</time>
      </trkpt>
      <trkpt lat="49.29201" lon="1.3907">
        <ele>149</ele>
        <time>2010-05-24T05:33:59Z</time>
      </trkpt>
      <trkpt lat="49.2921" lon="1.39065">
        <ele>149</ele>
        <time>2010-05-24T05:34:01Z</time>
      </trkpt>
      <trkpt lat="49.29219" lon="1.39059">
        <ele>149</ele>
        <time>2010-05-24T05:34:03Z</time>
      </trkpt>
      <trkpt lat="49.29229" lon="1.39053">
        <ele>149</ele>
        <time>2010-05-24T05:34:05Z</time>
      </trkpt>
      <trkpt lat="49.29238" lon="1.39046">
        <ele>149</ele>
        <time>2010-05-24T05:34:07Z</time>
      </trkpt>
      <trkpt lat="49.29247" lon="1.3904">
        <ele>149</ele>
        <time>2010-05-24T05:34:09Z</time>
      </trkpt>
      <trkpt lat="49.29257" lon="1.39035">
        <ele>149</ele>
        <time>2010-05-24T05:34:11Z</time>
      </trkpt>
      <trkpt lat="49.29267" lon="1.39029">
        <ele>149</ele>
        <time>2010-05-24T05:34:13Z</time>
      </trkpt>
      <trkpt lat="49.29277" lon="1.39022">
        <ele>149</ele>
        <time>2010-05-24T05:34:15Z</time>
      </trkpt>
      <trkpt lat="49.29288" lon="1.39014">
        <ele>149</ele>
        <time>2010-05-24T05:34:17Z</time>
      </trkpt>
      <trkpt lat="49.29299" lon="1.39007">
        <ele>149</ele>
        <time>2010-05-24T05:34:19Z</time>
      </trkpt>
      <trkpt lat="49.2931" lon="1.38999">
        <ele>149</ele>
        <time>2010-05-24T05:34:21Z</time>
      </trkpt>
      <trkpt lat="49.29322" lon="1.38991">
        <ele>149</ele>
        <time>2010-05-24T05:34:23Z</time>
      </trkpt>
      <trkpt lat="49.29333" lon="1.38983">
        <ele>149</ele>
        <time>2010-05-24T05:34:25Z</time>
      </trkpt>
      <trkpt lat="49.29345" lon="1.38975">
        <ele>149</ele>
        <time>2010-05-24T05:34:27Z</time>
      </trkpt>
      <trkpt lat="49.29357" lon="1.38967">
        <ele>149</ele>
        <time>2010-05-24T05:34:29Z</time>
      </trkpt>
      <trkpt lat="49.29368" lon="1.38959">
        <ele>149</ele>
        <time>2010-05-24T05:34:31Z</time>
      </trkpt>
      <trkpt lat="49.29381" lon="1.3895">
        <ele>149</ele>
        <time>2010-05-24T05:34:33Z</time>
      </trkpt>
      <trkpt lat="49.29393" lon="1.38942">
        <ele>144</ele>
        <time>2010-05-24T05:34:35Z</time>
      </trkpt>
      <trkpt lat="49.29405" lon="1.38933">
        <ele>144</ele>
        <time>2010-05-24T05:34:37Z</time>
      </trkpt>
      <trkpt lat="49.29417" lon="1.38925">
        <ele>144</ele>
        <time>2010-05-24T05:34:39Z</time>
      </trkpt>
      <trkpt lat="49.29428" lon="1.38917">
        <ele>144</ele>
        <time>2010-05-24T05:34:41Z</time>
      </trkpt>
      <trkpt lat="49.29439" lon="1.3891">
        <ele>144</ele>
        <time>2010-05-24T05:34:43Z</time>
      </trkpt>
      <trkpt lat="49.2945" lon="1.38903">
        <ele>144</ele>
        <time>2010-05-24T05:34:45Z</time>
      </trkpt>
      <trkpt lat="49.29461" lon="1.38895">
        <ele>144</ele>
        <time>2010-05-24T05:34:47Z</time>
      </trkpt>
      <trkpt lat="49.29469" lon="1.38889">
        <ele>144</ele>
        <time>2010-05-24T05:34:49Z</time>
      </trkpt>
      <trkpt lat="49.2948" lon="1.38881">
        <ele>144</ele>
        <time>2010-05-24T05:34:51Z</time>
      </trkpt>
      <trkpt lat="49.29491" lon="1.38873">
        <ele>144</ele>
        <time>2010-05-24T05:34:53Z</time>
      </trkpt>
      <trkpt lat="49.29501" lon="1.38866">
        <ele>144</ele>
        <time>2010-05-24T05:34:55Z</time>
      </trkpt>
      <trkpt lat="49.29511" lon="1.3886">
        <ele>144</ele>
        <time>2010-05-24T05:34:57Z</time>
      </trkpt>
      <trkpt lat="49.29521" lon="1.38853">
        <ele>144</ele>
        <time>2010-05-24T05:34:59Z</time>
      </trkpt>
      <trkpt lat="49.29532" lon="1.38845">
        <ele>144</ele>
        <time>2010-05-24T05:35:01Z</time>
      </trkpt>
      <trkpt lat="49.29542" lon="1.38838">
        <ele>144</ele>
        <time>2010-05-24T05:35:03Z</time>
      </trkpt>
      <trkpt lat="49.29552" lon="1.38831">
        <ele>144</ele>
        <time>2010-05-24T05:35:05Z</time>
      </trkpt>
      <trkpt lat="49.29562" lon="1.38824">
        <ele>144</ele>
        <time>2010-05-24T05:35:07Z</time>
      </trkpt>
      <trkpt lat="49.29573" lon="1.38817">
        <ele>144</ele>
        <time>2010-05-24T05:35:09Z</time>
      </trkpt>
      <trkpt lat="49.29585" lon="1.38809">
        <ele>144</ele>
        <time>2010-05-24T05:35:11Z</time>
      </trkpt>
      <trkpt lat="49.29596" lon="1.38801">
        <ele>144</ele>
        <time>2010-05-24T05:35:13Z</time>
      </trkpt>
      <trkpt lat="49.29606" lon="1.38793">
        <ele>144</ele>
        <time>2010-05-24T05:35:15Z</time>
      </trkpt>
      <trkpt lat="49.29618" lon="1.38785">
        <ele>138</ele>
        <time>2010-05-24T05:35:17Z</time>
      </trkpt>
      <trkpt lat="49.29628" lon="1.38778">
        <ele>138</ele>
        <time>2010-05-24T05:35:19Z</time>
      </trkpt>
      <trkpt lat="49.29638" lon="1.38771">
        <ele>138</ele>
        <time>2010-05-24T05:35:21Z</time>
      </trkpt>
      <trkpt lat="49.29649" lon="1.38764">
        <ele>138</ele>
        <time>2010-05-24T05:35:23Z</time>
      </trkpt>
      <trkpt lat="49.29659" lon="1.38757">
        <ele>138</ele>
        <time>2010-05-24T05:35:25Z</time>
      </trkpt>
      <trkpt lat="49.29669" lon="1.38749">
        <ele>138</ele>
        <time>2010-05-24T05:35:27Z</time>
      </trkpt>
      <trkpt lat="49.29679" lon="1.38741">
        <ele>138</ele>
        <time>2010-05-24T05:35:29Z</time>
      </trkpt>
      <trkpt lat="49.29689" lon="1.38732">
        <ele>138</ele>
        <time>2010-05-24T05:35:31Z</time>
      </trkpt>
      <trkpt lat="49.29699" lon="1.38721">
        <ele>138</ele>
        <time>2010-05-24T05:35:33Z</time>
      </trkpt>
      <trkpt lat="49.29706" lon="1.3871">
        <ele>138</ele>
        <time>2010-05-24T05:35:35Z</time>
      </trkpt>
      <trkpt lat="49.29713" lon="1.38697">
        <ele>138</ele>
        <time>2010-05-24T05:35:37Z</time>
      </trkpt>
      <trkpt lat="49.29719" lon="1.38684">
        <ele>138</ele>
        <time>2010-05-24T05:35:39Z</time>
      </trkpt>
      <trkpt lat="49.29726" lon="1.38669">
        <ele>138</ele>
        <time>2010-05-24T05:35:41Z</time>
      </trkpt>
      <trkpt lat="49.29733" lon="1.38654">
        <ele>138</ele>
        <time>2010-05-24T05:35:43Z</time>
      </trkpt>
      <trkpt lat="49.29739" lon="1.3864">
        <ele>138</ele>
        <time>2010-05-24T05:35:45Z</time>
      </trkpt>
      <trkpt lat="49.29744" lon="1.38625">
        <ele>138</ele>
        <time>2010-05-24T05:35:47Z</time>
      </trkpt>
      <trkpt lat="49.2975" lon="1.38611">
        <ele>138</ele>
        <time>2010-05-24T05:35:49Z</time>
      </trkpt>
      <trkpt lat="49.29756" lon="1.38596">
        <ele>138</ele>
        <time>2010-05-24T05:35:51Z</time>
      </trkpt>
      <trkpt lat="49.2976" lon="1.3858">
        <ele>138</ele>
        <time>2010-05-24T05:35:53Z</time>
      </trkpt>
      <trkpt lat="49.29764" lon="1.38565">
        <ele>138</ele>
        <time>2010-05-24T05:35:55Z</time>
      </trkpt>
      <trkpt lat="49.29769" lon="1.3855">
        <ele>138</ele>
        <time>2010-05-24T05:35:57Z</time>
      </trkpt>
      <trkpt lat="49.29772" lon="1.38535">
        <ele>138</ele>
        <time>2010-05-24T05:35:59Z</time>
      </trkpt>
      <trkpt lat="49.29776" lon="1.38518">
        <ele>138</ele>
        <time>2010-05-24T05:36:01Z</time>
      </trkpt>
      <trkpt lat="49.2978" lon="1.38503">
        <ele>138</ele>
        <time>2010-05-24T05:36:03Z</time>
      </trkpt>
      <trkpt lat="49.29783" lon="1.38489">
        <ele>138</ele>
        <time>2010-05-24T05:36:05Z</time>
      </trkpt>
      <trkpt lat="49.29788" lon="1.38472">
        <ele>138</ele>
        <time>2010-05-24T05:36:08Z</time>
      </trkpt>
      <trkpt lat="49.29792" lon="1.38456">
        <ele>138</ele>
        <time>2010-05-24T05:36:11Z</time>
      </trkpt>
      <trkpt lat="49.29796" lon="1.38441">
        <ele>138</ele>
        <time>2010-05-24T05:36:14Z</time>
      </trkpt>
      <trkpt lat="49.29798" lon="1.38424">
        <ele>138</ele>
        <time>2010-05-24T05:36:17Z</time>
      </trkpt>
      <trkpt lat="49.29801" lon="1.38405">
        <ele>138</ele>
        <time>2010-05-24T05:36:20Z</time>
      </trkpt>
      <trkpt lat="49.29804" lon="1.38386">
        <ele>138</ele>
        <time>2010-05-24T05:36:23Z</time>
      </trkpt>
      <trkpt lat="49.29807" lon="1.38367">
        <ele>138</ele>
        <time>2010-05-24T05:36:26Z</time>
      </trkpt>
      <trkpt lat="49.2981" lon="1.38347">
        <ele>138</ele>
        <time>2010-05-24T05:36:29Z</time>
      </trkpt>
      <trkpt lat="49.29813" lon="1.38328">
        <ele>138</ele>
        <time>2010-05-24T05:36:32Z</time>
      </trkpt>
      <trkpt lat="49.29816" lon="1.38307">
        <ele>133</ele>
        <time>2010-05-24T05:36:35Z</time>
      </trkpt>
      <trkpt lat="49.29818" lon="1.38287">
        <ele>133</ele>
        <time>2010-05-24T05:36:38Z</time>
      </trkpt>
      <trkpt lat="49.29821" lon="1.38266">
        <ele>133</ele>
        <time>2010-05-24T05:36:41Z</time>
      </trkpt>
      <trkpt lat="49.29823" lon="1.38252">
        <ele>133</ele>
        <time>2010-05-24T05:36:43Z</time>
      </trkpt>
      <trkpt lat="49.29824" lon="1.38237">
        <ele>133</ele>
        <time>2010-05-24T05:36:45Z</time>
      </trkpt>
      <trkpt lat="49.29826" lon="1.38223">
        <ele>133</ele>
        <time>2010-05-24T05:36:47Z</time>
      </trkpt>
      <trkpt lat="49.29828" lon="1.38208">
        <ele>133</ele>
        <time>2010-05-24T05:36:49Z</time>
      </trkpt>
      <trkpt lat="49.29829" lon="1.38192">
        <ele>133</ele>
        <time>2010-05-24T05:36:51Z</time>
      </trkpt>
      <trkpt lat="49.2983" lon="1.38176">
        <ele>133</ele>
        <time>2010-05-24T05:36:53Z</time>
      </trkpt>
      <trkpt lat="49.29831" lon="1.3816">
        <ele>133</ele>
        <time>2010-05-24T05:36:55Z</time>
      </trkpt>
      <trkpt lat="49.29831" lon="1.38144">
        <ele>133</ele>
        <time>2010-05-24T05:36:57Z</time>
      </trkpt>
      <trkpt lat="49.29831" lon="1.38128">
        <ele>133</ele>
        <time>2010-05-24T05:36:59Z</time>
      </trkpt>
      <trkpt lat="49.29831" lon="1.38111">
        <ele>133</ele>
        <time>2010-05-24T05:37:01Z</time>
      </trkpt>
      <trkpt lat="49.29832" lon="1.38094">
        <ele>133</ele>
        <time>2010-05-24T05:37:03Z</time>
      </trkpt>
      <trkpt lat="49.29833" lon="1.38077">
        <ele>133</ele>
        <time>2010-05-24T05:37:05Z</time>
      </trkpt>
      <trkpt lat="49.29834" lon="1.3806">
        <ele>133</ele>
        <time>2010-05-24T05:37:07Z</time>
      </trkpt>
      <trkpt lat="49.29837" lon="1.38044">
        <ele>133</ele>
        <time>2010-05-24T05:37:09Z</time>
      </trkpt>
      <trkpt lat="49.29841" lon="1.38028">
        <ele>133</ele>
        <time>2010-05-24T05:37:11Z</time>
      </trkpt>
      <trkpt lat="49.29846" lon="1.38013">
        <ele>133</ele>
        <time>2010-05-24T05:37:13Z</time>
      </trkpt>
      <trkpt lat="49.29851" lon="1.37997">
        <ele>133</ele>
        <time>2010-05-24T05:37:15Z</time>
      </trkpt>
      <trkpt lat="49.29857" lon="1.37981">
        <ele>133</ele>
        <time>2010-05-24T05:37:17Z</time>
      </trkpt>
      <trkpt lat="49.29863" lon="1.37966">
        <ele>133</ele>
        <time>2010-05-24T05:37:19Z</time>
      </trkpt>
      <trkpt lat="49.29868" lon="1.37951">
        <ele>133</ele>
        <time>2010-05-24T05:37:21Z</time>
      </trkpt>
      <trkpt lat="49.29873" lon="1.37936">
        <ele>133</ele>
        <time>2010-05-24T05:37:23Z</time>
      </trkpt>
      <trkpt lat="49.29879" lon="1.37922">
        <ele>133</ele>
        <time>2010-05-24T05:37:25Z</time>
      </trkpt>
      <trkpt lat="49.29884" lon="1.37908">
        <ele>133</ele>
        <time>2010-05-24T05:37:27Z</time>
      </trkpt>
      <trkpt lat="49.29888" lon="1.37894">
        <ele>133</ele>
        <time>2010-05-24T05:37:29Z</time>
      </trkpt>
      <trkpt lat="49.29893" lon="1.3788">
        <ele>133</ele>
        <time>2010-05-24T05:37:31Z</time>
      </trkpt>
      <trkpt lat="49.29898" lon="1.37864">
        <ele>133</ele>
        <time>2010-05-24T05:37:33Z</time>
      </trkpt>
      <trkpt lat="49.29902" lon="1.3785">
        <ele>133</ele>
        <time>2010-05-24T05:37:35Z</time>
      </trkpt>
      <trkpt lat="49.29908" lon="1.37836">
        <ele>133</ele>
        <time>2010-05-24T05:37:37Z</time>
      </trkpt>
      <trkpt lat="49.29913" lon="1.37821">
        <ele>133</ele>
        <time>2010-05-24T05:37:39Z</time>
      </trkpt>
      <trkpt lat="49.29918" lon="1.37807">
        <ele>133</ele>
        <time>2010-05-24T05:37:41Z</time>
      </trkpt>
      <trkpt lat="49.29922" lon="1.37794">
        <ele>133</ele>
        <time>2010-05-24T05:37:43Z</time>
      </trkpt>
      <trkpt lat="49.29927" lon="1.37779">
        <ele>133</ele>
        <time>2010-05-24T05:37:45Z</time>
      </trkpt>
      <trkpt lat="49.29932" lon="1.37765">
        <ele>133</ele>
        <time>2010-05-24T05:37:47Z</time>
      </trkpt>
      <trkpt lat="49.29937" lon="1.37751">
        <ele>133</ele>
        <time>2010-05-24T05:37:49Z</time>
      </trkpt>
      <trkpt lat="49.29942" lon="1.37738">
        <ele>133</ele>
        <time>2010-05-24T05:37:51Z</time>
      </trkpt>
      <trkpt lat="49.29946" lon="1.37724">
        <ele>133</ele>
        <time>2010-05-24T05:37:53Z</time>
      </trkpt>
      <trkpt lat="49.29951" lon="1.37711">
        <ele>133</ele>
        <time>2010-05-24T05:37:55Z</time>
      </trkpt>
      <trkpt lat="49.29955" lon="1.37697">
        <ele>133</ele>
        <time>2010-05-24T05:37:57Z</time>
      </trkpt>
      <trkpt lat="49.29959" lon="1.37685">
        <ele>138</ele>
        <time>2010-05-24T05:37:59Z</time>
      </trkpt>
      <trkpt lat="49.29964" lon="1.37671">
        <ele>138</ele>
        <time>2010-05-24T05:38:01Z</time>
      </trkpt>
      <trkpt lat="49.2997" lon="1.37653">
        <ele>138</ele>
        <time>2010-05-24T05:38:04Z</time>
      </trkpt>
      <trkpt lat="49.29975" lon="1.37641">
        <ele>138</ele>
        <time>2010-05-24T05:38:06Z</time>
      </trkpt>
      <trkpt lat="49.29982" lon="1.37625">
        <ele>138</ele>
        <time>2010-05-24T05:38:09Z</time>
      </trkpt>
      <trkpt lat="49.29988" lon="1.37612">
        <ele>138</ele>
        <time>2010-05-24T05:38:11Z</time>
      </trkpt>
      <trkpt lat="49.29997" lon="1.37598">
        <ele>138</ele>
        <time>2010-05-24T05:38:14Z</time>
      </trkpt>
      <trkpt lat="49.30004" lon="1.37588">
        <ele>138</ele>
        <time>2010-05-24T05:38:16Z</time>
      </trkpt>
      <trkpt lat="49.3001" lon="1.37578">
        <ele>138</ele>
        <time>2010-05-24T05:38:18Z</time>
      </trkpt>
      <trkpt lat="49.30018" lon="1.37566">
        <ele>138</ele>
        <time>2010-05-24T05:38:20Z</time>
      </trkpt>
      <trkpt lat="49.30024" lon="1.37556">
        <ele>138</ele>
        <time>2010-05-24T05:38:22Z</time>
      </trkpt>
      <trkpt lat="49.30033" lon="1.37542">
        <ele>138</ele>
        <time>2010-05-24T05:38:25Z</time>
      </trkpt>
      <trkpt lat="49.30041" lon="1.37532">
        <ele>138</ele>
        <time>2010-05-24T05:38:27Z</time>
      </trkpt>
      <trkpt lat="49.3005" lon="1.37519">
        <ele>138</ele>
        <time>2010-05-24T05:38:30Z</time>
      </trkpt>
      <trkpt lat="49.30056" lon="1.37509">
        <ele>138</ele>
        <time>2010-05-24T05:38:32Z</time>
      </trkpt>
      <trkpt lat="49.30063" lon="1.37499">
        <ele>138</ele>
        <time>2010-05-24T05:38:34Z</time>
      </trkpt>
      <trkpt lat="49.30069" lon="1.37489">
        <ele>138</ele>
        <time>2010-05-24T05:38:36Z</time>
      </trkpt>
      <trkpt lat="49.30079" lon="1.37476">
        <ele>138</ele>
        <time>2010-05-24T05:38:39Z</time>
      </trkpt>
      <trkpt lat="49.30088" lon="1.37462">
        <ele>138</ele>
        <time>2010-05-24T05:38:42Z</time>
      </trkpt>
      <trkpt lat="49.30097" lon="1.3745">
        <ele>138</ele>
        <time>2010-05-24T05:38:45Z</time>
      </trkpt>
      <trkpt lat="49.30107" lon="1.37442">
        <ele>138</ele>
        <time>2010-05-24T05:38:48Z</time>
      </trkpt>
      <trkpt lat="49.30115" lon="1.37433">
        <ele>138</ele>
        <time>2010-05-24T05:38:51Z</time>
      </trkpt>
      <trkpt lat="49.30114" lon="1.37418">
        <ele>138</ele>
        <time>2010-05-24T05:38:54Z</time>
      </trkpt>
      <trkpt lat="49.30112" lon="1.37398">
        <ele>138</ele>
        <time>2010-05-24T05:38:57Z</time>
      </trkpt>
      <trkpt lat="49.30109" lon="1.3738">
        <ele>138</ele>
        <time>2010-05-24T05:39:00Z</time>
      </trkpt>
      <trkpt lat="49.30107" lon="1.3736">
        <ele>138</ele>
        <time>2010-05-24T05:39:03Z</time>
      </trkpt>
      <trkpt lat="49.30104" lon="1.37339">
        <ele>138</ele>
        <time>2010-05-24T05:39:06Z</time>
      </trkpt>
      <trkpt lat="49.30099" lon="1.37321">
        <ele>138</ele>
        <time>2010-05-24T05:39:09Z</time>
      </trkpt>
      <trkpt lat="49.30096" lon="1.37307">
        <ele>138</ele>
        <time>2010-05-24T05:39:11Z</time>
      </trkpt>
      <trkpt lat="49.3009" lon="1.37289">
        <ele>138</ele>
        <time>2010-05-24T05:39:14Z</time>
      </trkpt>
      <trkpt lat="49.30086" lon="1.37275">
        <ele>138</ele>
        <time>2010-05-24T05:39:16Z</time>
      </trkpt>
      <trkpt lat="49.30082" lon="1.37262">
        <ele>138</ele>
        <time>2010-05-24T05:39:18Z</time>
      </trkpt>
      <trkpt lat="49.30078" lon="1.37249">
        <ele>138</ele>
        <time>2010-05-24T05:39:20Z</time>
      </trkpt>
      <trkpt lat="49.30073" lon="1.37236">
        <ele>138</ele>
        <time>2010-05-24T05:39:22Z</time>
      </trkpt>
      <trkpt lat="49.30069" lon="1.37223">
        <ele>138</ele>
        <time>2010-05-24T05:39:24Z</time>
      </trkpt>
      <trkpt lat="49.30064" lon="1.37211">
        <ele>138</ele>
        <time>2010-05-24T05:39:26Z</time>
      </trkpt>
      <trkpt lat="49.3006" lon="1.37196">
        <ele>138</ele>
        <time>2010-05-24T05:39:28Z</time>
      </trkpt>
      <trkpt lat="49.30055" lon="1.37184">
        <ele>138</ele>
        <time>2010-05-24T05:39:30Z</time>
      </trkpt>
      <trkpt lat="49.3005" lon="1.37171">
        <ele>138</ele>
        <time>2010-05-24T05:39:32Z</time>
      </trkpt>
      <trkpt lat="49.30046" lon="1.37158">
        <ele>138</ele>
        <time>2010-05-24T05:39:34Z</time>
      </trkpt>
      <trkpt lat="49.30042" lon="1.37145">
        <ele>138</ele>
        <time>2010-05-24T05:39:36Z</time>
      </trkpt>
      <trkpt lat="49.30039" lon="1.37131">
        <ele>138</ele>
        <time>2010-05-24T05:39:38Z</time>
      </trkpt>
      <trkpt lat="49.30036" lon="1.37118">
        <ele>138</ele>
        <time>2010-05-24T05:39:40Z</time>
      </trkpt>
      <trkpt lat="49.30034" lon="1.37104">
        <ele>138</ele>
        <time>2010-05-24T05:39:42Z</time>
      </trkpt>
      <trkpt lat="49.30032" lon="1.37083">
        <ele>138</ele>
        <time>2010-05-24T05:39:45Z</time>
      </trkpt>
      <trkpt lat="49.30031" lon="1.37069">
        <ele>138</ele>
        <time>2010-05-24T05:39:47Z</time>
      </trkpt>
      <trkpt lat="49.3003" lon="1.37049">
        <ele>138</ele>
        <time>2010-05-24T05:39:50Z</time>
      </trkpt>
      <trkpt lat="49.30029" lon="1.3703">
        <ele>138</ele>
        <time>2010-05-24T05:39:53Z</time>
      </trkpt>
      <trkpt lat="49.30029" lon="1.37011">
        <ele>143</ele>
        <time>2010-05-24T05:39:56Z</time>
      </trkpt>
      <trkpt lat="49.30029" lon="1.3699">
        <ele>143</ele>
        <time>2010-05-24T05:39:59Z</time>
      </trkpt>
      <trkpt lat="49.30029" lon="1.36971">
        <ele>143</ele>
        <time>2010-05-24T05:40:02Z</time>
      </trkpt>
      <trkpt lat="49.30029" lon="1.36956">
        <ele>143</ele>
        <time>2010-05-24T05:40:04Z</time>
      </trkpt>
      <trkpt lat="49.30028" lon="1.36936">
        <ele>143</ele>
        <time>2010-05-24T05:40:07Z</time>
      </trkpt>
      <trkpt lat="49.30028" lon="1.36915">
        <ele>143</ele>
        <time>2010-05-24T05:40:10Z</time>
      </trkpt>
      <trkpt lat="49.30028" lon="1.36901">
        <ele>143</ele>
        <time>2010-05-24T05:40:12Z</time>
      </trkpt>
      <trkpt lat="49.30028" lon="1.3688">
        <ele>143</ele>
        <time>2010-05-24T05:40:15Z</time>
      </trkpt>
      <trkpt lat="49.30027" lon="1.3686">
        <ele>143</ele>
        <time>2010-05-24T05:40:18Z</time>
      </trkpt>
      <trkpt lat="49.30026" lon="1.36841">
        <ele>143</ele>
        <time>2010-05-24T05:40:21Z</time>
      </trkpt>
      <trkpt lat="49.30025" lon="1.36822">
        <ele>143</ele>
        <time>2010-05-24T05:40:24Z</time>
      </trkpt>
      <trkpt lat="49.30022" lon="1.36802">
        <ele>143</ele>
        <time>2010-05-24T05:40:27Z</time>
      </trkpt>
      <trkpt lat="49.30019" lon="1.36788">
        <ele>143</ele>
        <time>2010-05-24T05:40:29Z</time>
      </trkpt>
      <trkpt lat="49.30017" lon="1.36775">
        <ele>143</ele>
        <time>2010-05-24T05:40:31Z</time>
      </trkpt>
      <trkpt lat="49.30012" lon="1.36755">
        <ele>143</ele>
        <time>2010-05-24T05:40:34Z</time>
      </trkpt>
      <trkpt lat="49.30006" lon="1.36736">
        <ele>143</ele>
        <time>2010-05-24T05:40:37Z</time>
      </trkpt>
      <trkpt lat="49.30003" lon="1.36723">
        <ele>149</ele>
        <time>2010-05-24T05:40:39Z</time>
      </trkpt>
      <trkpt lat="49.29998" lon="1.36709">
        <ele>149</ele>
        <time>2010-05-24T05:40:41Z</time>
      </trkpt>
      <trkpt lat="49.29993" lon="1.36696">
        <ele>149</ele>
        <time>2010-05-24T05:40:43Z</time>
      </trkpt>
      <trkpt lat="49.29988" lon="1.36683">
        <ele>149</ele>
        <time>2010-05-24T05:40:45Z</time>
      </trkpt>
      <trkpt lat="49.29983" lon="1.3667">
        <ele>149</ele>
        <time>2010-05-24T05:40:47Z</time>
      </trkpt>
      <trkpt lat="49.29978" lon="1.36657">
        <ele>149</ele>
        <time>2010-05-24T05:40:49Z</time>
      </trkpt>
      <trkpt lat="49.29972" lon="1.36645">
        <ele>149</ele>
        <time>2010-05-24T05:40:51Z</time>
      </trkpt>
      <trkpt lat="49.29967" lon="1.36632">
        <ele>149</ele>
        <time>2010-05-24T05:40:53Z</time>
      </trkpt>
      <trkpt lat="49.29962" lon="1.36619">
        <ele>149</ele>
        <time>2010-05-24T05:40:55Z</time>
      </trkpt>
      <trkpt lat="49.29957" lon="1.36607">
        <ele>149</ele>
        <time>2010-05-24T05:40:57Z</time>
      </trkpt>
      <trkpt lat="49.29952" lon="1.36594">
        <ele>149</ele>
        <time>2010-05-24T05:40:59Z</time>
      </trkpt>
      <trkpt lat="49.29946" lon="1.36583">
        <ele>149</ele>
        <time>2010-05-24T05:41:01Z</time>
      </trkpt>
      <trkpt lat="49.29941" lon="1.36569">
        <ele>149</ele>
        <time>2010-05-24T05:41:03Z</time>
      </trkpt>
      <trkpt lat="49.29935" lon="1.36556">
        <ele>149</ele>
        <time>2010-05-24T05:41:05Z</time>
      </trkpt>
      <trkpt lat="49.2993" lon="1.36543">
        <ele>149</ele>
        <time>2010-05-24T05:41:07Z</time>
      </trkpt>
      <trkpt lat="49.29925" lon="1.3653">
        <ele>149</ele>
        <time>2010-05-24T05:41:09Z</time>
      </trkpt>
      <trkpt lat="49.29919" lon="1.36516">
        <ele>149</ele>
        <time>2010-05-24T05:41:11Z</time>
      </trkpt>
      <trkpt lat="49.29914" lon="1.36502">
        <ele>149</ele>
        <time>2010-05-24T05:41:13Z</time>
      </trkpt>
      <trkpt lat="49.29908" lon="1.36487">
        <ele>149</ele>
        <time>2010-05-24T05:41:15Z</time>
      </trkpt>
      <trkpt lat="49.29902" lon="1.36472">
        <ele>149</ele>
        <time>2010-05-24T05:41:17Z</time>
      </trkpt>
      <trkpt lat="49.29895" lon="1.36458">
        <ele>149</ele>
        <time>2010-05-24T05:41:19Z</time>
      </trkpt>
      <trkpt lat="49.2989" lon="1.36444">
        <ele>149</ele>
        <time>2010-05-24T05:41:21Z</time>
      </trkpt>
      <trkpt lat="49.29884" lon="1.3643">
        <ele>149</ele>
        <time>2010-05-24T05:41:23Z</time>
      </trkpt>
      <trkpt lat="49.29878" lon="1.36416">
        <ele>149</ele>
        <time>2010-05-24T05:41:25Z</time>
      </trkpt>
      <trkpt lat="49.29871" lon="1.364">
        <ele>149</ele>
        <time>2010-05-24T05:41:27Z</time>
      </trkpt>
      <trkpt lat="49.29865" lon="1.36385">
        <ele>149</ele>
        <time>2010-05-24T05:41:29Z</time>
      </trkpt>
      <trkpt lat="49.29859" lon="1.3637">
        <ele>149</ele>
        <time>2010-05-24T05:41:31Z</time>
      </trkpt>
      <trkpt lat="49.29853" lon="1.36355">
        <ele>149</ele>
        <time>2010-05-24T05:41:33Z</time>
      </trkpt>
      <trkpt lat="49.29846" lon="1.3634">
        <ele>149</ele>
        <time>2010-05-24T05:41:35Z</time>
      </trkpt>
      <trkpt lat="49.29839" lon="1.36325">
        <ele>149</ele>
        <time>2010-05-24T05:41:37Z</time>
      </trkpt>
      <trkpt lat="49.29832" lon="1.36309">
        <ele>149</ele>
        <time>2010-05-24T05:41:39Z</time>
      </trkpt>
      <trkpt lat="49.29826" lon="1.36292">
        <ele>149</ele>
        <time>2010-05-24T05:41:41Z</time>
      </trkpt>
      <trkpt lat="49.29818" lon="1.36275">
        <ele>149</ele>
        <time>2010-05-24T05:41:43Z</time>
      </trkpt>
      <trkpt lat="49.29811" lon="1.36258">
        <ele>149</ele>
        <time>2010-05-24T05:41:45Z</time>
      </trkpt>
      <trkpt lat="49.29804" lon="1.3624">
        <ele>149</ele>
        <time>2010-05-24T05:41:47Z</time>
      </trkpt>
      <trkpt lat="49.29796" lon="1.36222">
        <ele>149</ele>
        <time>2010-05-24T05:41:49Z</time>
      </trkpt>
      <trkpt lat="49.29789" lon="1.36203">
        <ele>149</ele>
        <time>2010-05-24T05:41:51Z</time>
      </trkpt>
      <trkpt lat="49.29782" lon="1.36183">
        <ele>149</ele>
        <time>2010-05-24T05:41:53Z</time>
      </trkpt>
      <trkpt lat="49.29776" lon="1.36163">
        <ele>149</ele>
        <time>2010-05-24T05:41:55Z</time>
      </trkpt>
      <trkpt lat="49.2977" lon="1.36142">
        <ele>149</ele>
        <time>2010-05-24T05:41:57Z</time>
      </trkpt>
      <trkpt lat="49.29764" lon="1.36121">
        <ele>149</ele>
        <time>2010-05-24T05:41:59Z</time>
      </trkpt>
      <trkpt lat="49.29758" lon="1.361">
        <ele>149</ele>
        <time>2010-05-24T05:42:01Z</time>
      </trkpt>
      <trkpt lat="49.29753" lon="1.3608">
        <ele>149</ele>
        <time>2010-05-24T05:42:03Z</time>
      </trkpt>
      <trkpt lat="49.29747" lon="1.36059">
        <ele>149</ele>
        <time>2010-05-24T05:42:05Z</time>
      </trkpt>
      <trkpt lat="49.29742" lon="1.36038">
        <ele>149</ele>
        <time>2010-05-24T05:42:07Z</time>
      </trkpt>
      <trkpt lat="49.29736" lon="1.36018">
        <ele>149</ele>
        <time>2010-05-24T05:42:09Z</time>
      </trkpt>
      <trkpt lat="49.2973" lon="1.35998">
        <ele>149</ele>
        <time>2010-05-24T05:42:11Z</time>
      </trkpt>
      <trkpt lat="49.29724" lon="1.35978">
        <ele>149</ele>
        <time>2010-05-24T05:42:13Z</time>
      </trkpt>
      <trkpt lat="49.29719" lon="1.35957">
        <ele>149</ele>
        <time>2010-05-24T05:42:15Z</time>
      </trkpt>
      <trkpt lat="49.29713" lon="1.35938">
        <ele>149</ele>
        <time>2010-05-24T05:42:17Z</time>
      </trkpt>
      <trkpt lat="49.29708" lon="1.35918">
        <ele>149</ele>
        <time>2010-05-24T05:42:19Z</time>
      </trkpt>
      <trkpt lat="49.29703" lon="1.35898">
        <ele>149</ele>
        <time>2010-05-24T05:42:21Z</time>
      </trkpt>
      <trkpt lat="49.29697" lon="1.35878">
        <ele>149</ele>
        <time>2010-05-24T05:42:23Z</time>
      </trkpt>
      <trkpt lat="49.29692" lon="1.35859">
        <ele>149</ele>
        <time>2010-05-24T05:42:25Z</time>
      </trkpt>
      <trkpt lat="49.29686" lon="1.3584">
        <ele>149</ele>
        <time>2010-05-24T05:42:27Z</time>
      </trkpt>
      <trkpt lat="49.29681" lon="1.35822">
        <ele>149</ele>
        <time>2010-05-24T05:42:29Z</time>
      </trkpt>
      <trkpt lat="49.29676" lon="1.35805">
        <ele>149</ele>
        <time>2010-05-24T05:42:31Z</time>
      </trkpt>
      <trkpt lat="49.29673" lon="1.35787">
        <ele>149</ele>
        <time>2010-05-24T05:42:33Z</time>
      </trkpt>
      <trkpt lat="49.29676" lon="1.35771">
        <ele>149</ele>
        <time>2010-05-24T05:42:35Z</time>
      </trkpt>
      <trkpt lat="49.29683" lon="1.35758">
        <ele>149</ele>
        <time>2010-05-24T05:42:37Z</time>
      </trkpt>
      <trkpt lat="49.29691" lon="1.35746">
        <ele>149</ele>
        <time>2010-05-24T05:42:39Z</time>
      </trkpt>
      <trkpt lat="49.297" lon="1.35735">
        <ele>143</ele>
        <time>2010-05-24T05:42:41Z</time>
      </trkpt>
      <trkpt lat="49.29708" lon="1.35725">
        <ele>143</ele>
        <time>2010-05-24T05:42:43Z</time>
      </trkpt>
      <trkpt lat="49.29716" lon="1.35714">
        <ele>143</ele>
        <time>2010-05-24T05:42:45Z</time>
      </trkpt>
      <trkpt lat="49.29723" lon="1.35703">
        <ele>143</ele>
        <time>2010-05-24T05:42:47Z</time>
      </trkpt>
      <trkpt lat="49.29729" lon="1.35691">
        <ele>143</ele>
        <time>2010-05-24T05:42:49Z</time>
      </trkpt>
      <trkpt lat="49.29736" lon="1.35681">
        <ele>143</ele>
        <time>2010-05-24T05:42:51Z</time>
      </trkpt>
      <trkpt lat="49.29743" lon="1.35671">
        <ele>143</ele>
        <time>2010-05-24T05:42:53Z</time>
      </trkpt>
      <trkpt lat="49.29751" lon="1.3566">
        <ele>143</ele>
        <time>2010-05-24T05:42:55Z</time>
      </trkpt>
      <trkpt lat="49.29759" lon="1.35649">
        <ele>143</ele>
        <time>2010-05-24T05:42:57Z</time>
      </trkpt>
      <trkpt lat="49.2977" lon="1.35638">
        <ele>143</ele>
        <time>2010-05-24T05:43:00Z</time>
      </trkpt>
      <trkpt lat="49.29777" lon="1.35629">
        <ele>143</ele>
        <time>2010-05-24T05:43:02Z</time>
      </trkpt>
      <trkpt lat="49.29786" lon="1.35617">
        <ele>143</ele>
        <time>2010-05-24T05:43:04Z</time>
      </trkpt>
      <trkpt lat="49.29793" lon="1.35606">
        <ele>143</ele>
        <time>2010-05-24T05:43:06Z</time>
      </trkpt>
      <trkpt lat="49.29801" lon="1.35594">
        <ele>143</ele>
        <time>2010-05-24T05:43:08Z</time>
      </trkpt>
      <trkpt lat="49.29808" lon="1.35585">
        <ele>143</ele>
        <time>2010-05-24T05:43:10Z</time>
      </trkpt>
      <trkpt lat="49.29818" lon="1.35571">
        <ele>143</ele>
        <time>2010-05-24T05:43:13Z</time>
      </trkpt>
      <trkpt lat="49.29826" lon="1.35561">
        <ele>143</ele>
        <time>2010-05-24T05:43:15Z</time>
      </trkpt>
      <trkpt lat="49.29832" lon="1.35551">
        <ele>143</ele>
        <time>2010-05-24T05:43:17Z</time>
      </trkpt>
      <trkpt lat="49.2984" lon="1.35541">
        <ele>143</ele>
        <time>2010-05-24T05:43:19Z</time>
      </trkpt>
      <trkpt lat="49.29847" lon="1.3553">
        <ele>143</ele>
        <time>2010-05-24T05:43:21Z</time>
      </trkpt>
      <trkpt lat="49.29855" lon="1.35519">
        <ele>143</ele>
        <time>2010-05-24T05:43:23Z</time>
      </trkpt>
      <trkpt lat="49.29862" lon="1.35508">
        <ele>149</ele>
        <time>2010-05-24T05:43:25Z</time>
      </trkpt>
      <trkpt lat="49.2987" lon="1.35498">
        <ele>149</ele>
        <time>2010-05-24T05:43:27Z</time>
      </trkpt>
      <trkpt lat="49.29877" lon="1.35488">
        <ele>149</ele>
        <time>2010-05-24T05:43:29Z</time>
      </trkpt>
      <trkpt lat="49.29883" lon="1.35478">
        <ele>149</ele>
        <time>2010-05-24T05:43:31Z</time>
      </trkpt>
      <trkpt lat="49.2989" lon="1.35468">
        <ele>149</ele>
        <time>2010-05-24T05:43:33Z</time>
      </trkpt>
      <trkpt lat="49.29897" lon="1.35457">
        <ele>149</ele>
        <time>2010-05-24T05:43:35Z</time>
      </trkpt>
      <trkpt lat="49.29904" lon="1.35445">
        <ele>149</ele>
        <time>2010-05-24T05:43:37Z</time>
      </trkpt>
      <trkpt lat="49.2991" lon="1.35432">
        <ele>149</ele>
        <time>2010-05-24T05:43:39Z</time>
      </trkpt>
      <trkpt lat="49.29915" lon="1.35418">
        <ele>149</ele>
        <time>2010-05-24T05:43:41Z</time>
      </trkpt>
      <trkpt lat="49.2992" lon="1.35406">
        <ele>149</ele>
        <time>2010-05-24T05:43:43Z</time>
      </trkpt>
      <trkpt lat="49.29927" lon="1.35387">
        <ele>149</ele>
        <time>2010-05-24T05:43:46Z</time>
      </trkpt>
      <trkpt lat="49.29935" lon="1.3537">
        <ele>149</ele>
        <time>2010-05-24T05:43:49Z</time>
      </trkpt>
      <trkpt lat="49.29939" lon="1.35357">
        <ele>156</ele>
        <time>2010-05-24T05:44:34Z</time>
      </trkpt>
      <trkpt lat="49.29948" lon="1.35347">
        <ele>156</ele>
        <time>2010-05-24T05:44:38Z</time>
      </trkpt>
      <trkpt lat="49.29952" lon="1.35331">
        <ele>156</ele>
        <time>2010-05-24T05:44:45Z</time>
      </trkpt>
      <trkpt lat="49.29948" lon="1.35317">
        <ele>156</ele>
        <time>2010-05-24T05:44:48Z</time>
      </trkpt>
      <trkpt lat="49.29941" lon="1.35301">
        <ele>156</ele>
        <time>2010-05-24T05:44:51Z</time>
      </trkpt>
      <trkpt lat="49.29935" lon="1.35289">
        <ele>156</ele>
        <time>2010-05-24T05:44:53Z</time>
      </trkpt>
      <trkpt lat="49.2993" lon="1.35277">
        <ele>156</ele>
        <time>2010-05-24T05:44:55Z</time>
      </trkpt>
      <trkpt lat="49.29924" lon="1.35264">
        <ele>156</ele>
        <time>2010-05-24T05:44:57Z</time>
      </trkpt>
      <trkpt lat="49.29918" lon="1.3525">
        <ele>156</ele>
        <time>2010-05-24T05:44:59Z</time>
      </trkpt>
      <trkpt lat="49.29914" lon="1.35234">
        <ele>156</ele>
        <time>2010-05-24T05:45:01Z</time>
      </trkpt>
      <trkpt lat="49.29911" lon="1.35216">
        <ele>156</ele>
        <time>2010-05-24T05:45:03Z</time>
      </trkpt>
      <trkpt lat="49.2991" lon="1.35198">
        <ele>156</ele>
        <time>2010-05-24T05:45:05Z</time>
      </trkpt>
      <trkpt lat="49.29911" lon="1.3518">
        <ele>156</ele>
        <time>2010-05-24T05:45:07Z</time>
      </trkpt>
      <trkpt lat="49.29912" lon="1.35163">
        <ele>156</ele>
        <time>2010-05-24T05:45:09Z</time>
      </trkpt>
      <trkpt lat="49.29915" lon="1.35146">
        <ele>156</ele>
        <time>2010-05-24T05:45:11Z</time>
      </trkpt>
      <trkpt lat="49.29917" lon="1.3513">
        <ele>156</ele>
        <time>2010-05-24T05:45:13Z</time>
      </trkpt>
      <trkpt lat="49.29919" lon="1.35113">
        <ele>156</ele>
        <time>2010-05-24T05:45:15Z</time>
      </trkpt>
      <trkpt lat="49.29921" lon="1.35096">
        <ele>156</ele>
        <time>2010-05-24T05:45:17Z</time>
      </trkpt>
      <trkpt lat="49.29924" lon="1.35079">
        <ele>156</ele>
        <time>2010-05-24T05:45:19Z</time>
      </trkpt>
      <trkpt lat="49.29927" lon="1.35061">
        <ele>150</ele>
        <time>2010-05-24T05:45:21Z</time>
      </trkpt>
      <trkpt lat="49.29928" lon="1.35043">
        <ele>150</ele>
        <time>2010-05-24T05:45:23Z</time>
      </trkpt>
      <trkpt lat="49.29932" lon="1.35029">
        <ele>150</ele>
        <time>2010-05-24T05:45:25Z</time>
      </trkpt>
      <trkpt lat="49.29941" lon="1.3502">
        <ele>150</ele>
        <time>2010-05-24T05:45:27Z</time>
      </trkpt>
      <trkpt lat="49.29952" lon="1.35015">
        <ele>150</ele>
        <time>2010-05-24T05:45:29Z</time>
      </trkpt>
      <trkpt lat="49.29963" lon="1.35008">
        <ele>150</ele>
        <time>2010-05-24T05:45:31Z</time>
      </trkpt>
      <trkpt lat="49.29974" lon="1.35">
        <ele>150</ele>
        <time>2010-05-24T05:45:33Z</time>
      </trkpt>
      <trkpt lat="49.29984" lon="1.34991">
        <ele>150</ele>
        <time>2010-05-24T05:45:35Z</time>
      </trkpt>
      <trkpt lat="49.29994" lon="1.34982">
        <ele>150</ele>
        <time>2010-05-24T05:45:37Z</time>
      </trkpt>
      <trkpt lat="49.30005" lon="1.34973">
        <ele>150</ele>
        <time>2010-05-24T05:45:39Z</time>
      </trkpt>
      <trkpt lat="49.30015" lon="1.34965">
        <ele>150</ele>
        <time>2010-05-24T05:45:41Z</time>
      </trkpt>
      <trkpt lat="49.30025" lon="1.34957">
        <ele>150</ele>
        <time>2010-05-24T05:45:43Z</time>
      </trkpt>
      <trkpt lat="49.30036" lon="1.34948">
        <ele>150</ele>
        <time>2010-05-24T05:45:45Z</time>
      </trkpt>
      <trkpt lat="49.30046" lon="1.3494">
        <ele>150</ele>
        <time>2010-05-24T05:45:47Z</time>
      </trkpt>
      <trkpt lat="49.30056" lon="1.34931">
        <ele>150</ele>
        <time>2010-05-24T05:45:49Z</time>
      </trkpt>
      <trkpt lat="49.30066" lon="1.34923">
        <ele>150</ele>
        <time>2010-05-24T05:45:51Z</time>
      </trkpt>
      <trkpt lat="49.30075" lon="1.34915">
        <ele>150</ele>
        <time>2010-05-24T05:45:53Z</time>
      </trkpt>
      <trkpt lat="49.30085" lon="1.34907">
        <ele>150</ele>
        <time>2010-05-24T05:45:55Z</time>
      </trkpt>
      <trkpt lat="49.30096" lon="1.34899">
        <ele>150</ele>
        <time>2010-05-24T05:45:57Z</time>
      </trkpt>
      <trkpt lat="49.30106" lon="1.34891">
        <ele>150</ele>
        <time>2010-05-24T05:45:59Z</time>
      </trkpt>
      <trkpt lat="49.30116" lon="1.34882">
        <ele>150</ele>
        <time>2010-05-24T05:46:01Z</time>
      </trkpt>
      <trkpt lat="49.30126" lon="1.34873">
        <ele>150</ele>
        <time>2010-05-24T05:46:03Z</time>
      </trkpt>
      <trkpt lat="49.30137" lon="1.34864">
        <ele>150</ele>
        <time>2010-05-24T05:46:05Z</time>
      </trkpt>
      <trkpt lat="49.30147" lon="1.34856">
        <ele>150</ele>
        <time>2010-05-24T05:46:07Z</time>
      </trkpt>
      <trkpt lat="49.30158" lon="1.34847">
        <ele>150</ele>
        <time>2010-05-24T05:46:09Z</time>
      </trkpt>
      <trkpt lat="49.30169" lon="1.34838">
        <ele>150</ele>
        <time>2010-05-24T05:46:11Z</time>
      </trkpt>
      <trkpt lat="49.30179" lon="1.3483">
        <ele>150</ele>
        <time>2010-05-24T05:46:13Z</time>
      </trkpt>
      <trkpt lat="49.3019" lon="1.34821">
        <ele>150</ele>
        <time>2010-05-24T05:46:15Z</time>
      </trkpt>
      <trkpt lat="49.30201" lon="1.34812">
        <ele>150</ele>
        <time>2010-05-24T05:46:17Z</time>
      </trkpt>
      <trkpt lat="49.30211" lon="1.34803">
        <ele>150</ele>
        <time>2010-05-24T05:46:19Z</time>
      </trkpt>
      <trkpt lat="49.30222" lon="1.34794">
        <ele>150</ele>
        <time>2010-05-24T05:46:21Z</time>
      </trkpt>
      <trkpt lat="49.30233" lon="1.34785">
        <ele>150</ele>
        <time>2010-05-24T05:46:23Z</time>
      </trkpt>
      <trkpt lat="49.30244" lon="1.34776">
        <ele>150</ele>
        <time>2010-05-24T05:46:25Z</time>
      </trkpt>
      <trkpt lat="49.30255" lon="1.34767">
        <ele>150</ele>
        <time>2010-05-24T05:46:27Z</time>
      </trkpt>
      <trkpt lat="49.30267" lon="1.34758">
        <ele>150</ele>
        <time>2010-05-24T05:46:29Z</time>
      </trkpt>
      <trkpt lat="49.30278" lon="1.34748">
        <ele>150</ele>
        <time>2010-05-24T05:46:31Z</time>
      </trkpt>
      <trkpt lat="49.3029" lon="1.34738">
        <ele>150</ele>
        <time>2010-05-24T05:46:33Z</time>
      </trkpt>
      <trkpt lat="49.30301" lon="1.34728">
        <ele>150</ele>
        <time>2010-05-24T05:46:35Z</time>
      </trkpt>
      <trkpt lat="49.30313" lon="1.34719">
        <ele>145</ele>
        <time>2010-05-24T05:46:37Z</time>
      </trkpt>
      <trkpt lat="49.30324" lon="1.34711">
        <ele>145</ele>
        <time>2010-05-24T05:46:39Z</time>
      </trkpt>
      <trkpt lat="49.30335" lon="1.34701">
        <ele>145</ele>
        <time>2010-05-24T05:46:41Z</time>
      </trkpt>
      <trkpt lat="49.30347" lon="1.34692">
        <ele>145</ele>
        <time>2010-05-24T05:46:43Z</time>
      </trkpt>
      <trkpt lat="49.30358" lon="1.34683">
        <ele>145</ele>
        <time>2010-05-24T05:46:45Z</time>
      </trkpt>
      <trkpt lat="49.30368" lon="1.34675">
        <ele>145</ele>
        <time>2010-05-24T05:46:47Z</time>
      </trkpt>
      <trkpt lat="49.30378" lon="1.34666">
        <ele>145</ele>
        <time>2010-05-24T05:46:49Z</time>
      </trkpt>
      <trkpt lat="49.30388" lon="1.34658">
        <ele>145</ele>
        <time>2010-05-24T05:46:51Z</time>
      </trkpt>
      <trkpt lat="49.30399" lon="1.34649">
        <ele>145</ele>
        <time>2010-05-24T05:46:53Z</time>
      </trkpt>
      <trkpt lat="49.30409" lon="1.3464">
        <ele>145</ele>
        <time>2010-05-24T05:46:55Z</time>
      </trkpt>
      <trkpt lat="49.30419" lon="1.34632">
        <ele>145</ele>
        <time>2010-05-24T05:46:57Z</time>
      </trkpt>
      <trkpt lat="49.30429" lon="1.34624">
        <ele>145</ele>
        <time>2010-05-24T05:46:59Z</time>
      </trkpt>
      <trkpt lat="49.30439" lon="1.34617">
        <ele>145</ele>
        <time>2010-05-24T05:47:01Z</time>
      </trkpt>
      <trkpt lat="49.30448" lon="1.3461">
        <ele>145</ele>
        <time>2010-05-24T05:47:03Z</time>
      </trkpt>
      <trkpt lat="49.30456" lon="1.34602">
        <ele>145</ele>
        <time>2010-05-24T05:47:05Z</time>
      </trkpt>
      <trkpt lat="49.30465" lon="1.34595">
        <ele>145</ele>
        <time>2010-05-24T05:47:07Z</time>
      </trkpt>
      <trkpt lat="49.30473" lon="1.34588">
        <ele>145</ele>
        <time>2010-05-24T05:47:09Z</time>
      </trkpt>
      <trkpt lat="49.30485" lon="1.34577">
        <ele>145</ele>
        <time>2010-05-24T05:47:12Z</time>
      </trkpt>
      <trkpt lat="49.30494" lon="1.34569">
        <ele>145</ele>
        <time>2010-05-24T05:47:14Z</time>
      </trkpt>
      <trkpt lat="49.30503" lon="1.34561">
        <ele>145</ele>
        <time>2010-05-24T05:47:16Z</time>
      </trkpt>
      <trkpt lat="49.30512" lon="1.34554">
        <ele>145</ele>
        <time>2010-05-24T05:47:18Z</time>
      </trkpt>
      <trkpt lat="49.30521" lon="1.34546">
        <ele>145</ele>
        <time>2010-05-24T05:47:20Z</time>
      </trkpt>
      <trkpt lat="49.3053" lon="1.34539">
        <ele>145</ele>
        <time>2010-05-24T05:47:22Z</time>
      </trkpt>
      <trkpt lat="49.30539" lon="1.34531">
        <ele>145</ele>
        <time>2010-05-24T05:47:24Z</time>
      </trkpt>
      <trkpt lat="49.30548" lon="1.34524">
        <ele>145</ele>
        <time>2010-05-24T05:47:26Z</time>
      </trkpt>
      <trkpt lat="49.30557" lon="1.34516">
        <ele>145</ele>
        <time>2010-05-24T05:47:28Z</time>
      </trkpt>
      <trkpt lat="49.30566" lon="1.34508">
        <ele>145</ele>
        <time>2010-05-24T05:47:30Z</time>
      </trkpt>
      <trkpt lat="49.30575" lon="1.34501">
        <ele>145</ele>
        <time>2010-05-24T05:47:32Z</time>
      </trkpt>
      <trkpt lat="49.30584" lon="1.34493">
        <ele>145</ele>
        <time>2010-05-24T05:47:34Z</time>
      </trkpt>
      <trkpt lat="49.30593" lon="1.34485">
        <ele>145</ele>
        <time>2010-05-24T05:47:36Z</time>
      </trkpt>
      <trkpt lat="49.30602" lon="1.34479">
        <ele>145</ele>
        <time>2010-05-24T05:47:38Z</time>
      </trkpt>
      <trkpt lat="49.3061" lon="1.34472">
        <ele>145</ele>
        <time>2010-05-24T05:47:40Z</time>
      </trkpt>
      <trkpt lat="49.30617" lon="1.34456">
        <ele>140</ele>
        <time>2010-05-24T05:47:43Z</time>
      </trkpt>
      <trkpt lat="49.30614" lon="1.34443">
        <ele>140</ele>
        <time>2010-05-24T05:47:45Z</time>
      </trkpt>
      <trkpt lat="49.30607" lon="1.34425">
        <ele>140</ele>
        <time>2010-05-24T05:47:48Z</time>
      </trkpt>
      <trkpt lat="49.306" lon="1.34407">
        <ele>140</ele>
        <time>2010-05-24T05:47:51Z</time>
      </trkpt>
      <trkpt lat="49.30596" lon="1.34393">
        <ele>140</ele>
        <time>2010-05-24T05:47:53Z</time>
      </trkpt>
      <trkpt lat="49.30592" lon="1.3438">
        <ele>140</ele>
        <time>2010-05-24T05:47:55Z</time>
      </trkpt>
      <trkpt lat="49.30587" lon="1.34365">
        <ele>140</ele>
        <time>2010-05-24T05:47:57Z</time>
      </trkpt>
      <trkpt lat="49.30583" lon="1.34348">
        <ele>140</ele>
        <time>2010-05-24T05:47:59Z</time>
      </trkpt>
      <trkpt lat="49.30581" lon="1.34331">
        <ele>140</ele>
        <time>2010-05-24T05:48:01Z</time>
      </trkpt>
      <trkpt lat="49.30582" lon="1.34314">
        <ele>140</ele>
        <time>2010-05-24T05:48:03Z</time>
      </trkpt>
      <trkpt lat="49.30582" lon="1.343">
        <ele>140</ele>
        <time>2010-05-24T05:48:05Z</time>
      </trkpt>
      <trkpt lat="49.30584" lon="1.34279">
        <ele>140</ele>
        <time>2010-05-24T05:48:08Z</time>
      </trkpt>
      <trkpt lat="49.30586" lon="1.3426">
        <ele>140</ele>
        <time>2010-05-24T05:48:11Z</time>
      </trkpt>
      <trkpt lat="49.30586" lon="1.34243">
        <ele>140</ele>
        <time>2010-05-24T05:48:14Z</time>
      </trkpt>
      <trkpt lat="49.30587" lon="1.34226">
        <ele>140</ele>
        <time>2010-05-24T05:48:17Z</time>
      </trkpt>
      <trkpt lat="49.30587" lon="1.34209">
        <ele>140</ele>
        <time>2010-05-24T05:48:20Z</time>
      </trkpt>
      <trkpt lat="49.30587" lon="1.34193">
        <ele>140</ele>
        <time>2010-05-24T05:48:23Z</time>
      </trkpt>
      <trkpt lat="49.30587" lon="1.34176">
        <ele>140</ele>
        <time>2010-05-24T05:48:26Z</time>
      </trkpt>
      <trkpt lat="49.30586" lon="1.34159">
        <ele>140</ele>
        <time>2010-05-24T05:48:29Z</time>
      </trkpt>
      <trkpt lat="49.30585" lon="1.34142">
        <ele>140</ele>
        <time>2010-05-24T05:48:32Z</time>
      </trkpt>
      <trkpt lat="49.30584" lon="1.34125">
        <ele>140</ele>
        <time>2010-05-24T05:48:35Z</time>
      </trkpt>
      <trkpt lat="49.30583" lon="1.34109">
        <ele>140</ele>
        <time>2010-05-24T05:48:38Z</time>
      </trkpt>
      <trkpt lat="49.30582" lon="1.34093">
        <ele>140</ele>
        <time>2010-05-24T05:48:41Z</time>
      </trkpt>
      <trkpt lat="49.30581" lon="1.34076">
        <ele>140</ele>
        <time>2010-05-24T05:48:44Z</time>
      </trkpt>
      <trkpt lat="49.3058" lon="1.34057">
        <ele>140</ele>
        <time>2010-05-24T05:48:47Z</time>
      </trkpt>
      <trkpt lat="49.30578" lon="1.34039">
        <ele>140</ele>
        <time>2010-05-24T05:48:50Z</time>
      </trkpt>
      <trkpt lat="49.30577" lon="1.34019">
        <ele>140</ele>
        <time>2010-05-24T05:48:53Z</time>
      </trkpt>
      <trkpt lat="49.30576" lon="1.33999">
        <ele>140</ele>
        <time>2010-05-24T05:48:56Z</time>
      </trkpt>
      <trkpt lat="49.30575" lon="1.3398">
        <ele>140</ele>
        <time>2010-05-24T05:48:59Z</time>
      </trkpt>
      <trkpt lat="49.30575" lon="1.3396">
        <ele>140</ele>
        <time>2010-05-24T05:49:02Z</time>
      </trkpt>
      <trkpt lat="49.30575" lon="1.33942">
        <ele>140</ele>
        <time>2010-05-24T05:49:05Z</time>
      </trkpt>
      <trkpt lat="49.30575" lon="1.33922">
        <ele>140</ele>
        <time>2010-05-24T05:49:08Z</time>
      </trkpt>
      <trkpt lat="49.30576" lon="1.33903">
        <ele>140</ele>
        <time>2010-05-24T05:49:11Z</time>
      </trkpt>
      <trkpt lat="49.30577" lon="1.33885">
        <ele>140</ele>
        <time>2010-05-24T05:49:14Z</time>
      </trkpt>
      <trkpt lat="49.30579" lon="1.33867">
        <ele>140</ele>
        <time>2010-05-24T05:49:17Z</time>
      </trkpt>
      <trkpt lat="49.3058" lon="1.33847">
        <ele>140</ele>
        <time>2010-05-24T05:49:20Z</time>
      </trkpt>
      <trkpt lat="49.30581" lon="1.33827">
        <ele>140</ele>
        <time>2010-05-24T05:49:23Z</time>
      </trkpt>
      <trkpt lat="49.30582" lon="1.33807">
        <ele>140</ele>
        <time>2010-05-24T05:49:26Z</time>
      </trkpt>
      <trkpt lat="49.30581" lon="1.33788">
        <ele>140</ele>
        <time>2010-05-24T05:49:29Z</time>
      </trkpt>
      <trkpt lat="49.30581" lon="1.33769">
        <ele>140</ele>
        <time>2010-05-24T05:49:32Z</time>
      </trkpt>
      <trkpt lat="49.3058" lon="1.3375">
        <ele>140</ele>
        <time>2010-05-24T05:49:35Z</time>
      </trkpt>
      <trkpt lat="49.3058" lon="1.3373">
        <ele>140</ele>
        <time>2010-05-24T05:49:38Z</time>
      </trkpt>
      <trkpt lat="49.3058" lon="1.33711">
        <ele>140</ele>
        <time>2010-05-24T05:49:41Z</time>
      </trkpt>
      <trkpt lat="49.3058" lon="1.33692">
        <ele>140</ele>
        <time>2010-05-24T05:49:44Z</time>
      </trkpt>
      <trkpt lat="49.3058" lon="1.33672">
        <ele>140</ele>
        <time>2010-05-24T05:49:47Z</time>
      </trkpt>
      <trkpt lat="49.30579" lon="1.33652">
        <ele>140</ele>
        <time>2010-05-24T05:49:50Z</time>
      </trkpt>
      <trkpt lat="49.30579" lon="1.33634">
        <ele>140</ele>
        <time>2010-05-24T05:49:53Z</time>
      </trkpt>
      <trkpt lat="49.30577" lon="1.33615">
        <ele>140</ele>
        <time>2010-05-24T05:49:56Z</time>
      </trkpt>
      <trkpt lat="49.30574" lon="1.33597">
        <ele>146</ele>
        <time>2010-05-24T05:49:59Z</time>
      </trkpt>
      <trkpt lat="49.3057" lon="1.33582">
        <ele>146</ele>
        <time>2010-05-24T05:50:02Z</time>
      </trkpt>
      <trkpt lat="49.30567" lon="1.33567">
        <ele>146</ele>
        <time>2010-05-24T05:50:05Z</time>
      </trkpt>
      <trkpt lat="49.30565" lon="1.3355">
        <ele>146</ele>
        <time>2010-05-24T05:50:08Z</time>
      </trkpt>
      <trkpt lat="49.30562" lon="1.33535">
        <ele>146</ele>
        <time>2010-05-24T05:50:11Z</time>
      </trkpt>
      <trkpt lat="49.3056" lon="1.33518">
        <ele>146</ele>
        <time>2010-05-24T05:50:14Z</time>
      </trkpt>
      <trkpt lat="49.30559" lon="1.33502">
        <ele>146</ele>
        <time>2010-05-24T05:50:17Z</time>
      </trkpt>
      <trkpt lat="49.3056" lon="1.33487">
        <ele>146</ele>
        <time>2010-05-24T05:50:20Z</time>
      </trkpt>
      <trkpt lat="49.30564" lon="1.33473">
        <ele>146</ele>
        <time>2010-05-24T05:50:23Z</time>
      </trkpt>
      <trkpt lat="49.3057" lon="1.33459">
        <ele>146</ele>
        <time>2010-05-24T05:50:26Z</time>
      </trkpt>
      <trkpt lat="49.30576" lon="1.33444">
        <ele>146</ele>
        <time>2010-05-24T05:50:29Z</time>
      </trkpt>
      <trkpt lat="49.30584" lon="1.33428">
        <ele>146</ele>
        <time>2010-05-24T05:50:32Z</time>
      </trkpt>
      <trkpt lat="49.30591" lon="1.3341">
        <ele>146</ele>
        <time>2010-05-24T05:50:35Z</time>
      </trkpt>
      <trkpt lat="49.30598" lon="1.33393">
        <ele>146</ele>
        <time>2010-05-24T05:50:38Z</time>
      </trkpt>
      <trkpt lat="49.30603" lon="1.33379">
        <ele>146</ele>
        <time>2010-05-24T05:50:40Z</time>
      </trkpt>
      <trkpt lat="49.30608" lon="1.33367">
        <ele>146</ele>
        <time>2010-05-24T05:50:42Z</time>
      </trkpt>
      <trkpt lat="49.30614" lon="1.33353">
        <ele>146</ele>
        <time>2010-05-24T05:50:44Z</time>
      </trkpt>
      <trkpt lat="49.3062" lon="1.33339">
        <ele>146</ele>
        <time>2010-05-24T05:50:46Z</time>
      </trkpt>
      <trkpt lat="49.30626" lon="1.33324">
        <ele>146</ele>
        <time>2010-05-24T05:50:48Z</time>
      </trkpt>
      <trkpt lat="49.30631" lon="1.3331">
        <ele>146</ele>
        <time>2010-05-24T05:50:50Z</time>
      </trkpt>
      <trkpt lat="49.30637" lon="1.33296">
        <ele>146</ele>
        <time>2010-05-24T05:50:52Z</time>
      </trkpt>
      <trkpt lat="49.30642" lon="1.33282">
        <ele>146</ele>
        <time>2010-05-24T05:50:54Z</time>
      </trkpt>
      <trkpt lat="49.30648" lon="1.33269">
        <ele>146</ele>
        <time>2010-05-24T05:50:56Z</time>
      </trkpt>
      <trkpt lat="49.30653" lon="1.33255">
        <ele>146</ele>
        <time>2010-05-24T05:50:58Z</time>
      </trkpt>
      <trkpt lat="49.30659" lon="1.33242">
        <ele>146</ele>
        <time>2010-05-24T05:51:00Z</time>
      </trkpt>
      <trkpt lat="49.30664" lon="1.33229">
        <ele>146</ele>
        <time>2010-05-24T05:51:02Z</time>
      </trkpt>
      <trkpt lat="49.30668" lon="1.33217">
        <ele>146</ele>
        <time>2010-05-24T05:51:04Z</time>
      </trkpt>
      <trkpt lat="49.30673" lon="1.33203">
        <ele>146</ele>
        <time>2010-05-24T05:51:06Z</time>
      </trkpt>
      <trkpt lat="49.30679" lon="1.33188">
        <ele>146</ele>
        <time>2010-05-24T05:51:09Z</time>
      </trkpt>
      <trkpt lat="49.30686" lon="1.3317">
        <ele>146</ele>
        <time>2010-05-24T05:51:12Z</time>
      </trkpt>
      <trkpt lat="49.30691" lon="1.33152">
        <ele>146</ele>
        <time>2010-05-24T05:51:15Z</time>
      </trkpt>
      <trkpt lat="49.30696" lon="1.33134">
        <ele>146</ele>
        <time>2010-05-24T05:51:18Z</time>
      </trkpt>
      <trkpt lat="49.307" lon="1.3312">
        <ele>146</ele>
        <time>2010-05-24T05:51:20Z</time>
      </trkpt>
      <trkpt lat="49.30706" lon="1.33102">
        <ele>146</ele>
        <time>2010-05-24T05:51:23Z</time>
      </trkpt>
      <trkpt lat="49.30712" lon="1.33084">
        <ele>146</ele>
        <time>2010-05-24T05:51:26Z</time>
      </trkpt>
      <trkpt lat="49.30715" lon="1.3307">
        <ele>146</ele>
        <time>2010-05-24T05:51:28Z</time>
      </trkpt>
      <trkpt lat="49.30721" lon="1.33051">
        <ele>146</ele>
        <time>2010-05-24T05:51:31Z</time>
      </trkpt>
      <trkpt lat="49.30725" lon="1.33038">
        <ele>146</ele>
        <time>2010-05-24T05:51:33Z</time>
      </trkpt>
      <trkpt lat="49.30728" lon="1.33024">
        <ele>146</ele>
        <time>2010-05-24T05:51:35Z</time>
      </trkpt>
      <trkpt lat="49.30731" lon="1.3301">
        <ele>146</ele>
        <time>2010-05-24T05:51:37Z</time>
      </trkpt>
      <trkpt lat="49.30734" lon="1.32997">
        <ele>146</ele>
        <time>2010-05-24T05:51:39Z</time>
      </trkpt>
      <trkpt lat="49.30737" lon="1.32983">
        <ele>146</ele>
        <time>2010-05-24T05:51:41Z</time>
      </trkpt>
      <trkpt lat="49.3074" lon="1.3297">
        <ele>146</ele>
        <time>2010-05-24T05:51:43Z</time>
      </trkpt>
      <trkpt lat="49.30743" lon="1.32956">
        <ele>146</ele>
        <time>2010-05-24T05:51:45Z</time>
      </trkpt>
      <trkpt lat="49.30745" lon="1.32943">
        <ele>146</ele>
        <time>2010-05-24T05:51:47Z</time>
      </trkpt>
      <trkpt lat="49.3075" lon="1.32924">
        <ele>146</ele>
        <time>2010-05-24T05:51:50Z</time>
      </trkpt>
      <trkpt lat="49.30753" lon="1.3291">
        <ele>146</ele>
        <time>2010-05-24T05:51:52Z</time>
      </trkpt>
      <trkpt lat="49.30756" lon="1.32897">
        <ele>146</ele>
        <time>2010-05-24T05:51:54Z</time>
      </trkpt>
      <trkpt lat="49.30759" lon="1.32883">
        <ele>146</ele>
        <time>2010-05-24T05:51:56Z</time>
      </trkpt>
      <trkpt lat="49.30764" lon="1.32864">
        <ele>146</ele>
        <time>2010-05-24T05:51:59Z</time>
      </trkpt>
      <trkpt lat="49.30767" lon="1.32851">
        <ele>146</ele>
        <time>2010-05-24T05:52:01Z</time>
      </trkpt>
      <trkpt lat="49.30771" lon="1.32833">
        <ele>146</ele>
        <time>2010-05-24T05:52:04Z</time>
      </trkpt>
      <trkpt lat="49.30774" lon="1.3282">
        <ele>146</ele>
        <time>2010-05-24T05:52:06Z</time>
      </trkpt>
      <trkpt lat="49.30777" lon="1.32805">
        <ele>146</ele>
        <time>2010-05-24T05:52:08Z</time>
      </trkpt>
      <trkpt lat="49.30781" lon="1.32791">
        <ele>146</ele>
        <time>2010-05-24T05:52:10Z</time>
      </trkpt>
      <trkpt lat="49.30784" lon="1.32776">
        <ele>146</ele>
        <time>2010-05-24T05:52:12Z</time>
      </trkpt>
      <trkpt lat="49.30788" lon="1.32762">
        <ele>146</ele>
        <time>2010-05-24T05:52:14Z</time>
      </trkpt>
      <trkpt lat="49.30791" lon="1.32749">
        <ele>146</ele>
        <time>2010-05-24T05:52:16Z</time>
      </trkpt>
      <trkpt lat="49.30795" lon="1.32735">
        <ele>146</ele>
        <time>2010-05-24T05:52:18Z</time>
      </trkpt>
      <trkpt lat="49.30799" lon="1.32718">
        <ele>146</ele>
        <time>2010-05-24T05:52:21Z</time>
      </trkpt>
      <trkpt lat="49.30804" lon="1.32705">
        <ele>146</ele>
        <time>2010-05-24T05:52:23Z</time>
      </trkpt>
      <trkpt lat="49.30808" lon="1.32687">
        <ele>146</ele>
        <time>2010-05-24T05:52:26Z</time>
      </trkpt>
      <trkpt lat="49.30811" lon="1.32673">
        <ele>146</ele>
        <time>2010-05-24T05:52:28Z</time>
      </trkpt>
      <trkpt lat="49.30815" lon="1.3266">
        <ele>146</ele>
        <time>2010-05-24T05:52:30Z</time>
      </trkpt>
      <trkpt lat="49.30819" lon="1.32647">
        <ele>146</ele>
        <time>2010-05-24T05:52:32Z</time>
      </trkpt>
      <trkpt lat="49.30823" lon="1.32634">
        <ele>146</ele>
        <time>2010-05-24T05:52:34Z</time>
      </trkpt>
      <trkpt lat="49.30827" lon="1.3262">
        <ele>146</ele>
        <time>2010-05-24T05:52:36Z</time>
      </trkpt>
      <trkpt lat="49.30831" lon="1.32607">
        <ele>146</ele>
        <time>2010-05-24T05:52:38Z</time>
      </trkpt>
      <trkpt lat="49.30835" lon="1.32594">
        <ele>146</ele>
        <time>2010-05-24T05:52:40Z</time>
      </trkpt>
      <trkpt lat="49.30839" lon="1.32581">
        <ele>146</ele>
        <time>2010-05-24T05:52:42Z</time>
      </trkpt>
      <trkpt lat="49.30844" lon="1.32567">
        <ele>146</ele>
        <time>2010-05-24T05:52:44Z</time>
      </trkpt>
      <trkpt lat="49.30848" lon="1.32554">
        <ele>146</ele>
        <time>2010-05-24T05:52:46Z</time>
      </trkpt>
      <trkpt lat="49.30852" lon="1.3254">
        <ele>146</ele>
        <time>2010-05-24T05:52:48Z</time>
      </trkpt>
      <trkpt lat="49.30856" lon="1.32527">
        <ele>146</ele>
        <time>2010-05-24T05:52:50Z</time>
      </trkpt>
      <trkpt lat="49.3086" lon="1.32514">
        <ele>146</ele>
        <time>2010-05-24T05:52:52Z</time>
      </trkpt>
      <trkpt lat="49.30866" lon="1.32495">
        <ele>146</ele>
        <time>2010-05-24T05:52:55Z</time>
      </trkpt>
      <trkpt lat="49.30871" lon="1.32483">
        <ele>146</ele>
        <time>2010-05-24T05:52:57Z</time>
      </trkpt>
      <trkpt lat="49.30876" lon="1.32465">
        <ele>146</ele>
        <time>2010-05-24T05:53:00Z</time>
      </trkpt>
      <trkpt lat="49.30881" lon="1.32452">
        <ele>146</ele>
        <time>2010-05-24T05:53:02Z</time>
      </trkpt>
      <trkpt lat="49.30888" lon="1.32434">
        <ele>146</ele>
        <time>2010-05-24T05:53:05Z</time>
      </trkpt>
      <trkpt lat="49.30896" lon="1.32417">
        <ele>146</ele>
        <time>2010-05-24T05:53:08Z</time>
      </trkpt>
      <trkpt lat="49.30901" lon="1.32405">
        <ele>146</ele>
        <time>2010-05-24T05:53:10Z</time>
      </trkpt>
      <trkpt lat="49.30907" lon="1.32393">
        <ele>146</ele>
        <time>2010-05-24T05:53:12Z</time>
      </trkpt>
      <trkpt lat="49.30913" lon="1.3238">
        <ele>146</ele>
        <time>2010-05-24T05:53:14Z</time>
      </trkpt>
      <trkpt lat="49.30919" lon="1.32367">
        <ele>146</ele>
        <time>2010-05-24T05:53:16Z</time>
      </trkpt>
      <trkpt lat="49.30926" lon="1.32355">
        <ele>146</ele>
        <time>2010-05-24T05:53:18Z</time>
      </trkpt>
      <trkpt lat="49.30932" lon="1.32343">
        <ele>146</ele>
        <time>2010-05-24T05:53:20Z</time>
      </trkpt>
      <trkpt lat="49.30939" lon="1.32329">
        <ele>146</ele>
        <time>2010-05-24T05:53:22Z</time>
      </trkpt>
      <trkpt lat="49.30945" lon="1.32316">
        <ele>146</ele>
        <time>2010-05-24T05:53:24Z</time>
      </trkpt>
      <trkpt lat="49.3095" lon="1.32302">
        <ele>146</ele>
        <time>2010-05-24T05:53:26Z</time>
      </trkpt>
      <trkpt lat="49.30956" lon="1.32288">
        <ele>146</ele>
        <time>2010-05-24T05:53:28Z</time>
      </trkpt>
      <trkpt lat="49.30962" lon="1.32272">
        <ele>146</ele>
        <time>2010-05-24T05:53:30Z</time>
      </trkpt>
      <trkpt lat="49.30967" lon="1.32256">
        <ele>146</ele>
        <time>2010-05-24T05:53:32Z</time>
      </trkpt>
      <trkpt lat="49.30971" lon="1.32242">
        <ele>146</ele>
        <time>2010-05-24T05:53:34Z</time>
      </trkpt>
      <trkpt lat="49.30975" lon="1.32228">
        <ele>146</ele>
        <time>2010-05-24T05:53:36Z</time>
      </trkpt>
      <trkpt lat="49.30979" lon="1.32213">
        <ele>146</ele>
        <time>2010-05-24T05:53:38Z</time>
      </trkpt>
      <trkpt lat="49.30982" lon="1.322">
        <ele>146</ele>
        <time>2010-05-24T05:53:40Z</time>
      </trkpt>
      <trkpt lat="49.30986" lon="1.32187">
        <ele>146</ele>
        <time>2010-05-24T05:53:42Z</time>
      </trkpt>
      <trkpt lat="49.30993" lon="1.3217">
        <ele>146</ele>
        <time>2010-05-24T05:53:45Z</time>
      </trkpt>
      <trkpt lat="49.31" lon="1.32152">
        <ele>146</ele>
        <time>2010-05-24T05:53:48Z</time>
      </trkpt>
      <trkpt lat="49.31006" lon="1.32134">
        <ele>146</ele>
        <time>2010-05-24T05:53:51Z</time>
      </trkpt>
      <trkpt lat="49.31009" lon="1.3212">
        <ele>146</ele>
        <time>2010-05-24T05:53:53Z</time>
      </trkpt>
      <trkpt lat="49.31011" lon="1.32106">
        <ele>146</ele>
        <time>2010-05-24T05:53:55Z</time>
      </trkpt>
      <trkpt lat="49.31013" lon="1.32086">
        <ele>146</ele>
        <time>2010-05-24T05:53:58Z</time>
      </trkpt>
      <trkpt lat="49.31016" lon="1.3207">
        <ele>146</ele>
        <time>2010-05-24T05:54:00Z</time>
      </trkpt>
      <trkpt lat="49.31018" lon="1.32056">
        <ele>146</ele>
        <time>2010-05-24T05:54:02Z</time>
      </trkpt>
      <trkpt lat="49.31021" lon="1.32037">
        <ele>140</ele>
        <time>2010-05-24T05:54:05Z</time>
      </trkpt>
      <trkpt lat="49.31021" lon="1.32021">
        <ele>140</ele>
        <time>2010-05-24T05:54:07Z</time>
      </trkpt>
      <trkpt lat="49.31023" lon="1.32006">
        <ele>140</ele>
        <time>2010-05-24T05:54:09Z</time>
      </trkpt>
      <trkpt lat="49.31024" lon="1.3199">
        <ele>140</ele>
        <time>2010-05-24T05:54:11Z</time>
      </trkpt>
      <trkpt lat="49.31026" lon="1.31973">
        <ele>140</ele>
        <time>2010-05-24T05:54:13Z</time>
      </trkpt>
      <trkpt lat="49.31028" lon="1.31959">
        <ele>140</ele>
        <time>2010-05-24T05:54:15Z</time>
      </trkpt>
      <trkpt lat="49.31027" lon="1.31939">
        <ele>140</ele>
        <time>2010-05-24T05:54:18Z</time>
      </trkpt>
      <trkpt lat="49.31021" lon="1.31928">
        <ele>140</ele>
        <time>2010-05-24T05:54:20Z</time>
      </trkpt>
      <trkpt lat="49.31014" lon="1.3192">
        <ele>140</ele>
        <time>2010-05-24T05:54:22Z</time>
      </trkpt>
      <trkpt lat="49.31002" lon="1.3191">
        <ele>140</ele>
        <time>2010-05-24T05:54:25Z</time>
      </trkpt>
      <trkpt lat="49.30994" lon="1.31904">
        <ele>140</ele>
        <time>2010-05-24T05:54:27Z</time>
      </trkpt>
      <trkpt lat="49.30985" lon="1.31897">
        <ele>140</ele>
        <time>2010-05-24T05:54:29Z</time>
      </trkpt>
      <trkpt lat="49.30977" lon="1.31889">
        <ele>140</ele>
        <time>2010-05-24T05:54:31Z</time>
      </trkpt>
      <trkpt lat="49.30965" lon="1.31877">
        <ele>140</ele>
        <time>2010-05-24T05:54:34Z</time>
      </trkpt>
      <trkpt lat="49.30953" lon="1.31866">
        <ele>140</ele>
        <time>2010-05-24T05:54:37Z</time>
      </trkpt>
      <trkpt lat="49.30941" lon="1.31856">
        <ele>145</ele>
        <time>2010-05-24T05:54:40Z</time>
      </trkpt>
      <trkpt lat="49.30933" lon="1.31848">
        <ele>145</ele>
        <time>2010-05-24T05:54:42Z</time>
      </trkpt>
      <trkpt lat="49.30924" lon="1.3184">
        <ele>145</ele>
        <time>2010-05-24T05:54:44Z</time>
      </trkpt>
      <trkpt lat="49.30915" lon="1.31833">
        <ele>145</ele>
        <time>2010-05-24T05:54:46Z</time>
      </trkpt>
      <trkpt lat="49.30907" lon="1.31824">
        <ele>145</ele>
        <time>2010-05-24T05:54:48Z</time>
      </trkpt>
      <trkpt lat="49.30898" lon="1.31816">
        <ele>145</ele>
        <time>2010-05-24T05:54:50Z</time>
      </trkpt>
      <trkpt lat="49.30888" lon="1.31808">
        <ele>145</ele>
        <time>2010-05-24T05:54:52Z</time>
      </trkpt>
      <trkpt lat="49.30879" lon="1.318">
        <ele>145</ele>
        <time>2010-05-24T05:54:54Z</time>
      </trkpt>
      <trkpt lat="49.3087" lon="1.31792">
        <ele>145</ele>
        <time>2010-05-24T05:54:56Z</time>
      </trkpt>
      <trkpt lat="49.3086" lon="1.31785">
        <ele>145</ele>
        <time>2010-05-24T05:54:58Z</time>
      </trkpt>
      <trkpt lat="49.30851" lon="1.31778">
        <ele>145</ele>
        <time>2010-05-24T05:55:00Z</time>
      </trkpt>
      <trkpt lat="49.30845" lon="1.31762">
        <ele>145</ele>
        <time>2010-05-24T05:55:03Z</time>
      </trkpt>
      <trkpt lat="49.30846" lon="1.31746">
        <ele>145</ele>
        <time>2010-05-24T05:55:06Z</time>
      </trkpt>
      <trkpt lat="49.30843" lon="1.31731">
        <ele>145</ele>
        <time>2010-05-24T05:55:09Z</time>
      </trkpt>
      <trkpt lat="49.30835" lon="1.31715">
        <ele>145</ele>
        <time>2010-05-24T05:55:12Z</time>
      </trkpt>
      <trkpt lat="49.30829" lon="1.31703">
        <ele>145</ele>
        <time>2010-05-24T05:55:14Z</time>
      </trkpt>
      <trkpt lat="49.30824" lon="1.31691">
        <ele>150</ele>
        <time>2010-05-24T05:55:16Z</time>
      </trkpt>
      <trkpt lat="49.30818" lon="1.31679">
        <ele>150</ele>
        <time>2010-05-24T05:55:18Z</time>
      </trkpt>
      <trkpt lat="49.30811" lon="1.31666">
        <ele>150</ele>
        <time>2010-05-24T05:55:20Z</time>
      </trkpt>
      <trkpt lat="49.30805" lon="1.31653">
        <ele>150</ele>
        <time>2010-05-24T05:55:22Z</time>
      </trkpt>
      <trkpt lat="49.30798" lon="1.31639">
        <ele>150</ele>
        <time>2010-05-24T05:55:24Z</time>
      </trkpt>
      <trkpt lat="49.30792" lon="1.31626">
        <ele>150</ele>
        <time>2010-05-24T05:55:26Z</time>
      </trkpt>
      <trkpt lat="49.30786" lon="1.31612">
        <ele>150</ele>
        <time>2010-05-24T05:55:28Z</time>
      </trkpt>
      <trkpt lat="49.3078" lon="1.316">
        <ele>150</ele>
        <time>2010-05-24T05:55:30Z</time>
      </trkpt>
      <trkpt lat="49.30773" lon="1.31587">
        <ele>150</ele>
        <time>2010-05-24T05:55:32Z</time>
      </trkpt>
      <trkpt lat="49.30767" lon="1.31574">
        <ele>150</ele>
        <time>2010-05-24T05:55:34Z</time>
      </trkpt>
      <trkpt lat="49.30761" lon="1.31564">
        <ele>150</ele>
        <time>2010-05-24T05:55:36Z</time>
      </trkpt>
      <trkpt lat="49.30754" lon="1.31548">
        <ele>150</ele>
        <time>2010-05-24T05:55:39Z</time>
      </trkpt>
      <trkpt lat="49.3075" lon="1.31534">
        <ele>145</ele>
        <time>2010-05-24T05:55:42Z</time>
      </trkpt>
      <trkpt lat="49.30755" lon="1.31521">
        <ele>145</ele>
        <time>2010-05-24T05:55:45Z</time>
      </trkpt>
      <trkpt lat="49.30758" lon="1.31505">
        <ele>145</ele>
        <time>2010-05-24T05:55:48Z</time>
      </trkpt>
      <trkpt lat="49.30757" lon="1.31485">
        <ele>145</ele>
        <time>2010-05-24T05:55:51Z</time>
      </trkpt>
      <trkpt lat="49.30754" lon="1.31471">
        <ele>145</ele>
        <time>2010-05-24T05:55:53Z</time>
      </trkpt>
      <trkpt lat="49.30752" lon="1.31457">
        <ele>145</ele>
        <time>2010-05-24T05:55:55Z</time>
      </trkpt>
      <trkpt lat="49.30751" lon="1.31442">
        <ele>145</ele>
        <time>2010-05-24T05:55:57Z</time>
      </trkpt>
      <trkpt lat="49.30748" lon="1.31427">
        <ele>139</ele>
        <time>2010-05-24T05:55:59Z</time>
      </trkpt>
      <trkpt lat="49.30747" lon="1.3141">
        <ele>139</ele>
        <time>2010-05-24T05:56:01Z</time>
      </trkpt>
      <trkpt lat="49.30746" lon="1.31396">
        <ele>139</ele>
        <time>2010-05-24T05:56:03Z</time>
      </trkpt>
      <trkpt lat="49.30745" lon="1.3138">
        <ele>139</ele>
        <time>2010-05-24T05:56:05Z</time>
      </trkpt>
      <trkpt lat="49.30744" lon="1.31359">
        <ele>139</ele>
        <time>2010-05-24T05:56:08Z</time>
      </trkpt>
      <trkpt lat="49.30744" lon="1.31345">
        <ele>139</ele>
        <time>2010-05-24T05:56:10Z</time>
      </trkpt>
      <trkpt lat="49.30744" lon="1.3133">
        <ele>134</ele>
        <time>2010-05-24T05:56:12Z</time>
      </trkpt>
      <trkpt lat="49.30744" lon="1.31315">
        <ele>134</ele>
        <time>2010-05-24T05:56:15Z</time>
      </trkpt>
      <trkpt lat="49.30744" lon="1.31297">
        <ele>134</ele>
        <time>2010-05-24T05:56:24Z</time>
      </trkpt>
      <trkpt lat="49.30735" lon="1.31291">
        <ele>134</ele>
        <time>2010-05-24T05:56:28Z</time>
      </trkpt>
      <trkpt lat="49.30721" lon="1.31292">
        <ele>134</ele>
        <time>2010-05-24T05:56:31Z</time>
      </trkpt>
      <trkpt lat="49.30707" lon="1.31294">
        <ele>134</ele>
        <time>2010-05-24T05:56:34Z</time>
      </trkpt>
      <trkpt lat="49.30693" lon="1.31295">
        <ele>126</ele>
        <time>2010-05-24T05:56:38Z</time>
      </trkpt>
      <trkpt lat="49.30685" lon="1.31288">
        <ele>126</ele>
        <time>2010-05-24T05:56:42Z</time>
      </trkpt>
      <trkpt lat="49.30687" lon="1.31274">
        <ele>119</ele>
        <time>2010-05-24T05:56:45Z</time>
      </trkpt>
      <trkpt lat="49.30704" lon="1.31265">
        <ele>119</ele>
        <time>2010-05-24T05:56:51Z</time>
      </trkpt>
      <trkpt lat="49.30713" lon="1.31257">
        <ele>119</ele>
        <time>2010-05-24T05:56:54Z</time>
      </trkpt>
      <trkpt lat="49.30721" lon="1.3125">
        <ele>119</ele>
        <time>2010-05-24T05:56:56Z</time>
      </trkpt>
      <trkpt lat="49.30733" lon="1.31246">
        <ele>119</ele>
        <time>2010-05-24T05:56:59Z</time>
      </trkpt>
      <trkpt lat="49.30742" lon="1.31239">
        <ele>119</ele>
        <time>2010-05-24T05:57:01Z</time>
      </trkpt>
      <trkpt lat="49.30752" lon="1.31228">
        <ele>119</ele>
        <time>2010-05-24T05:57:04Z</time>
      </trkpt>
      <trkpt lat="49.30762" lon="1.31223">
        <ele>119</ele>
        <time>2010-05-24T05:57:06Z</time>
      </trkpt>
      <trkpt lat="49.3078" lon="1.3121">
        <ele>113</ele>
        <time>2010-05-24T05:57:11Z</time>
      </trkpt>
      <trkpt lat="49.30791" lon="1.31203">
        <ele>113</ele>
        <time>2010-05-24T05:57:13Z</time>
      </trkpt>
      <trkpt lat="49.30801" lon="1.31195">
        <ele>107</ele>
        <time>2010-05-24T05:57:15Z</time>
      </trkpt>
      <trkpt lat="49.30814" lon="1.31185">
        <ele>107</ele>
        <time>2010-05-24T05:57:18Z</time>
      </trkpt>
      <trkpt lat="49.30825" lon="1.31171">
        <ele>107</ele>
        <time>2010-05-24T05:57:20Z</time>
      </trkpt>
      <trkpt lat="49.30832" lon="1.3115">
        <ele>107</ele>
        <time>2010-05-24T05:57:22Z</time>
      </trkpt>
      <trkpt lat="49.30839" lon="1.31132">
        <ele>107</ele>
        <time>2010-05-24T05:57:24Z</time>
      </trkpt>
      <trkpt lat="49.30845" lon="1.31117">
        <ele>107</ele>
        <time>2010-05-24T05:57:26Z</time>
      </trkpt>
      <trkpt lat="49.30846" lon="1.31103">
        <ele>107</ele>
        <time>2010-05-24T05:57:28Z</time>
      </trkpt>
      <trkpt lat="49.30848" lon="1.31088">
        <ele>107</ele>
        <time>2010-05-24T05:57:30Z</time>
      </trkpt>
      <trkpt lat="49.30849" lon="1.31066">
        <ele>107</ele>
        <time>2010-05-24T05:57:34Z</time>
      </trkpt>
      <trkpt lat="49.30848" lon="1.31047">
        <ele>107</ele>
        <time>2010-05-24T05:57:37Z</time>
      </trkpt>
      <trkpt lat="49.30851" lon="1.31033">
        <ele>107</ele>
        <time>2010-05-24T05:57:40Z</time>
      </trkpt>
      <trkpt lat="49.30852" lon="1.31017">
        <ele>112</ele>
        <time>2010-05-24T05:57:45Z</time>
      </trkpt>
      <trkpt lat="49.30853" lon="1.31002">
        <ele>112</ele>
        <time>2010-05-24T05:57:49Z</time>
      </trkpt>
      <trkpt lat="49.30854" lon="1.30986">
        <ele>112</ele>
        <time>2010-05-24T05:57:53Z</time>
      </trkpt>
      <trkpt lat="49.30857" lon="1.30969">
        <ele>112</ele>
        <time>2010-05-24T05:57:57Z</time>
      </trkpt>
      <trkpt lat="49.3086" lon="1.30956">
        <ele>112</ele>
        <time>2010-05-24T05:58:01Z</time>
      </trkpt>
      <trkpt lat="49.30863" lon="1.30939">
        <ele>112</ele>
        <time>2010-05-24T05:58:06Z</time>
      </trkpt>
      <trkpt lat="49.30866" lon="1.30924">
        <ele>112</ele>
        <time>2010-05-24T05:58:10Z</time>
      </trkpt>
      <trkpt lat="49.30868" lon="1.30908">
        <ele>118</ele>
        <time>2010-05-24T05:58:15Z</time>
      </trkpt>
      <trkpt lat="49.3087" lon="1.30894">
        <ele>118</ele>
        <time>2010-05-24T05:58:21Z</time>
      </trkpt>
      <trkpt lat="49.30871" lon="1.30877">
        <ele>118</ele>
        <time>2010-05-24T05:58:33Z</time>
      </trkpt>
      <trkpt lat="49.30876" lon="1.30861">
        <ele>124</ele>
        <time>2010-05-24T05:58:38Z</time>
      </trkpt>
      <trkpt lat="49.30879" lon="1.30847">
        <ele>124</ele>
        <time>2010-05-24T05:58:42Z</time>
      </trkpt>
      <trkpt lat="49.30881" lon="1.30832">
        <ele>124</ele>
        <time>2010-05-24T05:58:46Z</time>
      </trkpt>
      <trkpt lat="49.30883" lon="1.30818">
        <ele>124</ele>
        <time>2010-05-24T05:58:50Z</time>
      </trkpt>
      <trkpt lat="49.30886" lon="1.30802">
        <ele>129</ele>
        <time>2010-05-24T05:58:56Z</time>
      </trkpt>
      <trkpt lat="49.30888" lon="1.30786">
        <ele>129</ele>
        <time>2010-05-24T05:59:01Z</time>
      </trkpt>
      <trkpt lat="49.3089" lon="1.30771">
        <ele>129</ele>
        <time>2010-05-24T05:59:05Z</time>
      </trkpt>
      <trkpt lat="49.30892" lon="1.30756">
        <ele>129</ele>
        <time>2010-05-24T05:59:09Z</time>
      </trkpt>
      <trkpt lat="49.30893" lon="1.30741">
        <ele>129</ele>
        <time>2010-05-24T05:59:13Z</time>
      </trkpt>
      <trkpt lat="49.30895" lon="1.30726">
        <ele>129</ele>
        <time>2010-05-24T05:59:17Z</time>
      </trkpt>
      <trkpt lat="49.30896" lon="1.30711">
        <ele>129</ele>
        <time>2010-05-24T05:59:21Z</time>
      </trkpt>
      <trkpt lat="49.30898" lon="1.30695">
        <ele>129</ele>
        <time>2010-05-24T05:59:25Z</time>
      </trkpt>
      <trkpt lat="49.30897" lon="1.30679">
        <ele>129</ele>
        <time>2010-05-24T05:59:29Z</time>
      </trkpt>
      <trkpt lat="49.30897" lon="1.30664">
        <ele>129</ele>
        <time>2010-05-24T05:59:33Z</time>
      </trkpt>
      <trkpt lat="49.30897" lon="1.30648">
        <ele>129</ele>
        <time>2010-05-24T05:59:37Z</time>
      </trkpt>
      <trkpt lat="49.30896" lon="1.30633">
        <ele>129</ele>
        <time>2010-05-24T05:59:41Z</time>
      </trkpt>
      <trkpt lat="49.30896" lon="1.30617">
        <ele>129</ele>
        <time>2010-05-24T05:59:45Z</time>
      </trkpt>
      <trkpt lat="49.30897" lon="1.30601">
        <ele>129</ele>
        <time>2010-05-24T05:59:49Z</time>
      </trkpt>
      <trkpt lat="49.30897" lon="1.30584">
        <ele>129</ele>
        <time>2010-05-24T05:59:53Z</time>
      </trkpt>
      <trkpt lat="49.30897" lon="1.30566">
        <ele>129</ele>
        <time>2010-05-24T05:59:57Z</time>
      </trkpt>
      <trkpt lat="49.30896" lon="1.30551">
        <ele>129</ele>
        <time>2010-05-24T06:00:00Z</time>
      </trkpt>
      <trkpt lat="49.30895" lon="1.30537">
        <ele>129</ele>
        <time>2010-05-24T06:00:03Z</time>
      </trkpt>
      <trkpt lat="49.30894" lon="1.30522">
        <ele>129</ele>
        <time>2010-05-24T06:00:06Z</time>
      </trkpt>
      <trkpt lat="49.30893" lon="1.30506">
        <ele>129</ele>
        <time>2010-05-24T06:00:09Z</time>
      </trkpt>
      <trkpt lat="49.30891" lon="1.30492">
        <ele>135</ele>
        <time>2010-05-24T06:00:12Z</time>
      </trkpt>
      <trkpt lat="49.30889" lon="1.30477">
        <ele>135</ele>
        <time>2010-05-24T06:00:15Z</time>
      </trkpt>
      <trkpt lat="49.30888" lon="1.30462">
        <ele>135</ele>
        <time>2010-05-24T06:00:18Z</time>
      </trkpt>
      <trkpt lat="49.30885" lon="1.30449">
        <ele>135</ele>
        <time>2010-05-24T06:00:21Z</time>
      </trkpt>
      <trkpt lat="49.30882" lon="1.30432">
        <ele>135</ele>
        <time>2010-05-24T06:00:25Z</time>
      </trkpt>
      <trkpt lat="49.30879" lon="1.30417">
        <ele>135</ele>
        <time>2010-05-24T06:00:29Z</time>
      </trkpt>
      <trkpt lat="49.30875" lon="1.30401">
        <ele>135</ele>
        <time>2010-05-24T06:00:33Z</time>
      </trkpt>
      <trkpt lat="49.30872" lon="1.30384">
        <ele>140</ele>
        <time>2010-05-24T06:00:37Z</time>
      </trkpt>
      <trkpt lat="49.30868" lon="1.30366">
        <ele>140</ele>
        <time>2010-05-24T06:00:41Z</time>
      </trkpt>
      <trkpt lat="49.30866" lon="1.30352">
        <ele>140</ele>
        <time>2010-05-24T06:00:44Z</time>
      </trkpt>
      <trkpt lat="49.30865" lon="1.30337">
        <ele>140</ele>
        <time>2010-05-24T06:00:47Z</time>
      </trkpt>
      <trkpt lat="49.30865" lon="1.30321">
        <ele>140</ele>
        <time>2010-05-24T06:00:50Z</time>
      </trkpt>
      <trkpt lat="49.30865" lon="1.30307">
        <ele>140</ele>
        <time>2010-05-24T06:00:53Z</time>
      </trkpt>
      <trkpt lat="49.30865" lon="1.30292">
        <ele>140</ele>
        <time>2010-05-24T06:00:56Z</time>
      </trkpt>
      <trkpt lat="49.30866" lon="1.30276">
        <ele>140</ele>
        <time>2010-05-24T06:00:59Z</time>
      </trkpt>
      <trkpt lat="49.30868" lon="1.3026">
        <ele>140</ele>
        <time>2010-05-24T06:01:02Z</time>
      </trkpt>
      <trkpt lat="49.30868" lon="1.30244">
        <ele>140</ele>
        <time>2010-05-24T06:01:05Z</time>
      </trkpt>
      <trkpt lat="49.30869" lon="1.30228">
        <ele>140</ele>
        <time>2010-05-24T06:01:08Z</time>
      </trkpt>
      <trkpt lat="49.3087" lon="1.3021">
        <ele>140</ele>
        <time>2010-05-24T06:01:11Z</time>
      </trkpt>
      <trkpt lat="49.30871" lon="1.30192">
        <ele>140</ele>
        <time>2010-05-24T06:01:14Z</time>
      </trkpt>
      <trkpt lat="49.30871" lon="1.30174">
        <ele>140</ele>
        <time>2010-05-24T06:01:17Z</time>
      </trkpt>
      <trkpt lat="49.30869" lon="1.30155">
        <ele>140</ele>
        <time>2010-05-24T06:01:20Z</time>
      </trkpt>
      <trkpt lat="49.30868" lon="1.30137">
        <ele>140</ele>
        <time>2010-05-24T06:01:23Z</time>
      </trkpt>
      <trkpt lat="49.30866" lon="1.30119">
        <ele>140</ele>
        <time>2010-05-24T06:01:26Z</time>
      </trkpt>
      <trkpt lat="49.30864" lon="1.30106">
        <ele>140</ele>
        <time>2010-05-24T06:01:28Z</time>
      </trkpt>
      <trkpt lat="49.30861" lon="1.30087">
        <ele>140</ele>
        <time>2010-05-24T06:01:31Z</time>
      </trkpt>
      <trkpt lat="49.30858" lon="1.30068">
        <ele>140</ele>
        <time>2010-05-24T06:01:34Z</time>
      </trkpt>
      <trkpt lat="49.30854" lon="1.30049">
        <ele>140</ele>
        <time>2010-05-24T06:01:37Z</time>
      </trkpt>
      <trkpt lat="49.30851" lon="1.30031">
        <ele>140</ele>
        <time>2010-05-24T06:01:40Z</time>
      </trkpt>
      <trkpt lat="49.30848" lon="1.30018">
        <ele>140</ele>
        <time>2010-05-24T06:01:42Z</time>
      </trkpt>
      <trkpt lat="49.30844" lon="1.29998">
        <ele>140</ele>
        <time>2010-05-24T06:01:45Z</time>
      </trkpt>
      <trkpt lat="49.30841" lon="1.29984">
        <ele>140</ele>
        <time>2010-05-24T06:01:47Z</time>
      </trkpt>
      <trkpt lat="49.30838" lon="1.29971">
        <ele>140</ele>
        <time>2010-05-24T06:01:49Z</time>
      </trkpt>
      <trkpt lat="49.30834" lon="1.29958">
        <ele>140</ele>
        <time>2010-05-24T06:01:51Z</time>
      </trkpt>
      <trkpt lat="49.30831" lon="1.29944">
        <ele>140</ele>
        <time>2010-05-24T06:01:53Z</time>
      </trkpt>
      <trkpt lat="49.30828" lon="1.29929">
        <ele>140</ele>
        <time>2010-05-24T06:01:55Z</time>
      </trkpt>
      <trkpt lat="49.30825" lon="1.29914">
        <ele>140</ele>
        <time>2010-05-24T06:01:57Z</time>
      </trkpt>
      <trkpt lat="49.30822" lon="1.29896">
        <ele>140</ele>
        <time>2010-05-24T06:01:59Z</time>
      </trkpt>
      <trkpt lat="49.30819" lon="1.2988">
        <ele>140</ele>
        <time>2010-05-24T06:02:01Z</time>
      </trkpt>
      <trkpt lat="49.30816" lon="1.29865">
        <ele>140</ele>
        <time>2010-05-24T06:02:03Z</time>
      </trkpt>
      <trkpt lat="49.30814" lon="1.29851">
        <ele>145</ele>
        <time>2010-05-24T06:02:05Z</time>
      </trkpt>
      <trkpt lat="49.30811" lon="1.29837">
        <ele>145</ele>
        <time>2010-05-24T06:02:07Z</time>
      </trkpt>
      <trkpt lat="49.30809" lon="1.29818">
        <ele>145</ele>
        <time>2010-05-24T06:02:10Z</time>
      </trkpt>
      <trkpt lat="49.30807" lon="1.298">
        <ele>145</ele>
        <time>2010-05-24T06:02:13Z</time>
      </trkpt>
      <trkpt lat="49.30804" lon="1.29784">
        <ele>145</ele>
        <time>2010-05-24T06:02:16Z</time>
      </trkpt>
      <trkpt lat="49.30805" lon="1.29768">
        <ele>145</ele>
        <time>2010-05-24T06:02:20Z</time>
      </trkpt>
      <trkpt lat="49.30813" lon="1.29762">
        <ele>138</ele>
        <time>2010-05-24T06:02:39Z</time>
      </trkpt>
      <trkpt lat="49.30804" lon="1.29757">
        <ele>144</ele>
        <time>2010-05-24T06:03:16Z</time>
      </trkpt>
      <trkpt lat="49.30802" lon="1.29741">
        <ele>144</ele>
        <time>2010-05-24T06:03:20Z</time>
      </trkpt>
      <trkpt lat="49.308" lon="1.29727">
        <ele>144</ele>
        <time>2010-05-24T06:03:23Z</time>
      </trkpt>
      <trkpt lat="49.30799" lon="1.29709">
        <ele>144</ele>
        <time>2010-05-24T06:03:26Z</time>
      </trkpt>
      <trkpt lat="49.30792" lon="1.29672">
        <ele>144</ele>
        <time>2010-05-24T06:03:32Z</time>
      </trkpt>
      <trkpt lat="49.30791" lon="1.29656">
        <ele>144</ele>
        <time>2010-05-24T06:03:34Z</time>
      </trkpt>
      <trkpt lat="49.30787" lon="1.29636">
        <ele>144</ele>
        <time>2010-05-24T06:03:37Z</time>
      </trkpt>
      <trkpt lat="49.30786" lon="1.29621">
        <ele>144</ele>
        <time>2010-05-24T06:03:39Z</time>
      </trkpt>
      <trkpt lat="49.30786" lon="1.29606">
        <ele>144</ele>
        <time>2010-05-24T06:03:41Z</time>
      </trkpt>
      <trkpt lat="49.30785" lon="1.29592">
        <ele>138</ele>
        <time>2010-05-24T06:03:43Z</time>
      </trkpt>
      <trkpt lat="49.30784" lon="1.29578">
        <ele>138</ele>
        <time>2010-05-24T06:03:45Z</time>
      </trkpt>
      <trkpt lat="49.30784" lon="1.29561">
        <ele>138</ele>
        <time>2010-05-24T06:03:47Z</time>
      </trkpt>
      <trkpt lat="49.30785" lon="1.29543">
        <ele>133</ele>
        <time>2010-05-24T06:03:49Z</time>
      </trkpt>
      <trkpt lat="49.30787" lon="1.29523">
        <ele>133</ele>
        <time>2010-05-24T06:03:51Z</time>
      </trkpt>
      <trkpt lat="49.30788" lon="1.29502">
        <ele>133</ele>
        <time>2010-05-24T06:03:53Z</time>
      </trkpt>
      <trkpt lat="49.30794" lon="1.29464">
        <ele>133</ele>
        <time>2010-05-24T06:03:57Z</time>
      </trkpt>
      <trkpt lat="49.30798" lon="1.29447">
        <ele>133</ele>
        <time>2010-05-24T06:03:59Z</time>
      </trkpt>
      <trkpt lat="49.30798" lon="1.29429">
        <ele>133</ele>
        <time>2010-05-24T06:04:01Z</time>
      </trkpt>
      <trkpt lat="49.30799" lon="1.29414">
        <ele>133</ele>
        <time>2010-05-24T06:04:03Z</time>
      </trkpt>
      <trkpt lat="49.30799" lon="1.29397">
        <ele>133</ele>
        <time>2010-05-24T06:04:07Z</time>
      </trkpt>
      <trkpt lat="49.30809" lon="1.29394">
        <ele>133</ele>
        <time>2010-05-24T06:05:12Z</time>
      </trkpt>
      <trkpt lat="49.30817" lon="1.29383">
        <ele>133</ele>
        <time>2010-05-24T06:05:14Z</time>
      </trkpt>
      <trkpt lat="49.30821" lon="1.2937">
        <ele>133</ele>
        <time>2010-05-24T06:05:16Z</time>
      </trkpt>
      <trkpt lat="49.30827" lon="1.29358">
        <ele>133</ele>
        <time>2010-05-24T06:05:18Z</time>
      </trkpt>
      <trkpt lat="49.30835" lon="1.2935">
        <ele>133</ele>
        <time>2010-05-24T06:05:20Z</time>
      </trkpt>
      <trkpt lat="49.30843" lon="1.29343">
        <ele>133</ele>
        <time>2010-05-24T06:05:22Z</time>
      </trkpt>
      <trkpt lat="49.30856" lon="1.29336">
        <ele>133</ele>
        <time>2010-05-24T06:05:25Z</time>
      </trkpt>
      <trkpt lat="49.30864" lon="1.29329">
        <ele>133</ele>
        <time>2010-05-24T06:05:27Z</time>
      </trkpt>
      <trkpt lat="49.30873" lon="1.29323">
        <ele>139</ele>
        <time>2010-05-24T06:05:29Z</time>
      </trkpt>
      <trkpt lat="49.30882" lon="1.29319">
        <ele>139</ele>
        <time>2010-05-24T06:05:31Z</time>
      </trkpt>
      <trkpt lat="49.30895" lon="1.29314">
        <ele>139</ele>
        <time>2010-05-24T06:05:34Z</time>
      </trkpt>
      <trkpt lat="49.30906" lon="1.29312">
        <ele>139</ele>
        <time>2010-05-24T06:05:37Z</time>
      </trkpt>
      <trkpt lat="49.30915" lon="1.29303">
        <ele>139</ele>
        <time>2010-05-24T06:06:07Z</time>
      </trkpt>
      <trkpt lat="49.30923" lon="1.29295">
        <ele>139</ele>
        <time>2010-05-24T06:06:10Z</time>
      </trkpt>
      <trkpt lat="49.30932" lon="1.29286">
        <ele>139</ele>
        <time>2010-05-24T06:06:13Z</time>
      </trkpt>
      <trkpt lat="49.30942" lon="1.29275">
        <ele>139</ele>
        <time>2010-05-24T06:06:16Z</time>
      </trkpt>
      <trkpt lat="49.30949" lon="1.29265">
        <ele>139</ele>
        <time>2010-05-24T06:06:18Z</time>
      </trkpt>
      <trkpt lat="49.30956" lon="1.29255">
        <ele>139</ele>
        <time>2010-05-24T06:06:20Z</time>
      </trkpt>
      <trkpt lat="49.30963" lon="1.29243">
        <ele>139</ele>
        <time>2010-05-24T06:06:22Z</time>
      </trkpt>
      <trkpt lat="49.3097" lon="1.29233">
        <ele>139</ele>
        <time>2010-05-24T06:06:24Z</time>
      </trkpt>
      <trkpt lat="49.30977" lon="1.29222">
        <ele>139</ele>
        <time>2010-05-24T06:06:26Z</time>
      </trkpt>
      <trkpt lat="49.30984" lon="1.29213">
        <ele>139</ele>
        <time>2010-05-24T06:06:28Z</time>
      </trkpt>
      <trkpt lat="49.30989" lon="1.29198">
        <ele>139</ele>
        <time>2010-05-24T06:06:32Z</time>
      </trkpt>
      <trkpt lat="49.30983" lon="1.29182">
        <ele>139</ele>
        <time>2010-05-24T06:06:36Z</time>
      </trkpt>
      <trkpt lat="49.30976" lon="1.29171">
        <ele>132</ele>
        <time>2010-05-24T06:06:38Z</time>
      </trkpt>
      <trkpt lat="49.30978" lon="1.29156">
        <ele>126</ele>
        <time>2010-05-24T06:06:44Z</time>
      </trkpt>
      <trkpt lat="49.30983" lon="1.29145">
        <ele>126</ele>
        <time>2010-05-24T06:06:47Z</time>
      </trkpt>
      <trkpt lat="49.30988" lon="1.29127">
        <ele>126</ele>
        <time>2010-05-24T06:06:49Z</time>
      </trkpt>
      <trkpt lat="49.30996" lon="1.29098">
        <ele>126</ele>
        <time>2010-05-24T06:06:53Z</time>
      </trkpt>
      <trkpt lat="49.31003" lon="1.29069">
        <ele>120</ele>
        <time>2010-05-24T06:06:57Z</time>
      </trkpt>
      <trkpt lat="49.31009" lon="1.29055">
        <ele>120</ele>
        <time>2010-05-24T06:07:00Z</time>
      </trkpt>
      <trkpt lat="49.31015" lon="1.29038">
        <ele>120</ele>
        <time>2010-05-24T06:07:02Z</time>
      </trkpt>
      <trkpt lat="49.31023" lon="1.2902">
        <ele>120</ele>
        <time>2010-05-24T06:07:05Z</time>
      </trkpt>
      <trkpt lat="49.31028" lon="1.29005">
        <ele>120</ele>
        <time>2010-05-24T06:07:07Z</time>
      </trkpt>
      <trkpt lat="49.31032" lon="1.28987">
        <ele>120</ele>
        <time>2010-05-24T06:07:09Z</time>
      </trkpt>
      <trkpt lat="49.31047" lon="1.2896">
        <ele>114</ele>
        <time>2010-05-24T06:07:14Z</time>
      </trkpt>
      <trkpt lat="49.31056" lon="1.28941">
        <ele>114</ele>
        <time>2010-05-24T06:07:16Z</time>
      </trkpt>
      <trkpt lat="49.3106" lon="1.28924">
        <ele>114</ele>
        <time>2010-05-24T06:07:18Z</time>
      </trkpt>
      <trkpt lat="49.31067" lon="1.28906">
        <ele>114</ele>
        <time>2010-05-24T06:07:20Z</time>
      </trkpt>
      <trkpt lat="49.31069" lon="1.28888">
        <ele>108</ele>
        <time>2010-05-24T06:07:22Z</time>
      </trkpt>
      <trkpt lat="49.31075" lon="1.28871">
        <ele>108</ele>
        <time>2010-05-24T06:07:24Z</time>
      </trkpt>
      <trkpt lat="49.31081" lon="1.28859">
        <ele>102</ele>
        <time>2010-05-24T06:07:27Z</time>
      </trkpt>
      <trkpt lat="49.31077" lon="1.2884">
        <ele>96</ele>
        <time>2010-05-24T06:07:32Z</time>
      </trkpt>
      <trkpt lat="49.31071" lon="1.28827">
        <ele>96</ele>
        <time>2010-05-24T06:07:34Z</time>
      </trkpt>
      <trkpt lat="49.31069" lon="1.28811">
        <ele>96</ele>
        <time>2010-05-24T06:07:36Z</time>
      </trkpt>
      <trkpt lat="49.31071" lon="1.28797">
        <ele>96</ele>
        <time>2010-05-24T06:07:39Z</time>
      </trkpt>
      <trkpt lat="49.31072" lon="1.28779">
        <ele>96</ele>
        <time>2010-05-24T06:07:42Z</time>
      </trkpt>
      <trkpt lat="49.31076" lon="1.28765">
        <ele>96</ele>
        <time>2010-05-24T06:07:51Z</time>
      </trkpt>
      <trkpt lat="49.31077" lon="1.2875">
        <ele>120</ele>
        <time>2010-05-24T06:08:23Z</time>
      </trkpt>
      <trkpt lat="49.31072" lon="1.28739">
        <ele>110</ele>
        <time>2010-05-24T06:08:30Z</time>
      </trkpt>
      <trkpt lat="49.3107" lon="1.28723">
        <ele>110</ele>
        <time>2010-05-24T06:08:38Z</time>
      </trkpt>
      <trkpt lat="49.31067" lon="1.28708">
        <ele>110</ele>
        <time>2010-05-24T06:08:48Z</time>
      </trkpt>
      <trkpt lat="49.31067" lon="1.28692">
        <ele>110</ele>
        <time>2010-05-24T06:09:06Z</time>
      </trkpt>
      <trkpt lat="49.31073" lon="1.28679">
        <ele>110</ele>
        <time>2010-05-24T06:09:11Z</time>
      </trkpt>
      <trkpt lat="49.31073" lon="1.28664">
        <ele>110</ele>
        <time>2010-05-24T06:09:19Z</time>
      </trkpt>
      <trkpt lat="49.31077" lon="1.28651">
        <ele>128</ele>
        <time>2010-05-24T06:09:30Z</time>
      </trkpt>
      <trkpt lat="49.31078" lon="1.28636">
        <ele>134</ele>
        <time>2010-05-24T06:09:39Z</time>
      </trkpt>
      <trkpt lat="49.31077" lon="1.28622">
        <ele>134</ele>
        <time>2010-05-24T06:09:49Z</time>
      </trkpt>
      <trkpt lat="49.31071" lon="1.28611">
        <ele>134</ele>
        <time>2010-05-24T06:09:53Z</time>
      </trkpt>
      <trkpt lat="49.31079" lon="1.28604">
        <ele>117</ele>
        <time>2010-05-24T06:10:19Z</time>
      </trkpt>
      <trkpt lat="49.31073" lon="1.28593">
        <ele>117</ele>
        <time>2010-05-24T06:10:25Z</time>
      </trkpt>
      <trkpt lat="49.31064" lon="1.28583">
        <ele>117</ele>
        <time>2010-05-24T06:10:32Z</time>
      </trkpt>
      <trkpt lat="49.31056" lon="1.28575">
        <ele>117</ele>
        <time>2010-05-24T06:10:37Z</time>
      </trkpt>
      <trkpt lat="49.31049" lon="1.28564">
        <ele>117</ele>
        <time>2010-05-24T06:10:41Z</time>
      </trkpt>
      <trkpt lat="49.31041" lon="1.28555">
        <ele>123</ele>
        <time>2010-05-24T06:10:45Z</time>
      </trkpt>
      <trkpt lat="49.31034" lon="1.28544">
        <ele>123</ele>
        <time>2010-05-24T06:10:50Z</time>
      </trkpt>
      <trkpt lat="49.31026" lon="1.28533">
        <ele>123</ele>
        <time>2010-05-24T06:10:55Z</time>
      </trkpt>
      <trkpt lat="49.31018" lon="1.28522">
        <ele>130</ele>
        <time>2010-05-24T06:11:00Z</time>
      </trkpt>
      <trkpt lat="49.31009" lon="1.28511">
        <ele>130</ele>
        <time>2010-05-24T06:11:05Z</time>
      </trkpt>
      <trkpt lat="49.31002" lon="1.28502">
        <ele>130</ele>
        <time>2010-05-24T06:11:09Z</time>
      </trkpt>
      <trkpt lat="49.30994" lon="1.28493">
        <ele>130</ele>
        <time>2010-05-24T06:11:13Z</time>
      </trkpt>
      <trkpt lat="49.30987" lon="1.28484">
        <ele>130</ele>
        <time>2010-05-24T06:11:17Z</time>
      </trkpt>
      <trkpt lat="49.3098" lon="1.28475">
        <ele>130</ele>
        <time>2010-05-24T06:11:21Z</time>
      </trkpt>
      <trkpt lat="49.30973" lon="1.28466">
        <ele>135</ele>
        <time>2010-05-24T06:11:25Z</time>
      </trkpt>
      <trkpt lat="49.30966" lon="1.28457">
        <ele>135</ele>
        <time>2010-05-24T06:11:30Z</time>
      </trkpt>
      <trkpt lat="49.30959" lon="1.28447">
        <ele>135</ele>
        <time>2010-05-24T06:11:36Z</time>
      </trkpt>
      <trkpt lat="49.30965" lon="1.28436">
        <ele>135</ele>
        <time>2010-05-24T06:12:13Z</time>
      </trkpt>
      <trkpt lat="49.30975" lon="1.28433">
        <ele>135</ele>
        <time>2010-05-24T06:12:19Z</time>
      </trkpt>
      <trkpt lat="49.30985" lon="1.28429">
        <ele>135</ele>
        <time>2010-05-24T06:12:23Z</time>
      </trkpt>
      <trkpt lat="49.30994" lon="1.28426">
        <ele>135</ele>
        <time>2010-05-24T06:12:26Z</time>
      </trkpt>
      <trkpt lat="49.31003" lon="1.28421">
        <ele>140</ele>
        <time>2010-05-24T06:12:29Z</time>
      </trkpt>
      <trkpt lat="49.31013" lon="1.28414">
        <ele>140</ele>
        <time>2010-05-24T06:12:32Z</time>
      </trkpt>
      <trkpt lat="49.31023" lon="1.28407">
        <ele>140</ele>
        <time>2010-05-24T06:12:35Z</time>
      </trkpt>
      <trkpt lat="49.31032" lon="1.28398">
        <ele>140</ele>
        <time>2010-05-24T06:12:38Z</time>
      </trkpt>
      <trkpt lat="49.31042" lon="1.28389">
        <ele>140</ele>
        <time>2010-05-24T06:12:41Z</time>
      </trkpt>
      <trkpt lat="49.31053" lon="1.28377">
        <ele>140</ele>
        <time>2010-05-24T06:12:44Z</time>
      </trkpt>
      <trkpt lat="49.3106" lon="1.28368">
        <ele>140</ele>
        <time>2010-05-24T06:12:46Z</time>
      </trkpt>
      <trkpt lat="49.31068" lon="1.28359">
        <ele>140</ele>
        <time>2010-05-24T06:12:48Z</time>
      </trkpt>
      <trkpt lat="49.31077" lon="1.28348">
        <ele>140</ele>
        <time>2010-05-24T06:12:50Z</time>
      </trkpt>
      <trkpt lat="49.31086" lon="1.28336">
        <ele>140</ele>
        <time>2010-05-24T06:12:52Z</time>
      </trkpt>
      <trkpt lat="49.31095" lon="1.28325">
        <ele>140</ele>
        <time>2010-05-24T06:12:54Z</time>
      </trkpt>
      <trkpt lat="49.31104" lon="1.28315">
        <ele>140</ele>
        <time>2010-05-24T06:12:56Z</time>
      </trkpt>
      <trkpt lat="49.31113" lon="1.28304">
        <ele>140</ele>
        <time>2010-05-24T06:12:58Z</time>
      </trkpt>
      <trkpt lat="49.3112" lon="1.28294">
        <ele>134</ele>
        <time>2010-05-24T06:13:00Z</time>
      </trkpt>
      <trkpt lat="49.31131" lon="1.28281">
        <ele>134</ele>
        <time>2010-05-24T06:13:03Z</time>
      </trkpt>
      <trkpt lat="49.31138" lon="1.28272">
        <ele>134</ele>
        <time>2010-05-24T06:13:05Z</time>
      </trkpt>
      <trkpt lat="49.31147" lon="1.28261">
        <ele>134</ele>
        <time>2010-05-24T06:13:08Z</time>
      </trkpt>
      <trkpt lat="49.31156" lon="1.2825">
        <ele>134</ele>
        <time>2010-05-24T06:13:11Z</time>
      </trkpt>
      <trkpt lat="49.31165" lon="1.28238">
        <ele>134</ele>
        <time>2010-05-24T06:13:14Z</time>
      </trkpt>
      <trkpt lat="49.31173" lon="1.28227">
        <ele>134</ele>
        <time>2010-05-24T06:13:17Z</time>
      </trkpt>
      <trkpt lat="49.31181" lon="1.28217">
        <ele>134</ele>
        <time>2010-05-24T06:13:20Z</time>
      </trkpt>
      <trkpt lat="49.31191" lon="1.28207">
        <ele>134</ele>
        <time>2010-05-24T06:13:23Z</time>
      </trkpt>
      <trkpt lat="49.31201" lon="1.28197">
        <ele>134</ele>
        <time>2010-05-24T06:13:26Z</time>
      </trkpt>
      <trkpt lat="49.31211" lon="1.28183">
        <ele>134</ele>
        <time>2010-05-24T06:13:29Z</time>
      </trkpt>
      <trkpt lat="49.31219" lon="1.2817">
        <ele>134</ele>
        <time>2010-05-24T06:13:32Z</time>
      </trkpt>
      <trkpt lat="49.31227" lon="1.28153">
        <ele>134</ele>
        <time>2010-05-24T06:13:35Z</time>
      </trkpt>
      <trkpt lat="49.31234" lon="1.28142">
        <ele>134</ele>
        <time>2010-05-24T06:13:37Z</time>
      </trkpt>
      <trkpt lat="49.3124" lon="1.28131">
        <ele>134</ele>
        <time>2010-05-24T06:13:39Z</time>
      </trkpt>
      <trkpt lat="49.31246" lon="1.28117">
        <ele>134</ele>
        <time>2010-05-24T06:13:41Z</time>
      </trkpt>
      <trkpt lat="49.31251" lon="1.28102">
        <ele>134</ele>
        <time>2010-05-24T06:13:43Z</time>
      </trkpt>
      <trkpt lat="49.31252" lon="1.28086">
        <ele>134</ele>
        <time>2010-05-24T06:13:45Z</time>
      </trkpt>
      <trkpt lat="49.31253" lon="1.28072">
        <ele>134</ele>
        <time>2010-05-24T06:13:47Z</time>
      </trkpt>
      <trkpt lat="49.31255" lon="1.28057">
        <ele>134</ele>
        <time>2010-05-24T06:13:49Z</time>
      </trkpt>
      <trkpt lat="49.31259" lon="1.28042">
        <ele>134</ele>
        <time>2010-05-24T06:13:51Z</time>
      </trkpt>
      <trkpt lat="49.31267" lon="1.28031">
        <ele>134</ele>
        <time>2010-05-24T06:13:53Z</time>
      </trkpt>
      <trkpt lat="49.31276" lon="1.28019">
        <ele>134</ele>
        <time>2010-05-24T06:13:55Z</time>
      </trkpt>
      <trkpt lat="49.31285" lon="1.28007">
        <ele>134</ele>
        <time>2010-05-24T06:13:57Z</time>
      </trkpt>
      <trkpt lat="49.31295" lon="1.27996">
        <ele>134</ele>
        <time>2010-05-24T06:13:59Z</time>
      </trkpt>
      <trkpt lat="49.31304" lon="1.27985">
        <ele>134</ele>
        <time>2010-05-24T06:14:01Z</time>
      </trkpt>
      <trkpt lat="49.31312" lon="1.27975">
        <ele>134</ele>
        <time>2010-05-24T06:14:03Z</time>
      </trkpt>
      <trkpt lat="49.3132" lon="1.27966">
        <ele>134</ele>
        <time>2010-05-24T06:14:05Z</time>
      </trkpt>
      <trkpt lat="49.31328" lon="1.27958">
        <ele>134</ele>
        <time>2010-05-24T06:14:07Z</time>
      </trkpt>
      <trkpt lat="49.3134" lon="1.27948">
        <ele>134</ele>
        <time>2010-05-24T06:14:10Z</time>
      </trkpt>
      <trkpt lat="49.31349" lon="1.2795">
        <ele>142</ele>
        <time>2010-05-24T06:15:30Z</time>
      </trkpt>
      <trkpt lat="49.31357" lon="1.27941">
        <ele>136</ele>
        <time>2010-05-24T06:15:34Z</time>
      </trkpt>
      <trkpt lat="49.31366" lon="1.27931">
        <ele>136</ele>
        <time>2010-05-24T06:15:38Z</time>
      </trkpt>
      <trkpt lat="49.31374" lon="1.27924">
        <ele>136</ele>
        <time>2010-05-24T06:15:41Z</time>
      </trkpt>
      <trkpt lat="49.31383" lon="1.27917">
        <ele>129</ele>
        <time>2010-05-24T06:15:44Z</time>
      </trkpt>
      <trkpt lat="49.31392" lon="1.2791">
        <ele>129</ele>
        <time>2010-05-24T06:15:47Z</time>
      </trkpt>
      <trkpt lat="49.31401" lon="1.27904">
        <ele>129</ele>
        <time>2010-05-24T06:15:50Z</time>
      </trkpt>
      <trkpt lat="49.31409" lon="1.27894">
        <ele>129</ele>
        <time>2010-05-24T06:15:53Z</time>
      </trkpt>
      <trkpt lat="49.31417" lon="1.27884">
        <ele>129</ele>
        <time>2010-05-24T06:15:56Z</time>
      </trkpt>
      <trkpt lat="49.31426" lon="1.27874">
        <ele>129</ele>
        <time>2010-05-24T06:15:59Z</time>
      </trkpt>
      <trkpt lat="49.31435" lon="1.27864">
        <ele>129</ele>
        <time>2010-05-24T06:16:02Z</time>
      </trkpt>
      <trkpt lat="49.31446" lon="1.27866">
        <ele>135</ele>
        <time>2010-05-24T06:16:05Z</time>
      </trkpt>
      <trkpt lat="49.31457" lon="1.27875">
        <ele>135</ele>
        <time>2010-05-24T06:16:08Z</time>
      </trkpt>
      <trkpt lat="49.31466" lon="1.27883">
        <ele>135</ele>
        <time>2010-05-24T06:16:10Z</time>
      </trkpt>
      <trkpt lat="49.31483" lon="1.27895">
        <ele>135</ele>
        <time>2010-05-24T06:16:14Z</time>
      </trkpt>
      <trkpt lat="49.31493" lon="1.27899">
        <ele>135</ele>
        <time>2010-05-24T06:16:16Z</time>
      </trkpt>
      <trkpt lat="49.31502" lon="1.27904">
        <ele>135</ele>
        <time>2010-05-24T06:16:18Z</time>
      </trkpt>
      <trkpt lat="49.31512" lon="1.27909">
        <ele>135</ele>
        <time>2010-05-24T06:16:21Z</time>
      </trkpt>
      <trkpt lat="49.31522" lon="1.27914">
        <ele>135</ele>
        <time>2010-05-24T06:16:23Z</time>
      </trkpt>
      <trkpt lat="49.31531" lon="1.27909">
        <ele>135</ele>
        <time>2010-05-24T06:16:25Z</time>
      </trkpt>
      <trkpt lat="49.31535" lon="1.27892">
        <ele>130</ele>
        <time>2010-05-24T06:16:28Z</time>
      </trkpt>
      <trkpt lat="49.31534" lon="1.27873">
        <ele>130</ele>
        <time>2010-05-24T06:16:31Z</time>
      </trkpt>
      <trkpt lat="49.31534" lon="1.27859">
        <ele>130</ele>
        <time>2010-05-24T06:16:33Z</time>
      </trkpt>
      <trkpt lat="49.31536" lon="1.27839">
        <ele>130</ele>
        <time>2010-05-24T06:16:36Z</time>
      </trkpt>
      <trkpt lat="49.31543" lon="1.27822">
        <ele>130</ele>
        <time>2010-05-24T06:16:39Z</time>
      </trkpt>
      <trkpt lat="49.31549" lon="1.27808">
        <ele>130</ele>
        <time>2010-05-24T06:16:42Z</time>
      </trkpt>
      <trkpt lat="49.31556" lon="1.27796">
        <ele>130</ele>
        <time>2010-05-24T06:16:46Z</time>
      </trkpt>
      <trkpt lat="49.31557" lon="1.27781">
        <ele>138</ele>
        <time>2010-05-24T06:17:13Z</time>
      </trkpt>
      <trkpt lat="49.31558" lon="1.27766">
        <ele>138</ele>
        <time>2010-05-24T06:17:16Z</time>
      </trkpt>
      <trkpt lat="49.31558" lon="1.27749">
        <ele>138</ele>
        <time>2010-05-24T06:17:19Z</time>
      </trkpt>
      <trkpt lat="49.31554" lon="1.27732">
        <ele>138</ele>
        <time>2010-05-24T06:17:22Z</time>
      </trkpt>
      <trkpt lat="49.31548" lon="1.27716">
        <ele>138</ele>
        <time>2010-05-24T06:17:25Z</time>
      </trkpt>
      <trkpt lat="49.31541" lon="1.27699">
        <ele>138</ele>
        <time>2010-05-24T06:17:28Z</time>
      </trkpt>
      <trkpt lat="49.31535" lon="1.27681">
        <ele>138</ele>
        <time>2010-05-24T06:17:31Z</time>
      </trkpt>
      <trkpt lat="49.3153" lon="1.27662">
        <ele>138</ele>
        <time>2010-05-24T06:17:34Z</time>
      </trkpt>
      <trkpt lat="49.31526" lon="1.27643">
        <ele>138</ele>
        <time>2010-05-24T06:17:37Z</time>
      </trkpt>
      <trkpt lat="49.31527" lon="1.27625">
        <ele>138</ele>
        <time>2010-05-24T06:17:40Z</time>
      </trkpt>
      <trkpt lat="49.31524" lon="1.27606">
        <ele>138</ele>
        <time>2010-05-24T06:17:43Z</time>
      </trkpt>
      <trkpt lat="49.31525" lon="1.2759">
        <ele>138</ele>
        <time>2010-05-24T06:17:45Z</time>
      </trkpt>
      <trkpt lat="49.31524" lon="1.27575">
        <ele>138</ele>
        <time>2010-05-24T06:17:47Z</time>
      </trkpt>
      <trkpt lat="49.31524" lon="1.27558">
        <ele>138</ele>
        <time>2010-05-24T06:17:50Z</time>
      </trkpt>
      <trkpt lat="49.31524" lon="1.27537">
        <ele>138</ele>
        <time>2010-05-24T06:17:53Z</time>
      </trkpt>
      <trkpt lat="49.31522" lon="1.27519">
        <ele>131</ele>
        <time>2010-05-24T06:17:56Z</time>
      </trkpt>
      <trkpt lat="49.31518" lon="1.27499">
        <ele>131</ele>
        <time>2010-05-24T06:17:59Z</time>
      </trkpt>
      <trkpt lat="49.3151" lon="1.27485">
        <ele>124</ele>
        <time>2010-05-24T06:18:01Z</time>
      </trkpt>
      <trkpt lat="49.31503" lon="1.2747">
        <ele>124</ele>
        <time>2010-05-24T06:18:03Z</time>
      </trkpt>
      <trkpt lat="49.315" lon="1.27449">
        <ele>118</ele>
        <time>2010-05-24T06:18:05Z</time>
      </trkpt>
      <trkpt lat="49.31501" lon="1.27432">
        <ele>118</ele>
        <time>2010-05-24T06:18:07Z</time>
      </trkpt>
      <trkpt lat="49.31498" lon="1.27409">
        <ele>118</ele>
        <time>2010-05-24T06:18:09Z</time>
      </trkpt>
      <trkpt lat="49.31495" lon="1.2739">
        <ele>118</ele>
        <time>2010-05-24T06:18:11Z</time>
      </trkpt>
      <trkpt lat="49.31494" lon="1.27375">
        <ele>118</ele>
        <time>2010-05-24T06:18:13Z</time>
      </trkpt>
      <trkpt lat="49.3149" lon="1.2736">
        <ele>118</ele>
        <time>2010-05-24T06:18:19Z</time>
      </trkpt>
      <trkpt lat="49.3149" lon="1.27345">
        <ele>118</ele>
        <time>2010-05-24T06:18:26Z</time>
      </trkpt>
      <trkpt lat="49.31493" lon="1.27331">
        <ele>129</ele>
        <time>2010-05-24T06:18:30Z</time>
      </trkpt>
      <trkpt lat="49.31493" lon="1.27314">
        <ele>129</ele>
        <time>2010-05-24T06:18:33Z</time>
      </trkpt>
      <trkpt lat="49.31495" lon="1.27296">
        <ele>129</ele>
        <time>2010-05-24T06:18:36Z</time>
      </trkpt>
      <trkpt lat="49.31495" lon="1.27281">
        <ele>129</ele>
        <time>2010-05-24T06:18:38Z</time>
      </trkpt>
      <trkpt lat="49.31495" lon="1.27261">
        <ele>129</ele>
        <time>2010-05-24T06:18:41Z</time>
      </trkpt>
      <trkpt lat="49.31497" lon="1.27244">
        <ele>129</ele>
        <time>2010-05-24T06:18:44Z</time>
      </trkpt>
      <trkpt lat="49.31497" lon="1.27226">
        <ele>129</ele>
        <time>2010-05-24T06:18:47Z</time>
      </trkpt>
      <trkpt lat="49.31499" lon="1.27206">
        <ele>129</ele>
        <time>2010-05-24T06:18:50Z</time>
      </trkpt>
      <trkpt lat="49.315" lon="1.27187">
        <ele>129</ele>
        <time>2010-05-24T06:18:53Z</time>
      </trkpt>
      <trkpt lat="49.31501" lon="1.27169">
        <ele>122</ele>
        <time>2010-05-24T06:18:56Z</time>
      </trkpt>
      <trkpt lat="49.31503" lon="1.27154">
        <ele>122</ele>
        <time>2010-05-24T06:18:59Z</time>
      </trkpt>
      <trkpt lat="49.31505" lon="1.2714">
        <ele>122</ele>
        <time>2010-05-24T06:19:03Z</time>
      </trkpt>
      <trkpt lat="49.31507" lon="1.27125">
        <ele>122</ele>
        <time>2010-05-24T06:19:46Z</time>
      </trkpt>
      <trkpt lat="49.31508" lon="1.27106">
        <ele>122</ele>
        <time>2010-05-24T06:19:50Z</time>
      </trkpt>
      <trkpt lat="49.31509" lon="1.2709">
        <ele>122</ele>
        <time>2010-05-24T06:19:53Z</time>
      </trkpt>
      <trkpt lat="49.31511" lon="1.27071">
        <ele>122</ele>
        <time>2010-05-24T06:19:57Z</time>
      </trkpt>
      <trkpt lat="49.3151" lon="1.27053">
        <ele>122</ele>
        <time>2010-05-24T06:20:01Z</time>
      </trkpt>
      <trkpt lat="49.31515" lon="1.27041">
        <ele>128</ele>
        <time>2010-05-24T06:20:07Z</time>
      </trkpt>
      <trkpt lat="49.31525" lon="1.27039">
        <ele>128</ele>
        <time>2010-05-24T06:20:10Z</time>
      </trkpt>
      <trkpt lat="49.31535" lon="1.27037">
        <ele>128</ele>
        <time>2010-05-24T06:20:13Z</time>
      </trkpt>
      <trkpt lat="49.31546" lon="1.27034">
        <ele>128</ele>
        <time>2010-05-24T06:20:16Z</time>
      </trkpt>
      <trkpt lat="49.31557" lon="1.27032">
        <ele>134</ele>
        <time>2010-05-24T06:20:19Z</time>
      </trkpt>
      <trkpt lat="49.31567" lon="1.27031">
        <ele>134</ele>
        <time>2010-05-24T06:20:24Z</time>
      </trkpt>
      <trkpt lat="49.31577" lon="1.27028">
        <ele>134</ele>
        <time>2010-05-24T06:20:44Z</time>
      </trkpt>
      <trkpt lat="49.31588" lon="1.27033">
        <ele>134</ele>
        <time>2010-05-24T06:20:48Z</time>
      </trkpt>
      <trkpt lat="49.31598" lon="1.27034">
        <ele>134</ele>
        <time>2010-05-24T06:20:51Z</time>
      </trkpt>
      <trkpt lat="49.31609" lon="1.27035">
        <ele>134</ele>
        <time>2010-05-24T06:20:55Z</time>
      </trkpt>
      <trkpt lat="49.31619" lon="1.27042">
        <ele>134</ele>
        <time>2010-05-24T06:20:58Z</time>
      </trkpt>
      <trkpt lat="49.31628" lon="1.27051">
        <ele>134</ele>
        <time>2010-05-24T06:21:01Z</time>
      </trkpt>
      <trkpt lat="49.31638" lon="1.27054">
        <ele>134</ele>
        <time>2010-05-24T06:21:05Z</time>
      </trkpt>
      <trkpt lat="49.31654" lon="1.27072">
        <ele>134</ele>
        <time>2010-05-24T06:21:11Z</time>
      </trkpt>
      <trkpt lat="49.31663" lon="1.27078">
        <ele>134</ele>
        <time>2010-05-24T06:21:12Z</time>
      </trkpt>
      <trkpt lat="49.31672" lon="1.27082">
        <ele>128</ele>
        <time>2010-05-24T06:21:14Z</time>
      </trkpt>
      <trkpt lat="49.31686" lon="1.27088">
        <ele>128</ele>
        <time>2010-05-24T06:21:16Z</time>
      </trkpt>
      <trkpt lat="49.31706" lon="1.27096">
        <ele>128</ele>
        <time>2010-05-24T06:21:19Z</time>
      </trkpt>
      <trkpt lat="49.31716" lon="1.271">
        <ele>128</ele>
        <time>2010-05-24T06:21:20Z</time>
      </trkpt>
      <trkpt lat="49.31729" lon="1.27108">
        <ele>120</ele>
        <time>2010-05-24T06:21:22Z</time>
      </trkpt>
      <trkpt lat="49.31744" lon="1.27123">
        <ele>120</ele>
        <time>2010-05-24T06:21:25Z</time>
      </trkpt>
      <trkpt lat="49.31756" lon="1.27134">
        <ele>120</ele>
        <time>2010-05-24T06:21:27Z</time>
      </trkpt>
      <trkpt lat="49.31775" lon="1.27157">
        <ele>120</ele>
        <time>2010-05-24T06:21:33Z</time>
      </trkpt>
      <trkpt lat="49.31785" lon="1.27166">
        <ele>120</ele>
        <time>2010-05-24T06:21:36Z</time>
      </trkpt>
      <trkpt lat="49.31794" lon="1.27177">
        <ele>114</ele>
        <time>2010-05-24T06:21:40Z</time>
      </trkpt>
      <trkpt lat="49.31804" lon="1.27185">
        <ele>114</ele>
        <time>2010-05-24T06:21:43Z</time>
      </trkpt>
      <trkpt lat="49.31813" lon="1.27192">
        <ele>114</ele>
        <time>2010-05-24T06:21:46Z</time>
      </trkpt>
      <trkpt lat="49.31821" lon="1.272">
        <ele>114</ele>
        <time>2010-05-24T06:21:49Z</time>
      </trkpt>
      <trkpt lat="49.31831" lon="1.2721">
        <ele>114</ele>
        <time>2010-05-24T06:21:52Z</time>
      </trkpt>
      <trkpt lat="49.3184" lon="1.27221">
        <ele>120</ele>
        <time>2010-05-24T06:21:55Z</time>
      </trkpt>
      <trkpt lat="49.31851" lon="1.27228">
        <ele>120</ele>
        <time>2010-05-24T06:21:58Z</time>
      </trkpt>
      <trkpt lat="49.31863" lon="1.27235">
        <ele>120</ele>
        <time>2010-05-24T06:22:01Z</time>
      </trkpt>
      <trkpt lat="49.31875" lon="1.27238">
        <ele>120</ele>
        <time>2010-05-24T06:22:04Z</time>
      </trkpt>
      <trkpt lat="49.31885" lon="1.27246">
        <ele>114</ele>
        <time>2010-05-24T06:22:07Z</time>
      </trkpt>
      <trkpt lat="49.31898" lon="1.27257">
        <ele>114</ele>
        <time>2010-05-24T06:22:11Z</time>
      </trkpt>
      <trkpt lat="49.31907" lon="1.27266">
        <ele>114</ele>
        <time>2010-05-24T06:22:13Z</time>
      </trkpt>
      <trkpt lat="49.31915" lon="1.27274">
        <ele>120</ele>
        <time>2010-05-24T06:22:15Z</time>
      </trkpt>
      <trkpt lat="49.31929" lon="1.27287">
        <ele>120</ele>
        <time>2010-05-24T06:22:19Z</time>
      </trkpt>
      <trkpt lat="49.31944" lon="1.27299">
        <ele>120</ele>
        <time>2010-05-24T06:22:23Z</time>
      </trkpt>
      <trkpt lat="49.31952" lon="1.27309">
        <ele>120</ele>
        <time>2010-05-24T06:22:24Z</time>
      </trkpt>
      <trkpt lat="49.31965" lon="1.27321">
        <ele>120</ele>
        <time>2010-05-24T06:22:26Z</time>
      </trkpt>
      <trkpt lat="49.31976" lon="1.2733">
        <ele>120</ele>
        <time>2010-05-24T06:22:29Z</time>
      </trkpt>
      <trkpt lat="49.31985" lon="1.27341">
        <ele>120</ele>
        <time>2010-05-24T06:22:31Z</time>
      </trkpt>
      <trkpt lat="49.31996" lon="1.27349">
        <ele>120</ele>
        <time>2010-05-24T06:22:33Z</time>
      </trkpt>
      <trkpt lat="49.32008" lon="1.27356">
        <ele>120</ele>
        <time>2010-05-24T06:22:35Z</time>
      </trkpt>
      <trkpt lat="49.32019" lon="1.27362">
        <ele>120</ele>
        <time>2010-05-24T06:22:37Z</time>
      </trkpt>
      <trkpt lat="49.32028" lon="1.27369">
        <ele>120</ele>
        <time>2010-05-24T06:22:39Z</time>
      </trkpt>
      <trkpt lat="49.32036" lon="1.27373">
        <ele>120</ele>
        <time>2010-05-24T06:22:41Z</time>
      </trkpt>
      <trkpt lat="49.32049" lon="1.2738">
        <ele>120</ele>
        <time>2010-05-24T06:22:44Z</time>
      </trkpt>
      <trkpt lat="49.32058" lon="1.27387">
        <ele>120</ele>
        <time>2010-05-24T06:22:47Z</time>
      </trkpt>
      <trkpt lat="49.32069" lon="1.27387">
        <ele>135</ele>
        <time>2010-05-24T06:22:56Z</time>
      </trkpt>
      <trkpt lat="49.32078" lon="1.27378">
        <ele>140</ele>
        <time>2010-05-24T06:23:00Z</time>
      </trkpt>
      <trkpt lat="49.32083" lon="1.2739">
        <ele>140</ele>
        <time>2010-05-24T06:23:03Z</time>
      </trkpt>
      <trkpt lat="49.32089" lon="1.27405">
        <ele>131</ele>
        <time>2010-05-24T06:23:07Z</time>
      </trkpt>
      <trkpt lat="49.32099" lon="1.27427">
        <ele>125</ele>
        <time>2010-05-24T06:23:12Z</time>
      </trkpt>
      <trkpt lat="49.32104" lon="1.2744">
        <ele>125</ele>
        <time>2010-05-24T06:23:14Z</time>
      </trkpt>
      <trkpt lat="49.32114" lon="1.27453">
        <ele>125</ele>
        <time>2010-05-24T06:23:16Z</time>
      </trkpt>
      <trkpt lat="49.3212" lon="1.27468">
        <ele>125</ele>
        <time>2010-05-24T06:23:18Z</time>
      </trkpt>
      <trkpt lat="49.32129" lon="1.27482">
        <ele>119</ele>
        <time>2010-05-24T06:23:20Z</time>
      </trkpt>
      <trkpt lat="49.32139" lon="1.27496">
        <ele>119</ele>
        <time>2010-05-24T06:23:22Z</time>
      </trkpt>
      <trkpt lat="49.32147" lon="1.27508">
        <ele>119</ele>
        <time>2010-05-24T06:23:24Z</time>
      </trkpt>
      <trkpt lat="49.32158" lon="1.2752">
        <ele>119</ele>
        <time>2010-05-24T06:23:26Z</time>
      </trkpt>
      <trkpt lat="49.32171" lon="1.27535">
        <ele>119</ele>
        <time>2010-05-24T06:23:29Z</time>
      </trkpt>
      <trkpt lat="49.32184" lon="1.27544">
        <ele>119</ele>
        <time>2010-05-24T06:23:31Z</time>
      </trkpt>
      <trkpt lat="49.32197" lon="1.27552">
        <ele>114</ele>
        <time>2010-05-24T06:23:34Z</time>
      </trkpt>
      <trkpt lat="49.32212" lon="1.2756">
        <ele>114</ele>
        <time>2010-05-24T06:23:37Z</time>
      </trkpt>
      <trkpt lat="49.32226" lon="1.27563">
        <ele>114</ele>
        <time>2010-05-24T06:23:39Z</time>
      </trkpt>
      <trkpt lat="49.32238" lon="1.27565">
        <ele>106</ele>
        <time>2010-05-24T06:23:41Z</time>
      </trkpt>
      <trkpt lat="49.32247" lon="1.27571">
        <ele>106</ele>
        <time>2010-05-24T06:23:43Z</time>
      </trkpt>
      <trkpt lat="49.32258" lon="1.27579">
        <ele>106</ele>
        <time>2010-05-24T06:23:45Z</time>
      </trkpt>
      <trkpt lat="49.32267" lon="1.2758">
        <ele>106</ele>
        <time>2010-05-24T06:23:46Z</time>
      </trkpt>
      <trkpt lat="49.32276" lon="1.27581">
        <ele>106</ele>
        <time>2010-05-24T06:23:47Z</time>
      </trkpt>
      <trkpt lat="49.32289" lon="1.27585">
        <ele>106</ele>
        <time>2010-05-24T06:23:49Z</time>
      </trkpt>
      <trkpt lat="49.323" lon="1.27595">
        <ele>111</ele>
        <time>2010-05-24T06:23:51Z</time>
      </trkpt>
      <trkpt lat="49.32317" lon="1.27602">
        <ele>111</ele>
        <time>2010-05-24T06:23:55Z</time>
      </trkpt>
      <trkpt lat="49.32329" lon="1.27609">
        <ele>111</ele>
        <time>2010-05-24T06:23:57Z</time>
      </trkpt>
      <trkpt lat="49.32341" lon="1.27613">
        <ele>105</ele>
        <time>2010-05-24T06:24:00Z</time>
      </trkpt>
      <trkpt lat="49.32352" lon="1.27615">
        <ele>105</ele>
        <time>2010-05-24T06:24:02Z</time>
      </trkpt>
      <trkpt lat="49.32364" lon="1.27625">
        <ele>105</ele>
        <time>2010-05-24T06:24:05Z</time>
      </trkpt>
      <trkpt lat="49.32372" lon="1.27635">
        <ele>105</ele>
        <time>2010-05-24T06:24:07Z</time>
      </trkpt>
      <trkpt lat="49.32381" lon="1.2765">
        <ele>105</ele>
        <time>2010-05-24T06:24:10Z</time>
      </trkpt>
      <trkpt lat="49.32389" lon="1.27665">
        <ele>105</ele>
        <time>2010-05-24T06:24:12Z</time>
      </trkpt>
      <trkpt lat="49.32397" lon="1.27672">
        <ele>105</ele>
        <time>2010-05-24T06:24:14Z</time>
      </trkpt>
      <trkpt lat="49.32407" lon="1.27687">
        <ele>105</ele>
        <time>2010-05-24T06:24:16Z</time>
      </trkpt>
      <trkpt lat="49.32416" lon="1.277">
        <ele>105</ele>
        <time>2010-05-24T06:24:18Z</time>
      </trkpt>
      <trkpt lat="49.32424" lon="1.27713">
        <ele>105</ele>
        <time>2010-05-24T06:24:20Z</time>
      </trkpt>
      <trkpt lat="49.32434" lon="1.27719">
        <ele>105</ele>
        <time>2010-05-24T06:24:23Z</time>
      </trkpt>
      <trkpt lat="49.32444" lon="1.27724">
        <ele>105</ele>
        <time>2010-05-24T06:24:25Z</time>
      </trkpt>
      <trkpt lat="49.32456" lon="1.2773">
        <ele>105</ele>
        <time>2010-05-24T06:24:28Z</time>
      </trkpt>
      <trkpt lat="49.3247" lon="1.27729">
        <ele>99</ele>
        <time>2010-05-24T06:24:30Z</time>
      </trkpt>
      <trkpt lat="49.32481" lon="1.27735">
        <ele>99</ele>
        <time>2010-05-24T06:24:32Z</time>
      </trkpt>
      <trkpt lat="49.32491" lon="1.27741">
        <ele>99</ele>
        <time>2010-05-24T06:24:35Z</time>
      </trkpt>
      <trkpt lat="49.325" lon="1.27746">
        <ele>93</ele>
        <time>2010-05-24T06:24:37Z</time>
      </trkpt>
      <trkpt lat="49.3251" lon="1.27757">
        <ele>93</ele>
        <time>2010-05-24T06:24:40Z</time>
      </trkpt>
      <trkpt lat="49.32521" lon="1.27767">
        <ele>93</ele>
        <time>2010-05-24T06:24:42Z</time>
      </trkpt>
      <trkpt lat="49.32534" lon="1.27791">
        <ele>93</ele>
        <time>2010-05-24T06:24:47Z</time>
      </trkpt>
      <trkpt lat="49.32547" lon="1.27801">
        <ele>100</ele>
        <time>2010-05-24T06:24:49Z</time>
      </trkpt>
      <trkpt lat="49.32557" lon="1.27811">
        <ele>100</ele>
        <time>2010-05-24T06:24:52Z</time>
      </trkpt>
      <trkpt lat="49.32567" lon="1.27828">
        <ele>100</ele>
        <time>2010-05-24T06:24:55Z</time>
      </trkpt>
      <trkpt lat="49.32574" lon="1.27838">
        <ele>100</ele>
        <time>2010-05-24T06:24:57Z</time>
      </trkpt>
      <trkpt lat="49.32581" lon="1.27854">
        <ele>100</ele>
        <time>2010-05-24T06:25:00Z</time>
      </trkpt>
      <trkpt lat="49.32588" lon="1.27867">
        <ele>100</ele>
        <time>2010-05-24T06:25:02Z</time>
      </trkpt>
      <trkpt lat="49.32595" lon="1.27877">
        <ele>100</ele>
        <time>2010-05-24T06:25:04Z</time>
      </trkpt>
      <trkpt lat="49.32604" lon="1.27891">
        <ele>94</ele>
        <time>2010-05-24T06:25:07Z</time>
      </trkpt>
      <trkpt lat="49.32615" lon="1.27898">
        <ele>94</ele>
        <time>2010-05-24T06:25:10Z</time>
      </trkpt>
      <trkpt lat="49.32626" lon="1.27903">
        <ele>87</ele>
        <time>2010-05-24T06:25:13Z</time>
      </trkpt>
      <trkpt lat="49.32636" lon="1.2791">
        <ele>87</ele>
        <time>2010-05-24T06:25:16Z</time>
      </trkpt>
      <trkpt lat="49.32645" lon="1.27915">
        <ele>93</ele>
        <time>2010-05-24T06:25:19Z</time>
      </trkpt>
      <trkpt lat="49.32656" lon="1.27915">
        <ele>93</ele>
        <time>2010-05-24T06:25:24Z</time>
      </trkpt>
      <trkpt lat="49.32672" lon="1.27915">
        <ele>93</ele>
        <time>2010-05-24T06:25:29Z</time>
      </trkpt>
      <trkpt lat="49.32684" lon="1.27917">
        <ele>93</ele>
        <time>2010-05-24T06:25:31Z</time>
      </trkpt>
      <trkpt lat="49.32697" lon="1.27916">
        <ele>87</ele>
        <time>2010-05-24T06:25:35Z</time>
      </trkpt>
      <trkpt lat="49.32707" lon="1.27918">
        <ele>87</ele>
        <time>2010-05-24T06:25:38Z</time>
      </trkpt>
      <trkpt lat="49.32719" lon="1.27922">
        <ele>87</ele>
        <time>2010-05-24T06:25:41Z</time>
      </trkpt>
      <trkpt lat="49.32728" lon="1.27926">
        <ele>87</ele>
        <time>2010-05-24T06:25:43Z</time>
      </trkpt>
      <trkpt lat="49.32737" lon="1.27932">
        <ele>79</ele>
        <time>2010-05-24T06:25:45Z</time>
      </trkpt>
      <trkpt lat="49.32748" lon="1.27934">
        <ele>79</ele>
        <time>2010-05-24T06:25:47Z</time>
      </trkpt>
      <trkpt lat="49.32759" lon="1.27935">
        <ele>79</ele>
        <time>2010-05-24T06:25:50Z</time>
      </trkpt>
      <trkpt lat="49.32771" lon="1.27932">
        <ele>73</ele>
        <time>2010-05-24T06:25:55Z</time>
      </trkpt>
      <trkpt lat="49.32781" lon="1.27932">
        <ele>73</ele>
        <time>2010-05-24T06:25:57Z</time>
      </trkpt>
      <trkpt lat="49.3279" lon="1.27935">
        <ele>73</ele>
        <time>2010-05-24T06:25:59Z</time>
      </trkpt>
      <trkpt lat="49.328" lon="1.27941">
        <ele>68</ele>
        <time>2010-05-24T06:26:03Z</time>
      </trkpt>
      <trkpt lat="49.32808" lon="1.27944">
        <ele>68</ele>
        <time>2010-05-24T06:26:10Z</time>
      </trkpt>
      <trkpt lat="49.32818" lon="1.2795">
        <ele>63</ele>
        <time>2010-05-24T06:28:34Z</time>
      </trkpt>
      <trkpt lat="49.32826" lon="1.27959">
        <ele>63</ele>
        <time>2010-05-24T06:28:37Z</time>
      </trkpt>
      <trkpt lat="49.32848" lon="1.27997">
        <ele>57</ele>
        <time>2010-05-24T06:28:45Z</time>
      </trkpt>
      <trkpt lat="49.32858" lon="1.28015">
        <ele>57</ele>
        <time>2010-05-24T06:28:46Z</time>
      </trkpt>
      <trkpt lat="49.32866" lon="1.28031">
        <ele>52</ele>
        <time>2010-05-24T06:28:48Z</time>
      </trkpt>
      <trkpt lat="49.32871" lon="1.28043">
        <ele>52</ele>
        <time>2010-05-24T06:28:50Z</time>
      </trkpt>
      <trkpt lat="49.32878" lon="1.28056">
        <ele>52</ele>
        <time>2010-05-24T06:28:54Z</time>
      </trkpt>
      <trkpt lat="49.32887" lon="1.28062">
        <ele>46</ele>
        <time>2010-05-24T06:28:56Z</time>
      </trkpt>
      <trkpt lat="49.32895" lon="1.28069">
        <ele>46</ele>
        <time>2010-05-24T06:28:58Z</time>
      </trkpt>
      <trkpt lat="49.32905" lon="1.28076">
        <ele>46</ele>
        <time>2010-05-24T06:29:00Z</time>
      </trkpt>
      <trkpt lat="49.32922" lon="1.28088">
        <ele>46</ele>
        <time>2010-05-24T06:29:04Z</time>
      </trkpt>
      <trkpt lat="49.32931" lon="1.28096">
        <ele>41</ele>
        <time>2010-05-24T06:29:06Z</time>
      </trkpt>
      <trkpt lat="49.32939" lon="1.28104">
        <ele>41</ele>
        <time>2010-05-24T06:29:09Z</time>
      </trkpt>
      <trkpt lat="49.32948" lon="1.28117">
        <ele>41</ele>
        <time>2010-05-24T06:29:12Z</time>
      </trkpt>
      <trkpt lat="49.32956" lon="1.2813">
        <ele>34</ele>
        <time>2010-05-24T06:29:15Z</time>
      </trkpt>
      <trkpt lat="49.32964" lon="1.28146">
        <ele>28</ele>
        <time>2010-05-24T06:29:18Z</time>
      </trkpt>
      <trkpt lat="49.32969" lon="1.2816">
        <ele>28</ele>
        <time>2010-05-24T06:29:20Z</time>
      </trkpt>
      <trkpt lat="49.32975" lon="1.28173">
        <ele>28</ele>
        <time>2010-05-24T06:29:23Z</time>
      </trkpt>
      <trkpt lat="49.32983" lon="1.28188">
        <ele>28</ele>
        <time>2010-05-24T06:29:26Z</time>
      </trkpt>
      <trkpt lat="49.32988" lon="1.28201">
        <ele>28</ele>
        <time>2010-05-24T06:29:30Z</time>
      </trkpt>
      <trkpt lat="49.32992" lon="1.28215">
        <ele>28</ele>
        <time>2010-05-24T06:29:33Z</time>
      </trkpt>
      <trkpt lat="49.32998" lon="1.28228">
        <ele>22</ele>
        <time>2010-05-24T06:29:36Z</time>
      </trkpt>
      <trkpt lat="49.33005" lon="1.28243">
        <ele>22</ele>
        <time>2010-05-24T06:29:39Z</time>
      </trkpt>
      <trkpt lat="49.33011" lon="1.28254">
        <ele>22</ele>
        <time>2010-05-24T06:29:41Z</time>
      </trkpt>
      <trkpt lat="49.33017" lon="1.28269">
        <ele>22</ele>
        <time>2010-05-24T06:29:43Z</time>
      </trkpt>
      <trkpt lat="49.33023" lon="1.28281">
        <ele>22</ele>
        <time>2010-05-24T06:29:45Z</time>
      </trkpt>
      <trkpt lat="49.3303" lon="1.28295">
        <ele>22</ele>
        <time>2010-05-24T06:29:47Z</time>
      </trkpt>
      <trkpt lat="49.33037" lon="1.28306">
        <ele>22</ele>
        <time>2010-05-24T06:29:49Z</time>
      </trkpt>
      <trkpt lat="49.33044" lon="1.28319">
        <ele>22</ele>
        <time>2010-05-24T06:29:51Z</time>
      </trkpt>
      <trkpt lat="49.3305" lon="1.28332">
        <ele>22</ele>
        <time>2010-05-24T06:29:53Z</time>
      </trkpt>
      <trkpt lat="49.33058" lon="1.28346">
        <ele>22</ele>
        <time>2010-05-24T06:29:55Z</time>
      </trkpt>
      <trkpt lat="49.33066" lon="1.28358">
        <ele>22</ele>
        <time>2010-05-24T06:29:57Z</time>
      </trkpt>
      <trkpt lat="49.33074" lon="1.2837">
        <ele>22</ele>
        <time>2010-05-24T06:29:59Z</time>
      </trkpt>
      <trkpt lat="49.3308" lon="1.28385">
        <ele>22</ele>
        <time>2010-05-24T06:30:01Z</time>
      </trkpt>
      <trkpt lat="49.33089" lon="1.28396">
        <ele>16</ele>
        <time>2010-05-24T06:30:03Z</time>
      </trkpt>
      <trkpt lat="49.33097" lon="1.28411">
        <ele>16</ele>
        <time>2010-05-24T06:30:05Z</time>
      </trkpt>
      <trkpt lat="49.33105" lon="1.28426">
        <ele>16</ele>
        <time>2010-05-24T06:30:07Z</time>
      </trkpt>
      <trkpt lat="49.33112" lon="1.28441">
        <ele>16</ele>
        <time>2010-05-24T06:30:09Z</time>
      </trkpt>
      <trkpt lat="49.33118" lon="1.28456">
        <ele>16</ele>
        <time>2010-05-24T06:30:11Z</time>
      </trkpt>
      <trkpt lat="49.33125" lon="1.28471">
        <ele>16</ele>
        <time>2010-05-24T06:30:13Z</time>
      </trkpt>
      <trkpt lat="49.33131" lon="1.28487">
        <ele>16</ele>
        <time>2010-05-24T06:30:15Z</time>
      </trkpt>
      <trkpt lat="49.33138" lon="1.28503">
        <ele>16</ele>
        <time>2010-05-24T06:30:17Z</time>
      </trkpt>
      <trkpt lat="49.33144" lon="1.28515">
        <ele>16</ele>
        <time>2010-05-24T06:30:19Z</time>
      </trkpt>
      <trkpt lat="49.33152" lon="1.28521">
        <ele>16</ele>
        <time>2010-05-24T06:30:22Z</time>
      </trkpt>
      <trkpt lat="49.33162" lon="1.28519">
        <ele>16</ele>
        <time>2010-05-24T06:30:27Z</time>
      </trkpt>
      <trkpt lat="49.33171" lon="1.28515">
        <ele>22</ele>
        <time>2010-05-24T06:31:49Z</time>
      </trkpt>
      <trkpt lat="49.3318" lon="1.28508">
        <ele>22</ele>
        <time>2010-05-24T06:32:21Z</time>
      </trkpt>
      <trkpt lat="49.33187" lon="1.28492">
        <ele>22</ele>
        <time>2010-05-24T06:32:25Z</time>
      </trkpt>
      <trkpt lat="49.33192" lon="1.2848">
        <ele>22</ele>
        <time>2010-05-24T06:32:28Z</time>
      </trkpt>
      <trkpt lat="49.3319" lon="1.28457">
        <ele>22</ele>
        <time>2010-05-24T06:32:31Z</time>
      </trkpt>
      <trkpt lat="49.33188" lon="1.28443">
        <ele>22</ele>
        <time>2010-05-24T06:32:33Z</time>
      </trkpt>
      <trkpt lat="49.33188" lon="1.28427">
        <ele>22</ele>
        <time>2010-05-24T06:32:35Z</time>
      </trkpt>
      <trkpt lat="49.33185" lon="1.2841">
        <ele>14</ele>
        <time>2010-05-24T06:32:37Z</time>
      </trkpt>
      <trkpt lat="49.33185" lon="1.28394">
        <ele>14</ele>
        <time>2010-05-24T06:32:39Z</time>
      </trkpt>
      <trkpt lat="49.33185" lon="1.2838">
        <ele>14</ele>
        <time>2010-05-24T06:32:41Z</time>
      </trkpt>
      <trkpt lat="49.33184" lon="1.28365">
        <ele>14</ele>
        <time>2010-05-24T06:32:43Z</time>
      </trkpt>
      <trkpt lat="49.33181" lon="1.2835">
        <ele>14</ele>
        <time>2010-05-24T06:32:45Z</time>
      </trkpt>
      <trkpt lat="49.33178" lon="1.28333">
        <ele>14</ele>
        <time>2010-05-24T06:32:47Z</time>
      </trkpt>
      <trkpt lat="49.33172" lon="1.28314">
        <ele>14</ele>
        <time>2010-05-24T06:32:50Z</time>
      </trkpt>
      <trkpt lat="49.33168" lon="1.28299">
        <ele>14</ele>
        <time>2010-05-24T06:32:52Z</time>
      </trkpt>
      <trkpt lat="49.33166" lon="1.28282">
        <ele>14</ele>
        <time>2010-05-24T06:32:54Z</time>
      </trkpt>
      <trkpt lat="49.33166" lon="1.28268">
        <ele>14</ele>
        <time>2010-05-24T06:32:56Z</time>
      </trkpt>
      <trkpt lat="49.33163" lon="1.28253">
        <ele>14</ele>
        <time>2010-05-24T06:32:58Z</time>
      </trkpt>
      <trkpt lat="49.33161" lon="1.28235">
        <ele>25</ele>
        <time>2010-05-24T06:33:01Z</time>
      </trkpt>
      <trkpt lat="49.3316" lon="1.28215">
        <ele>25</ele>
        <time>2010-05-24T06:33:04Z</time>
      </trkpt>
      <trkpt lat="49.33158" lon="1.28195">
        <ele>32</ele>
        <time>2010-05-24T06:33:07Z</time>
      </trkpt>
      <trkpt lat="49.33155" lon="1.28176">
        <ele>32</ele>
        <time>2010-05-24T06:33:10Z</time>
      </trkpt>
      <trkpt lat="49.33151" lon="1.28158">
        <ele>32</ele>
        <time>2010-05-24T06:33:13Z</time>
      </trkpt>
      <trkpt lat="49.33143" lon="1.28144">
        <ele>25</ele>
        <time>2010-05-24T06:33:16Z</time>
      </trkpt>
      <trkpt lat="49.33136" lon="1.28134">
        <ele>19</ele>
        <time>2010-05-24T06:33:18Z</time>
      </trkpt>
      <trkpt lat="49.33127" lon="1.2812">
        <ele>19</ele>
        <time>2010-05-24T06:33:21Z</time>
      </trkpt>
      <trkpt lat="49.3312" lon="1.28105">
        <ele>19</ele>
        <time>2010-05-24T06:33:24Z</time>
      </trkpt>
      <trkpt lat="49.33113" lon="1.2809">
        <ele>19</ele>
        <time>2010-05-24T06:33:27Z</time>
      </trkpt>
      <trkpt lat="49.33107" lon="1.28075">
        <ele>19</ele>
        <time>2010-05-24T06:33:30Z</time>
      </trkpt>
      <trkpt lat="49.33104" lon="1.28061">
        <ele>27</ele>
        <time>2010-05-24T06:33:34Z</time>
      </trkpt>
      <trkpt lat="49.33098" lon="1.28051">
        <ele>27</ele>
        <time>2010-05-24T06:33:45Z</time>
      </trkpt>
      <trkpt lat="49.33091" lon="1.28042">
        <ele>34</ele>
        <time>2010-05-24T06:34:50Z</time>
      </trkpt>
      <trkpt lat="49.331" lon="1.28042">
        <ele>26</ele>
        <time>2010-05-24T06:35:00Z</time>
      </trkpt>
      <trkpt lat="49.3311" lon="1.28032">
        <ele>26</ele>
        <time>2010-05-24T06:35:03Z</time>
      </trkpt>
      <trkpt lat="49.3312" lon="1.2802">
        <ele>26</ele>
        <time>2010-05-24T06:35:06Z</time>
      </trkpt>
      <trkpt lat="49.33131" lon="1.2801">
        <ele>26</ele>
        <time>2010-05-24T06:35:09Z</time>
      </trkpt>
      <trkpt lat="49.33138" lon="1.28002">
        <ele>26</ele>
        <time>2010-05-24T06:35:11Z</time>
      </trkpt>
      <trkpt lat="49.33147" lon="1.27993">
        <ele>26</ele>
        <time>2010-05-24T06:35:13Z</time>
      </trkpt>
      <trkpt lat="49.33155" lon="1.27985">
        <ele>26</ele>
        <time>2010-05-24T06:35:15Z</time>
      </trkpt>
      <trkpt lat="49.33165" lon="1.27977">
        <ele>26</ele>
        <time>2010-05-24T06:35:17Z</time>
      </trkpt>
      <trkpt lat="49.33176" lon="1.27969">
        <ele>26</ele>
        <time>2010-05-24T06:35:19Z</time>
      </trkpt>
      <trkpt lat="49.33186" lon="1.2796">
        <ele>26</ele>
        <time>2010-05-24T06:35:21Z</time>
      </trkpt>
      <trkpt lat="49.33195" lon="1.2795">
        <ele>26</ele>
        <time>2010-05-24T06:35:23Z</time>
      </trkpt>
      <trkpt lat="49.33204" lon="1.27944">
        <ele>19</ele>
        <time>2010-05-24T06:35:25Z</time>
      </trkpt>
      <trkpt lat="49.33214" lon="1.27947">
        <ele>14</ele>
        <time>2010-05-24T06:35:27Z</time>
      </trkpt>
      <trkpt lat="49.33218" lon="1.27964">
        <ele>14</ele>
        <time>2010-05-24T06:35:29Z</time>
      </trkpt>
      <trkpt lat="49.33219" lon="1.27982">
        <ele>14</ele>
        <time>2010-05-24T06:35:31Z</time>
      </trkpt>
      <trkpt lat="49.33222" lon="1.28">
        <ele>14</ele>
        <time>2010-05-24T06:35:33Z</time>
      </trkpt>
      <trkpt lat="49.33225" lon="1.28016">
        <ele>14</ele>
        <time>2010-05-24T06:35:35Z</time>
      </trkpt>
      <trkpt lat="49.33229" lon="1.28032">
        <ele>14</ele>
        <time>2010-05-24T06:35:37Z</time>
      </trkpt>
      <trkpt lat="49.33233" lon="1.28047">
        <ele>14</ele>
        <time>2010-05-24T06:35:39Z</time>
      </trkpt>
      <trkpt lat="49.33237" lon="1.2806">
        <ele>14</ele>
        <time>2010-05-24T06:35:41Z</time>
      </trkpt>
      <trkpt lat="49.33243" lon="1.28076">
        <ele>14</ele>
        <time>2010-05-24T06:35:43Z</time>
      </trkpt>
      <trkpt lat="49.33252" lon="1.28088">
        <ele>4</ele>
        <time>2010-05-24T06:35:45Z</time>
      </trkpt>
      <trkpt lat="49.33262" lon="1.28092">
        <ele>4</ele>
        <time>2010-05-24T06:35:47Z</time>
      </trkpt>
      <trkpt lat="49.33273" lon="1.28089">
        <ele>-1</ele>
        <time>2010-05-24T06:35:49Z</time>
      </trkpt>
      <trkpt lat="49.33284" lon="1.2809">
        <ele>-1</ele>
        <time>2010-05-24T06:35:51Z</time>
      </trkpt>
      <trkpt lat="49.33295" lon="1.28092">
        <ele>-1</ele>
        <time>2010-05-24T06:35:53Z</time>
      </trkpt>
      <trkpt lat="49.33305" lon="1.28096">
        <ele>-1</ele>
        <time>2010-05-24T06:35:55Z</time>
      </trkpt>
      <trkpt lat="49.33314" lon="1.28098">
        <ele>-1</ele>
        <time>2010-05-24T06:35:57Z</time>
      </trkpt>
      <trkpt lat="49.33326" lon="1.28093">
        <ele>-1</ele>
        <time>2010-05-24T06:36:00Z</time>
      </trkpt>
      <trkpt lat="49.33336" lon="1.28082">
        <ele>-1</ele>
        <time>2010-05-24T06:36:03Z</time>
      </trkpt>
      <trkpt lat="49.33344" lon="1.28066">
        <ele>-1</ele>
        <time>2010-05-24T06:36:06Z</time>
      </trkpt>
      <trkpt lat="49.33349" lon="1.2805">
        <ele>-1</ele>
        <time>2010-05-24T06:36:08Z</time>
      </trkpt>
      <trkpt lat="49.33353" lon="1.28034">
        <ele>-1</ele>
        <time>2010-05-24T06:36:10Z</time>
      </trkpt>
      <trkpt lat="49.3336" lon="1.28019">
        <ele>-1</ele>
        <time>2010-05-24T06:36:12Z</time>
      </trkpt>
      <trkpt lat="49.33367" lon="1.28005">
        <ele>-1</ele>
        <time>2010-05-24T06:36:14Z</time>
      </trkpt>
      <trkpt lat="49.33376" lon="1.27994">
        <ele>5</ele>
        <time>2010-05-24T06:36:16Z</time>
      </trkpt>
      <trkpt lat="49.33384" lon="1.27982">
        <ele>5</ele>
        <time>2010-05-24T06:36:18Z</time>
      </trkpt>
      <trkpt lat="49.33393" lon="1.27972">
        <ele>10</ele>
        <time>2010-05-24T06:36:20Z</time>
      </trkpt>
      <trkpt lat="49.33401" lon="1.27961">
        <ele>10</ele>
        <time>2010-05-24T06:36:22Z</time>
      </trkpt>
      <trkpt lat="49.33411" lon="1.27949">
        <ele>10</ele>
        <time>2010-05-24T06:36:24Z</time>
      </trkpt>
      <trkpt lat="49.3342" lon="1.27936">
        <ele>10</ele>
        <time>2010-05-24T06:36:26Z</time>
      </trkpt>
      <trkpt lat="49.3343" lon="1.27925">
        <ele>15</ele>
        <time>2010-05-24T06:36:28Z</time>
      </trkpt>
      <trkpt lat="49.33438" lon="1.27914">
        <ele>15</ele>
        <time>2010-05-24T06:36:30Z</time>
      </trkpt>
      <trkpt lat="49.33446" lon="1.27903">
        <ele>15</ele>
        <time>2010-05-24T06:36:32Z</time>
      </trkpt>
      <trkpt lat="49.33455" lon="1.27892">
        <ele>20</ele>
        <time>2010-05-24T06:36:34Z</time>
      </trkpt>
      <trkpt lat="49.33464" lon="1.27882">
        <ele>20</ele>
        <time>2010-05-24T06:36:36Z</time>
      </trkpt>
      <trkpt lat="49.33472" lon="1.27871">
        <ele>20</ele>
        <time>2010-05-24T06:36:38Z</time>
      </trkpt>
      <trkpt lat="49.3348" lon="1.27861">
        <ele>20</ele>
        <time>2010-05-24T06:36:40Z</time>
      </trkpt>
      <trkpt lat="49.33492" lon="1.27858">
        <ele>20</ele>
        <time>2010-05-24T06:36:43Z</time>
      </trkpt>
      <trkpt lat="49.33497" lon="1.27877">
        <ele>15</ele>
        <time>2010-05-24T06:36:46Z</time>
      </trkpt>
      <trkpt lat="49.33499" lon="1.27893">
        <ele>15</ele>
        <time>2010-05-24T06:36:48Z</time>
      </trkpt>
      <trkpt lat="49.33502" lon="1.27908">
        <ele>15</ele>
        <time>2010-05-24T06:36:50Z</time>
      </trkpt>
      <trkpt lat="49.33504" lon="1.27924">
        <ele>15</ele>
        <time>2010-05-24T06:36:52Z</time>
      </trkpt>
      <trkpt lat="49.33508" lon="1.27939">
        <ele>15</ele>
        <time>2010-05-24T06:36:54Z</time>
      </trkpt>
      <trkpt lat="49.33512" lon="1.27954">
        <ele>15</ele>
        <time>2010-05-24T06:36:56Z</time>
      </trkpt>
      <trkpt lat="49.33516" lon="1.27968">
        <ele>15</ele>
        <time>2010-05-24T06:36:58Z</time>
      </trkpt>
      <trkpt lat="49.33525" lon="1.27977">
        <ele>15</ele>
        <time>2010-05-24T06:37:00Z</time>
      </trkpt>
      <trkpt lat="49.33535" lon="1.27974">
        <ele>15</ele>
        <time>2010-05-24T06:37:02Z</time>
      </trkpt>
      <trkpt lat="49.33546" lon="1.27968">
        <ele>10</ele>
        <time>2010-05-24T06:37:04Z</time>
      </trkpt>
      <trkpt lat="49.33557" lon="1.27962">
        <ele>10</ele>
        <time>2010-05-24T06:37:06Z</time>
      </trkpt>
      <trkpt lat="49.33568" lon="1.27957">
        <ele>10</ele>
        <time>2010-05-24T06:37:08Z</time>
      </trkpt>
      <trkpt lat="49.33579" lon="1.27952">
        <ele>10</ele>
        <time>2010-05-24T06:37:10Z</time>
      </trkpt>
      <trkpt lat="49.33589" lon="1.27946">
        <ele>10</ele>
        <time>2010-05-24T06:37:12Z</time>
      </trkpt>
      <trkpt lat="49.336" lon="1.27943">
        <ele>10</ele>
        <time>2010-05-24T06:37:14Z</time>
      </trkpt>
      <trkpt lat="49.33612" lon="1.27939">
        <ele>10</ele>
        <time>2010-05-24T06:37:16Z</time>
      </trkpt>
      <trkpt lat="49.33623" lon="1.27935">
        <ele>10</ele>
        <time>2010-05-24T06:37:18Z</time>
      </trkpt>
      <trkpt lat="49.33634" lon="1.27929">
        <ele>10</ele>
        <time>2010-05-24T06:37:20Z</time>
      </trkpt>
      <trkpt lat="49.33645" lon="1.27924">
        <ele>10</ele>
        <time>2010-05-24T06:37:22Z</time>
      </trkpt>
      <trkpt lat="49.33656" lon="1.27919">
        <ele>10</ele>
        <time>2010-05-24T06:37:24Z</time>
      </trkpt>
      <trkpt lat="49.33667" lon="1.27914">
        <ele>10</ele>
        <time>2010-05-24T06:37:26Z</time>
      </trkpt>
      <trkpt lat="49.33679" lon="1.27909">
        <ele>10</ele>
        <time>2010-05-24T06:37:28Z</time>
      </trkpt>
      <trkpt lat="49.3369" lon="1.27904">
        <ele>10</ele>
        <time>2010-05-24T06:37:30Z</time>
      </trkpt>
      <trkpt lat="49.33702" lon="1.27897">
        <ele>10</ele>
        <time>2010-05-24T06:37:32Z</time>
      </trkpt>
      <trkpt lat="49.33713" lon="1.27891">
        <ele>10</ele>
        <time>2010-05-24T06:37:34Z</time>
      </trkpt>
      <trkpt lat="49.33724" lon="1.27885">
        <ele>10</ele>
        <time>2010-05-24T06:37:36Z</time>
      </trkpt>
      <trkpt lat="49.33735" lon="1.2788">
        <ele>10</ele>
        <time>2010-05-24T06:37:38Z</time>
      </trkpt>
      <trkpt lat="49.33746" lon="1.27875">
        <ele>10</ele>
        <time>2010-05-24T06:37:40Z</time>
      </trkpt>
      <trkpt lat="49.33756" lon="1.27871">
        <ele>10</ele>
        <time>2010-05-24T06:37:42Z</time>
      </trkpt>
      <trkpt lat="49.33768" lon="1.27873">
        <ele>16</ele>
        <time>2010-05-24T06:37:45Z</time>
      </trkpt>
      <trkpt lat="49.33775" lon="1.27891">
        <ele>16</ele>
        <time>2010-05-24T06:37:48Z</time>
      </trkpt>
      <trkpt lat="49.33777" lon="1.27907">
        <ele>16</ele>
        <time>2010-05-24T06:37:50Z</time>
      </trkpt>
      <trkpt lat="49.33779" lon="1.27922">
        <ele>16</ele>
        <time>2010-05-24T06:37:52Z</time>
      </trkpt>
      <trkpt lat="49.33784" lon="1.27936">
        <ele>16</ele>
        <time>2010-05-24T06:37:54Z</time>
      </trkpt>
      <trkpt lat="49.33788" lon="1.2795">
        <ele>16</ele>
        <time>2010-05-24T06:37:56Z</time>
      </trkpt>
      <trkpt lat="49.33792" lon="1.27963">
        <ele>16</ele>
        <time>2010-05-24T06:37:58Z</time>
      </trkpt>
      <trkpt lat="49.33797" lon="1.27979">
        <ele>16</ele>
        <time>2010-05-24T06:38:00Z</time>
      </trkpt>
      <trkpt lat="49.33802" lon="1.27996">
        <ele>16</ele>
        <time>2010-05-24T06:38:02Z</time>
      </trkpt>
      <trkpt lat="49.33806" lon="1.28016">
        <ele>16</ele>
        <time>2010-05-24T06:38:05Z</time>
      </trkpt>
      <trkpt lat="49.33809" lon="1.28031">
        <ele>21</ele>
        <time>2010-05-24T06:38:07Z</time>
      </trkpt>
      <trkpt lat="49.33814" lon="1.28044">
        <ele>21</ele>
        <time>2010-05-24T06:38:09Z</time>
      </trkpt>
      <trkpt lat="49.33824" lon="1.28065">
        <ele>21</ele>
        <time>2010-05-24T06:38:12Z</time>
      </trkpt>
      <trkpt lat="49.33832" lon="1.28083">
        <ele>21</ele>
        <time>2010-05-24T06:38:14Z</time>
      </trkpt>
      <trkpt lat="49.33836" lon="1.28101">
        <ele>21</ele>
        <time>2010-05-24T06:38:16Z</time>
      </trkpt>
      <trkpt lat="49.33842" lon="1.28129">
        <ele>21</ele>
        <time>2010-05-24T06:38:20Z</time>
      </trkpt>
      <trkpt lat="49.33846" lon="1.28144">
        <ele>21</ele>
        <time>2010-05-24T06:38:22Z</time>
      </trkpt>
      <trkpt lat="49.33852" lon="1.28161">
        <ele>21</ele>
        <time>2010-05-24T06:38:24Z</time>
      </trkpt>
      <trkpt lat="49.33857" lon="1.28176">
        <ele>21</ele>
        <time>2010-05-24T06:38:26Z</time>
      </trkpt>
      <trkpt lat="49.33862" lon="1.28191">
        <ele>21</ele>
        <time>2010-05-24T06:38:28Z</time>
      </trkpt>
      <trkpt lat="49.33868" lon="1.2821">
        <ele>21</ele>
        <time>2010-05-24T06:38:30Z</time>
      </trkpt>
      <trkpt lat="49.33873" lon="1.28226">
        <ele>21</ele>
        <time>2010-05-24T06:38:32Z</time>
      </trkpt>
      <trkpt lat="49.33879" lon="1.28241">
        <ele>21</ele>
        <time>2010-05-24T06:38:34Z</time>
      </trkpt>
      <trkpt lat="49.33883" lon="1.28256">
        <ele>26</ele>
        <time>2010-05-24T06:38:36Z</time>
      </trkpt>
      <trkpt lat="49.33887" lon="1.28274">
        <ele>26</ele>
        <time>2010-05-24T06:38:38Z</time>
      </trkpt>
      <trkpt lat="49.33894" lon="1.28293">
        <ele>26</ele>
        <time>2010-05-24T06:38:40Z</time>
      </trkpt>
      <trkpt lat="49.33899" lon="1.28311">
        <ele>20</ele>
        <time>2010-05-24T06:38:42Z</time>
      </trkpt>
      <trkpt lat="49.33905" lon="1.28329">
        <ele>20</ele>
        <time>2010-05-24T06:38:44Z</time>
      </trkpt>
      <trkpt lat="49.33914" lon="1.28362">
        <ele>20</ele>
        <time>2010-05-24T06:38:48Z</time>
      </trkpt>
      <trkpt lat="49.3392" lon="1.28382">
        <ele>20</ele>
        <time>2010-05-24T06:38:50Z</time>
      </trkpt>
      <trkpt lat="49.33925" lon="1.28397">
        <ele>20</ele>
        <time>2010-05-24T06:38:52Z</time>
      </trkpt>
      <trkpt lat="49.3393" lon="1.28416">
        <ele>26</ele>
        <time>2010-05-24T06:38:54Z</time>
      </trkpt>
      <trkpt lat="49.33936" lon="1.28439">
        <ele>26</ele>
        <time>2010-05-24T06:38:57Z</time>
      </trkpt>
      <trkpt lat="49.33943" lon="1.28456">
        <ele>26</ele>
        <time>2010-05-24T06:38:59Z</time>
      </trkpt>
      <trkpt lat="49.3395" lon="1.28474">
        <ele>26</ele>
        <time>2010-05-24T06:39:01Z</time>
      </trkpt>
      <trkpt lat="49.33955" lon="1.2849">
        <ele>26</ele>
        <time>2010-05-24T06:39:03Z</time>
      </trkpt>
      <trkpt lat="49.3396" lon="1.28508">
        <ele>26</ele>
        <time>2010-05-24T06:39:05Z</time>
      </trkpt>
      <trkpt lat="49.33965" lon="1.28522">
        <ele>26</ele>
        <time>2010-05-24T06:39:07Z</time>
      </trkpt>
      <trkpt lat="49.33974" lon="1.28553">
        <ele>26</ele>
        <time>2010-05-24T06:39:11Z</time>
      </trkpt>
      <trkpt lat="49.33983" lon="1.2858">
        <ele>26</ele>
        <time>2010-05-24T06:39:14Z</time>
      </trkpt>
      <trkpt lat="49.33988" lon="1.28595">
        <ele>17</ele>
        <time>2010-05-24T06:39:16Z</time>
      </trkpt>
      <trkpt lat="49.33994" lon="1.28611">
        <ele>17</ele>
        <time>2010-05-24T06:39:18Z</time>
      </trkpt>
      <trkpt lat="49.34003" lon="1.28643">
        <ele>17</ele>
        <time>2010-05-24T06:39:22Z</time>
      </trkpt>
      <trkpt lat="49.34007" lon="1.28664">
        <ele>17</ele>
        <time>2010-05-24T06:39:24Z</time>
      </trkpt>
      <trkpt lat="49.34011" lon="1.28686">
        <ele>17</ele>
        <time>2010-05-24T06:39:27Z</time>
      </trkpt>
      <trkpt lat="49.34018" lon="1.28707">
        <ele>17</ele>
        <time>2010-05-24T06:39:29Z</time>
      </trkpt>
      <trkpt lat="49.34023" lon="1.28723">
        <ele>17</ele>
        <time>2010-05-24T06:39:31Z</time>
      </trkpt>
      <trkpt lat="49.34029" lon="1.2874">
        <ele>17</ele>
        <time>2010-05-24T06:39:33Z</time>
      </trkpt>
      <trkpt lat="49.34035" lon="1.28766">
        <ele>17</ele>
        <time>2010-05-24T06:39:36Z</time>
      </trkpt>
      <trkpt lat="49.34041" lon="1.28782">
        <ele>17</ele>
        <time>2010-05-24T06:39:38Z</time>
      </trkpt>
      <trkpt lat="49.34044" lon="1.28798">
        <ele>17</ele>
        <time>2010-05-24T06:39:40Z</time>
      </trkpt>
      <trkpt lat="49.3405" lon="1.28817">
        <ele>17</ele>
        <time>2010-05-24T06:39:42Z</time>
      </trkpt>
      <trkpt lat="49.34053" lon="1.28834">
        <ele>10</ele>
        <time>2010-05-24T06:39:44Z</time>
      </trkpt>
      <trkpt lat="49.34058" lon="1.28857">
        <ele>10</ele>
        <time>2010-05-24T06:39:47Z</time>
      </trkpt>
      <trkpt lat="49.34063" lon="1.28872">
        <ele>10</ele>
        <time>2010-05-24T06:39:49Z</time>
      </trkpt>
      <trkpt lat="49.34069" lon="1.28889">
        <ele>10</ele>
        <time>2010-05-24T06:39:51Z</time>
      </trkpt>
      <trkpt lat="49.34072" lon="1.28905">
        <ele>10</ele>
        <time>2010-05-24T06:39:53Z</time>
      </trkpt>
      <trkpt lat="49.34075" lon="1.28924">
        <ele>10</ele>
        <time>2010-05-24T06:39:55Z</time>
      </trkpt>
      <trkpt lat="49.34078" lon="1.2894">
        <ele>10</ele>
        <time>2010-05-24T06:39:57Z</time>
      </trkpt>
      <trkpt lat="49.34083" lon="1.28959">
        <ele>10</ele>
        <time>2010-05-24T06:39:59Z</time>
      </trkpt>
      <trkpt lat="49.34087" lon="1.28979">
        <ele>10</ele>
        <time>2010-05-24T06:40:01Z</time>
      </trkpt>
      <trkpt lat="49.34089" lon="1.28998">
        <ele>18</ele>
        <time>2010-05-24T06:40:03Z</time>
      </trkpt>
      <trkpt lat="49.34092" lon="1.29014">
        <ele>24</ele>
        <time>2010-05-24T06:40:05Z</time>
      </trkpt>
      <trkpt lat="49.34096" lon="1.2903">
        <ele>24</ele>
        <time>2010-05-24T06:40:07Z</time>
      </trkpt>
      <trkpt lat="49.34102" lon="1.29048">
        <ele>24</ele>
        <time>2010-05-24T06:40:09Z</time>
      </trkpt>
      <trkpt lat="49.34105" lon="1.29063">
        <ele>24</ele>
        <time>2010-05-24T06:40:11Z</time>
      </trkpt>
      <trkpt lat="49.34108" lon="1.2908">
        <ele>32</ele>
        <time>2010-05-24T06:40:13Z</time>
      </trkpt>
      <trkpt lat="49.34112" lon="1.29095">
        <ele>32</ele>
        <time>2010-05-24T06:40:15Z</time>
      </trkpt>
      <trkpt lat="49.34118" lon="1.2911">
        <ele>32</ele>
        <time>2010-05-24T06:40:17Z</time>
      </trkpt>
      <trkpt lat="49.34124" lon="1.29127">
        <ele>32</ele>
        <time>2010-05-24T06:40:19Z</time>
      </trkpt>
      <trkpt lat="49.34127" lon="1.29145">
        <ele>32</ele>
        <time>2010-05-24T06:40:21Z</time>
      </trkpt>
      <trkpt lat="49.34133" lon="1.29169">
        <ele>32</ele>
        <time>2010-05-24T06:40:24Z</time>
      </trkpt>
      <trkpt lat="49.34143" lon="1.29187">
        <ele>32</ele>
        <time>2010-05-24T06:40:26Z</time>
      </trkpt>
      <trkpt lat="49.34149" lon="1.29203">
        <ele>32</ele>
        <time>2010-05-24T06:40:28Z</time>
      </trkpt>
      <trkpt lat="49.34158" lon="1.29233">
        <ele>32</ele>
        <time>2010-05-24T06:40:32Z</time>
      </trkpt>
      <trkpt lat="49.34162" lon="1.29251">
        <ele>32</ele>
        <time>2010-05-24T06:40:34Z</time>
      </trkpt>
      <trkpt lat="49.34167" lon="1.2927">
        <ele>32</ele>
        <time>2010-05-24T06:40:36Z</time>
      </trkpt>
      <trkpt lat="49.34173" lon="1.29286">
        <ele>21</ele>
        <time>2010-05-24T06:40:38Z</time>
      </trkpt>
      <trkpt lat="49.34177" lon="1.29301">
        <ele>21</ele>
        <time>2010-05-24T06:40:40Z</time>
      </trkpt>
      <trkpt lat="49.34185" lon="1.29316">
        <ele>15</ele>
        <time>2010-05-24T06:40:42Z</time>
      </trkpt>
      <trkpt lat="49.34192" lon="1.29331">
        <ele>15</ele>
        <time>2010-05-24T06:40:44Z</time>
      </trkpt>
      <trkpt lat="49.34199" lon="1.29344">
        <ele>15</ele>
        <time>2010-05-24T06:40:46Z</time>
      </trkpt>
      <trkpt lat="49.34207" lon="1.29366">
        <ele>15</ele>
        <time>2010-05-24T06:40:49Z</time>
      </trkpt>
      <trkpt lat="49.34214" lon="1.29376">
        <ele>15</ele>
        <time>2010-05-24T06:40:51Z</time>
      </trkpt>
      <trkpt lat="49.34228" lon="1.29398">
        <ele>15</ele>
        <time>2010-05-24T06:40:54Z</time>
      </trkpt>
      <trkpt lat="49.34237" lon="1.29416">
        <ele>15</ele>
        <time>2010-05-24T06:40:56Z</time>
      </trkpt>
      <trkpt lat="49.34245" lon="1.29428">
        <ele>9</ele>
        <time>2010-05-24T06:40:58Z</time>
      </trkpt>
      <trkpt lat="49.34253" lon="1.2944">
        <ele>9</ele>
        <time>2010-05-24T06:41:00Z</time>
      </trkpt>
      <trkpt lat="49.34261" lon="1.29452">
        <ele>9</ele>
        <time>2010-05-24T06:41:02Z</time>
      </trkpt>
      <trkpt lat="49.34268" lon="1.29464">
        <ele>3</ele>
        <time>2010-05-24T06:41:04Z</time>
      </trkpt>
      <trkpt lat="49.34277" lon="1.29475">
        <ele>8</ele>
        <time>2010-05-24T06:41:06Z</time>
      </trkpt>
      <trkpt lat="49.34287" lon="1.2949">
        <ele>15</ele>
        <time>2010-05-24T06:41:09Z</time>
      </trkpt>
      <trkpt lat="49.34299" lon="1.29504">
        <ele>15</ele>
        <time>2010-05-24T06:41:11Z</time>
      </trkpt>
      <trkpt lat="49.34309" lon="1.29516">
        <ele>15</ele>
        <time>2010-05-24T06:41:13Z</time>
      </trkpt>
      <trkpt lat="49.34317" lon="1.29532">
        <ele>15</ele>
        <time>2010-05-24T06:41:15Z</time>
      </trkpt>
      <trkpt lat="49.34326" lon="1.29544">
        <ele>15</ele>
        <time>2010-05-24T06:41:17Z</time>
      </trkpt>
      <trkpt lat="49.34336" lon="1.29557">
        <ele>15</ele>
        <time>2010-05-24T06:41:19Z</time>
      </trkpt>
      <trkpt lat="49.34347" lon="1.29568">
        <ele>15</ele>
        <time>2010-05-24T06:41:21Z</time>
      </trkpt>
      <trkpt lat="49.34356" lon="1.29578">
        <ele>15</ele>
        <time>2010-05-24T06:41:23Z</time>
      </trkpt>
      <trkpt lat="49.34366" lon="1.29589">
        <ele>15</ele>
        <time>2010-05-24T06:41:25Z</time>
      </trkpt>
      <trkpt lat="49.34375" lon="1.296">
        <ele>15</ele>
        <time>2010-05-24T06:41:27Z</time>
      </trkpt>
      <trkpt lat="49.34385" lon="1.2961">
        <ele>15</ele>
        <time>2010-05-24T06:41:29Z</time>
      </trkpt>
      <trkpt lat="49.34394" lon="1.2962">
        <ele>15</ele>
        <time>2010-05-24T06:41:31Z</time>
      </trkpt>
      <trkpt lat="49.34403" lon="1.29631">
        <ele>15</ele>
        <time>2010-05-24T06:41:33Z</time>
      </trkpt>
      <trkpt lat="49.34413" lon="1.29643">
        <ele>15</ele>
        <time>2010-05-24T06:41:35Z</time>
      </trkpt>
      <trkpt lat="49.34422" lon="1.29655">
        <ele>15</ele>
        <time>2010-05-24T06:41:37Z</time>
      </trkpt>
      <trkpt lat="49.34432" lon="1.29664">
        <ele>15</ele>
        <time>2010-05-24T06:41:39Z</time>
      </trkpt>
      <trkpt lat="49.3444" lon="1.29675">
        <ele>15</ele>
        <time>2010-05-24T06:41:41Z</time>
      </trkpt>
      <trkpt lat="49.3445" lon="1.29683">
        <ele>15</ele>
        <time>2010-05-24T06:41:43Z</time>
      </trkpt>
      <trkpt lat="49.34459" lon="1.29692">
        <ele>15</ele>
        <time>2010-05-24T06:41:45Z</time>
      </trkpt>
      <trkpt lat="49.34469" lon="1.29703">
        <ele>15</ele>
        <time>2010-05-24T06:41:47Z</time>
      </trkpt>
      <trkpt lat="49.34479" lon="1.29713">
        <ele>20</ele>
        <time>2010-05-24T06:41:49Z</time>
      </trkpt>
      <trkpt lat="49.34489" lon="1.29725">
        <ele>20</ele>
        <time>2010-05-24T06:41:51Z</time>
      </trkpt>
      <trkpt lat="49.34499" lon="1.29739">
        <ele>20</ele>
        <time>2010-05-24T06:41:53Z</time>
      </trkpt>
      <trkpt lat="49.3451" lon="1.29749">
        <ele>20</ele>
        <time>2010-05-24T06:41:55Z</time>
      </trkpt>
      <trkpt lat="49.34523" lon="1.29759">
        <ele>20</ele>
        <time>2010-05-24T06:41:57Z</time>
      </trkpt>
      <trkpt lat="49.34534" lon="1.29766">
        <ele>20</ele>
        <time>2010-05-24T06:41:59Z</time>
      </trkpt>
      <trkpt lat="49.34543" lon="1.29778">
        <ele>20</ele>
        <time>2010-05-24T06:42:01Z</time>
      </trkpt>
      <trkpt lat="49.3455" lon="1.29793">
        <ele>12</ele>
        <time>2010-05-24T06:42:03Z</time>
      </trkpt>
      <trkpt lat="49.34558" lon="1.29805">
        <ele>12</ele>
        <time>2010-05-24T06:42:05Z</time>
      </trkpt>
      <trkpt lat="49.34565" lon="1.29818">
        <ele>7</ele>
        <time>2010-05-24T06:42:07Z</time>
      </trkpt>
      <trkpt lat="49.34571" lon="1.29831">
        <ele>7</ele>
        <time>2010-05-24T06:42:09Z</time>
      </trkpt>
      <trkpt lat="49.34584" lon="1.29839">
        <ele>7</ele>
        <time>2010-05-24T06:42:11Z</time>
      </trkpt>
      <trkpt lat="49.34594" lon="1.29852">
        <ele>14</ele>
        <time>2010-05-24T06:42:13Z</time>
      </trkpt>
      <trkpt lat="49.34604" lon="1.29864">
        <ele>14</ele>
        <time>2010-05-24T06:42:15Z</time>
      </trkpt>
      <trkpt lat="49.34614" lon="1.29877">
        <ele>14</ele>
        <time>2010-05-24T06:42:17Z</time>
      </trkpt>
      <trkpt lat="49.34624" lon="1.29887">
        <ele>14</ele>
        <time>2010-05-24T06:42:19Z</time>
      </trkpt>
      <trkpt lat="49.34634" lon="1.29897">
        <ele>14</ele>
        <time>2010-05-24T06:42:21Z</time>
      </trkpt>
      <trkpt lat="49.34643" lon="1.29908">
        <ele>19</ele>
        <time>2010-05-24T06:42:23Z</time>
      </trkpt>
      <trkpt lat="49.3465" lon="1.2992">
        <ele>19</ele>
        <time>2010-05-24T06:42:25Z</time>
      </trkpt>
      <trkpt lat="49.34662" lon="1.29928">
        <ele>19</ele>
        <time>2010-05-24T06:42:27Z</time>
      </trkpt>
      <trkpt lat="49.34672" lon="1.29939">
        <ele>19</ele>
        <time>2010-05-24T06:42:29Z</time>
      </trkpt>
      <trkpt lat="49.3468" lon="1.29953">
        <ele>19</ele>
        <time>2010-05-24T06:42:31Z</time>
      </trkpt>
      <trkpt lat="49.34689" lon="1.29967">
        <ele>19</ele>
        <time>2010-05-24T06:42:33Z</time>
      </trkpt>
      <trkpt lat="49.34699" lon="1.29977">
        <ele>19</ele>
        <time>2010-05-24T06:42:35Z</time>
      </trkpt>
      <trkpt lat="49.34706" lon="1.29992">
        <ele>19</ele>
        <time>2010-05-24T06:42:37Z</time>
      </trkpt>
      <trkpt lat="49.34712" lon="1.30008">
        <ele>19</ele>
        <time>2010-05-24T06:42:39Z</time>
      </trkpt>
      <trkpt lat="49.3472" lon="1.3002">
        <ele>19</ele>
        <time>2010-05-24T06:42:41Z</time>
      </trkpt>
      <trkpt lat="49.34727" lon="1.30034">
        <ele>19</ele>
        <time>2010-05-24T06:42:43Z</time>
      </trkpt>
      <trkpt lat="49.34733" lon="1.30048">
        <ele>19</ele>
        <time>2010-05-24T06:42:45Z</time>
      </trkpt>
      <trkpt lat="49.3474" lon="1.30063">
        <ele>19</ele>
        <time>2010-05-24T06:42:47Z</time>
      </trkpt>
      <trkpt lat="49.34747" lon="1.30076">
        <ele>14</ele>
        <time>2010-05-24T06:42:49Z</time>
      </trkpt>
      <trkpt lat="49.34753" lon="1.3009">
        <ele>14</ele>
        <time>2010-05-24T06:42:51Z</time>
      </trkpt>
      <trkpt lat="49.34758" lon="1.30105">
        <ele>14</ele>
        <time>2010-05-24T06:42:53Z</time>
      </trkpt>
      <trkpt lat="49.34765" lon="1.30118">
        <ele>14</ele>
        <time>2010-05-24T06:42:55Z</time>
      </trkpt>
      <trkpt lat="49.3477" lon="1.30133">
        <ele>14</ele>
        <time>2010-05-24T06:42:57Z</time>
      </trkpt>
      <trkpt lat="49.34775" lon="1.30149">
        <ele>14</ele>
        <time>2010-05-24T06:42:59Z</time>
      </trkpt>
      <trkpt lat="49.34781" lon="1.30164">
        <ele>14</ele>
        <time>2010-05-24T06:43:01Z</time>
      </trkpt>
      <trkpt lat="49.34786" lon="1.30179">
        <ele>14</ele>
        <time>2010-05-24T06:43:03Z</time>
      </trkpt>
      <trkpt lat="49.34792" lon="1.30194">
        <ele>14</ele>
        <time>2010-05-24T06:43:05Z</time>
      </trkpt>
      <trkpt lat="49.34799" lon="1.30209">
        <ele>14</ele>
        <time>2010-05-24T06:43:07Z</time>
      </trkpt>
      <trkpt lat="49.34806" lon="1.30223">
        <ele>14</ele>
        <time>2010-05-24T06:43:09Z</time>
      </trkpt>
      <trkpt lat="49.34812" lon="1.30239">
        <ele>14</ele>
        <time>2010-05-24T06:43:11Z</time>
      </trkpt>
      <trkpt lat="49.34818" lon="1.30255">
        <ele>14</ele>
        <time>2010-05-24T06:43:13Z</time>
      </trkpt>
      <trkpt lat="49.34823" lon="1.30271">
        <ele>14</ele>
        <time>2010-05-24T06:43:15Z</time>
      </trkpt>
      <trkpt lat="49.34829" lon="1.30285">
        <ele>14</ele>
        <time>2010-05-24T06:43:17Z</time>
      </trkpt>
      <trkpt lat="49.34835" lon="1.303">
        <ele>14</ele>
        <time>2010-05-24T06:43:19Z</time>
      </trkpt>
      <trkpt lat="49.34842" lon="1.30314">
        <ele>14</ele>
        <time>2010-05-24T06:43:21Z</time>
      </trkpt>
      <trkpt lat="49.34847" lon="1.3033">
        <ele>19</ele>
        <time>2010-05-24T06:43:23Z</time>
      </trkpt>
      <trkpt lat="49.34852" lon="1.30346">
        <ele>19</ele>
        <time>2010-05-24T06:43:25Z</time>
      </trkpt>
      <trkpt lat="49.34858" lon="1.30361">
        <ele>19</ele>
        <time>2010-05-24T06:43:27Z</time>
      </trkpt>
      <trkpt lat="49.34864" lon="1.30376">
        <ele>19</ele>
        <time>2010-05-24T06:43:29Z</time>
      </trkpt>
      <trkpt lat="49.34871" lon="1.3039">
        <ele>19</ele>
        <time>2010-05-24T06:43:31Z</time>
      </trkpt>
      <trkpt lat="49.34875" lon="1.30405">
        <ele>19</ele>
        <time>2010-05-24T06:43:33Z</time>
      </trkpt>
      <trkpt lat="49.34881" lon="1.30419">
        <ele>19</ele>
        <time>2010-05-24T06:43:35Z</time>
      </trkpt>
      <trkpt lat="49.34886" lon="1.30433">
        <ele>19</ele>
        <time>2010-05-24T06:43:37Z</time>
      </trkpt>
      <trkpt lat="49.34893" lon="1.30443">
        <ele>19</ele>
        <time>2010-05-24T06:43:39Z</time>
      </trkpt>
      <trkpt lat="49.34898" lon="1.30457">
        <ele>19</ele>
        <time>2010-05-24T06:43:41Z</time>
      </trkpt>
      <trkpt lat="49.34903" lon="1.30472">
        <ele>19</ele>
        <time>2010-05-24T06:43:43Z</time>
      </trkpt>
      <trkpt lat="49.34908" lon="1.30489">
        <ele>14</ele>
        <time>2010-05-24T06:43:45Z</time>
      </trkpt>
      <trkpt lat="49.34912" lon="1.30505">
        <ele>14</ele>
        <time>2010-05-24T06:43:47Z</time>
      </trkpt>
      <trkpt lat="49.34918" lon="1.30519">
        <ele>14</ele>
        <time>2010-05-24T06:43:49Z</time>
      </trkpt>
      <trkpt lat="49.34923" lon="1.30533">
        <ele>14</ele>
        <time>2010-05-24T06:43:51Z</time>
      </trkpt>
      <trkpt lat="49.34927" lon="1.30548">
        <ele>14</ele>
        <time>2010-05-24T06:43:53Z</time>
      </trkpt>
      <trkpt lat="49.34932" lon="1.30562">
        <ele>21</ele>
        <time>2010-05-24T06:43:55Z</time>
      </trkpt>
      <trkpt lat="49.34936" lon="1.30576">
        <ele>21</ele>
        <time>2010-05-24T06:43:57Z</time>
      </trkpt>
      <trkpt lat="49.34939" lon="1.3059">
        <ele>21</ele>
        <time>2010-05-24T06:43:59Z</time>
      </trkpt>
      <trkpt lat="49.34943" lon="1.30603">
        <ele>28</ele>
        <time>2010-05-24T06:44:01Z</time>
      </trkpt>
      <trkpt lat="49.34947" lon="1.30618">
        <ele>28</ele>
        <time>2010-05-24T06:44:03Z</time>
      </trkpt>
      <trkpt lat="49.34953" lon="1.30636">
        <ele>28</ele>
        <time>2010-05-24T06:44:06Z</time>
      </trkpt>
      <trkpt lat="49.34959" lon="1.3065">
        <ele>28</ele>
        <time>2010-05-24T06:44:09Z</time>
      </trkpt>
      <trkpt lat="49.34965" lon="1.30663">
        <ele>28</ele>
        <time>2010-05-24T06:44:12Z</time>
      </trkpt>
      <trkpt lat="49.3497" lon="1.30675">
        <ele>20</ele>
        <time>2010-05-24T06:44:16Z</time>
      </trkpt>
      <trkpt lat="49.34973" lon="1.30689">
        <ele>20</ele>
        <time>2010-05-24T06:44:22Z</time>
      </trkpt>
      <trkpt lat="49.3497" lon="1.30704">
        <ele>20</ele>
        <time>2010-05-24T06:44:28Z</time>
      </trkpt>
      <trkpt lat="49.34962" lon="1.30713">
        <ele>20</ele>
        <time>2010-05-24T06:44:32Z</time>
      </trkpt>
      <trkpt lat="49.34953" lon="1.30718">
        <ele>33</ele>
        <time>2010-05-24T06:44:53Z</time>
      </trkpt>
      <trkpt lat="49.34942" lon="1.30726">
        <ele>21</ele>
        <time>2010-05-24T06:47:40Z</time>
      </trkpt>
      <trkpt lat="49.3493" lon="1.30733">
        <ele>21</ele>
        <time>2010-05-24T06:47:43Z</time>
      </trkpt>
      <trkpt lat="49.34922" lon="1.30738">
        <ele>21</ele>
        <time>2010-05-24T06:47:45Z</time>
      </trkpt>
      <trkpt lat="49.34912" lon="1.30744">
        <ele>21</ele>
        <time>2010-05-24T06:47:47Z</time>
      </trkpt>
      <trkpt lat="49.34903" lon="1.30752">
        <ele>21</ele>
        <time>2010-05-24T06:47:49Z</time>
      </trkpt>
      <trkpt lat="49.34893" lon="1.30759">
        <ele>21</ele>
        <time>2010-05-24T06:47:51Z</time>
      </trkpt>
      <trkpt lat="49.34882" lon="1.30766">
        <ele>21</ele>
        <time>2010-05-24T06:47:53Z</time>
      </trkpt>
      <trkpt lat="49.34872" lon="1.30775">
        <ele>21</ele>
        <time>2010-05-24T06:47:55Z</time>
      </trkpt>
      <trkpt lat="49.34861" lon="1.30783">
        <ele>21</ele>
        <time>2010-05-24T06:47:57Z</time>
      </trkpt>
      <trkpt lat="49.34851" lon="1.30791">
        <ele>21</ele>
        <time>2010-05-24T06:47:59Z</time>
      </trkpt>
      <trkpt lat="49.3484" lon="1.308">
        <ele>21</ele>
        <time>2010-05-24T06:48:01Z</time>
      </trkpt>
      <trkpt lat="49.3483" lon="1.30807">
        <ele>21</ele>
        <time>2010-05-24T06:48:03Z</time>
      </trkpt>
      <trkpt lat="49.34819" lon="1.30814">
        <ele>21</ele>
        <time>2010-05-24T06:48:05Z</time>
      </trkpt>
      <trkpt lat="49.34807" lon="1.30813">
        <ele>21</ele>
        <time>2010-05-24T06:48:07Z</time>
      </trkpt>
      <trkpt lat="49.34797" lon="1.30802">
        <ele>14</ele>
        <time>2010-05-24T06:48:09Z</time>
      </trkpt>
      <trkpt lat="49.34787" lon="1.30787">
        <ele>14</ele>
        <time>2010-05-24T06:48:11Z</time>
      </trkpt>
      <trkpt lat="49.34779" lon="1.30771">
        <ele>14</ele>
        <time>2010-05-24T06:48:13Z</time>
      </trkpt>
      <trkpt lat="49.3477" lon="1.30757">
        <ele>14</ele>
        <time>2010-05-24T06:48:15Z</time>
      </trkpt>
      <trkpt lat="49.34762" lon="1.30743">
        <ele>14</ele>
        <time>2010-05-24T06:48:17Z</time>
      </trkpt>
      <trkpt lat="49.34754" lon="1.30727">
        <ele>14</ele>
        <time>2010-05-24T06:48:19Z</time>
      </trkpt>
      <trkpt lat="49.34745" lon="1.30711">
        <ele>14</ele>
        <time>2010-05-24T06:48:21Z</time>
      </trkpt>
      <trkpt lat="49.34737" lon="1.30696">
        <ele>14</ele>
        <time>2010-05-24T06:48:23Z</time>
      </trkpt>
      <trkpt lat="49.34729" lon="1.30681">
        <ele>14</ele>
        <time>2010-05-24T06:48:25Z</time>
      </trkpt>
      <trkpt lat="49.3472" lon="1.30665">
        <ele>14</ele>
        <time>2010-05-24T06:48:27Z</time>
      </trkpt>
      <trkpt lat="49.34712" lon="1.30651">
        <ele>14</ele>
        <time>2010-05-24T06:48:29Z</time>
      </trkpt>
      <trkpt lat="49.34704" lon="1.30637">
        <ele>14</ele>
        <time>2010-05-24T06:48:31Z</time>
      </trkpt>
      <trkpt lat="49.34695" lon="1.30622">
        <ele>14</ele>
        <time>2010-05-24T06:48:33Z</time>
      </trkpt>
      <trkpt lat="49.34687" lon="1.30609">
        <ele>19</ele>
        <time>2010-05-24T06:48:35Z</time>
      </trkpt>
      <trkpt lat="49.34679" lon="1.30594">
        <ele>19</ele>
        <time>2010-05-24T06:48:37Z</time>
      </trkpt>
      <trkpt lat="49.3467" lon="1.30578">
        <ele>19</ele>
        <time>2010-05-24T06:48:39Z</time>
      </trkpt>
      <trkpt lat="49.34662" lon="1.30563">
        <ele>19</ele>
        <time>2010-05-24T06:48:41Z</time>
      </trkpt>
      <trkpt lat="49.34653" lon="1.30548">
        <ele>19</ele>
        <time>2010-05-24T06:48:43Z</time>
      </trkpt>
      <trkpt lat="49.34645" lon="1.30532">
        <ele>19</ele>
        <time>2010-05-24T06:48:45Z</time>
      </trkpt>
      <trkpt lat="49.34636" lon="1.30516">
        <ele>19</ele>
        <time>2010-05-24T06:48:47Z</time>
      </trkpt>
      <trkpt lat="49.34628" lon="1.30502">
        <ele>19</ele>
        <time>2010-05-24T06:48:49Z</time>
      </trkpt>
      <trkpt lat="49.3462" lon="1.30487">
        <ele>19</ele>
        <time>2010-05-24T06:48:51Z</time>
      </trkpt>
      <trkpt lat="49.34611" lon="1.30472">
        <ele>19</ele>
        <time>2010-05-24T06:48:53Z</time>
      </trkpt>
      <trkpt lat="49.34603" lon="1.30457">
        <ele>19</ele>
        <time>2010-05-24T06:48:55Z</time>
      </trkpt>
      <trkpt lat="49.34594" lon="1.30442">
        <ele>19</ele>
        <time>2010-05-24T06:48:57Z</time>
      </trkpt>
      <trkpt lat="49.34585" lon="1.30426">
        <ele>19</ele>
        <time>2010-05-24T06:48:59Z</time>
      </trkpt>
      <trkpt lat="49.34577" lon="1.30409">
        <ele>19</ele>
        <time>2010-05-24T06:49:01Z</time>
      </trkpt>
      <trkpt lat="49.34568" lon="1.30394">
        <ele>19</ele>
        <time>2010-05-24T06:49:03Z</time>
      </trkpt>
      <trkpt lat="49.34559" lon="1.30379">
        <ele>19</ele>
        <time>2010-05-24T06:49:05Z</time>
      </trkpt>
      <trkpt lat="49.3455" lon="1.30363">
        <ele>19</ele>
        <time>2010-05-24T06:49:07Z</time>
      </trkpt>
      <trkpt lat="49.34541" lon="1.30347">
        <ele>19</ele>
        <time>2010-05-24T06:49:09Z</time>
      </trkpt>
      <trkpt lat="49.34533" lon="1.30331">
        <ele>19</ele>
        <time>2010-05-24T06:49:11Z</time>
      </trkpt>
      <trkpt lat="49.34523" lon="1.30316">
        <ele>19</ele>
        <time>2010-05-24T06:49:13Z</time>
      </trkpt>
      <trkpt lat="49.34514" lon="1.303">
        <ele>19</ele>
        <time>2010-05-24T06:49:15Z</time>
      </trkpt>
      <trkpt lat="49.34506" lon="1.30284">
        <ele>19</ele>
        <time>2010-05-24T06:49:17Z</time>
      </trkpt>
      <trkpt lat="49.34496" lon="1.30267">
        <ele>19</ele>
        <time>2010-05-24T06:49:19Z</time>
      </trkpt>
      <trkpt lat="49.34488" lon="1.30251">
        <ele>19</ele>
        <time>2010-05-24T06:49:21Z</time>
      </trkpt>
      <trkpt lat="49.34479" lon="1.30236">
        <ele>19</ele>
        <time>2010-05-24T06:49:23Z</time>
      </trkpt>
      <trkpt lat="49.3447" lon="1.3022">
        <ele>19</ele>
        <time>2010-05-24T06:49:25Z</time>
      </trkpt>
      <trkpt lat="49.34462" lon="1.30205">
        <ele>19</ele>
        <time>2010-05-24T06:49:27Z</time>
      </trkpt>
      <trkpt lat="49.34453" lon="1.30189">
        <ele>19</ele>
        <time>2010-05-24T06:49:29Z</time>
      </trkpt>
      <trkpt lat="49.34444" lon="1.30173">
        <ele>19</ele>
        <time>2010-05-24T06:49:31Z</time>
      </trkpt>
      <trkpt lat="49.34435" lon="1.30157">
        <ele>19</ele>
        <time>2010-05-24T06:49:33Z</time>
      </trkpt>
      <trkpt lat="49.34426" lon="1.30142">
        <ele>19</ele>
        <time>2010-05-24T06:49:35Z</time>
      </trkpt>
      <trkpt lat="49.34417" lon="1.30126">
        <ele>19</ele>
        <time>2010-05-24T06:49:37Z</time>
      </trkpt>
      <trkpt lat="49.34408" lon="1.30111">
        <ele>19</ele>
        <time>2010-05-24T06:49:39Z</time>
      </trkpt>
      <trkpt lat="49.34398" lon="1.30095">
        <ele>19</ele>
        <time>2010-05-24T06:49:41Z</time>
      </trkpt>
      <trkpt lat="49.3439" lon="1.3008">
        <ele>19</ele>
        <time>2010-05-24T06:49:43Z</time>
      </trkpt>
      <trkpt lat="49.34381" lon="1.30064">
        <ele>19</ele>
        <time>2010-05-24T06:49:45Z</time>
      </trkpt>
      <trkpt lat="49.34372" lon="1.30047">
        <ele>14</ele>
        <time>2010-05-24T06:49:47Z</time>
      </trkpt>
      <trkpt lat="49.34363" lon="1.30031">
        <ele>14</ele>
        <time>2010-05-24T06:49:49Z</time>
      </trkpt>
      <trkpt lat="49.34354" lon="1.30015">
        <ele>14</ele>
        <time>2010-05-24T06:49:51Z</time>
      </trkpt>
      <trkpt lat="49.34345" lon="1.3">
        <ele>14</ele>
        <time>2010-05-24T06:49:53Z</time>
      </trkpt>
      <trkpt lat="49.34336" lon="1.29984">
        <ele>14</ele>
        <time>2010-05-24T06:49:55Z</time>
      </trkpt>
      <trkpt lat="49.34327" lon="1.29971">
        <ele>14</ele>
        <time>2010-05-24T06:49:57Z</time>
      </trkpt>
      <trkpt lat="49.34316" lon="1.29964">
        <ele>14</ele>
        <time>2010-05-24T06:49:59Z</time>
      </trkpt>
      <trkpt lat="49.34304" lon="1.29974">
        <ele>14</ele>
        <time>2010-05-24T06:50:01Z</time>
      </trkpt>
      <trkpt lat="49.34294" lon="1.29987">
        <ele>14</ele>
        <time>2010-05-24T06:50:03Z</time>
      </trkpt>
      <trkpt lat="49.34284" lon="1.3">
        <ele>14</ele>
        <time>2010-05-24T06:50:05Z</time>
      </trkpt>
      <trkpt lat="49.34274" lon="1.30012">
        <ele>14</ele>
        <time>2010-05-24T06:50:07Z</time>
      </trkpt>
      <trkpt lat="49.34265" lon="1.30026">
        <ele>14</ele>
        <time>2010-05-24T06:50:09Z</time>
      </trkpt>
      <trkpt lat="49.34256" lon="1.30038">
        <ele>14</ele>
        <time>2010-05-24T06:50:11Z</time>
      </trkpt>
      <trkpt lat="49.34246" lon="1.30051">
        <ele>14</ele>
        <time>2010-05-24T06:50:13Z</time>
      </trkpt>
      <trkpt lat="49.34237" lon="1.30064">
        <ele>14</ele>
        <time>2010-05-24T06:50:15Z</time>
      </trkpt>
      <trkpt lat="49.34227" lon="1.30077">
        <ele>14</ele>
        <time>2010-05-24T06:50:17Z</time>
      </trkpt>
      <trkpt lat="49.34218" lon="1.3009">
        <ele>14</ele>
        <time>2010-05-24T06:50:19Z</time>
      </trkpt>
      <trkpt lat="49.34209" lon="1.30104">
        <ele>14</ele>
        <time>2010-05-24T06:50:21Z</time>
      </trkpt>
      <trkpt lat="49.34199" lon="1.30117">
        <ele>14</ele>
        <time>2010-05-24T06:50:23Z</time>
      </trkpt>
      <trkpt lat="49.34189" lon="1.30129">
        <ele>14</ele>
        <time>2010-05-24T06:50:25Z</time>
      </trkpt>
      <trkpt lat="49.3418" lon="1.30142">
        <ele>14</ele>
        <time>2010-05-24T06:50:27Z</time>
      </trkpt>
      <trkpt lat="49.3417" lon="1.30155">
        <ele>14</ele>
        <time>2010-05-24T06:50:29Z</time>
      </trkpt>
      <trkpt lat="49.3416" lon="1.30166">
        <ele>14</ele>
        <time>2010-05-24T06:50:31Z</time>
      </trkpt>
      <trkpt lat="49.34148" lon="1.30172">
        <ele>14</ele>
        <time>2010-05-24T06:50:33Z</time>
      </trkpt>
      <trkpt lat="49.34137" lon="1.30174">
        <ele>14</ele>
        <time>2010-05-24T06:50:35Z</time>
      </trkpt>
      <trkpt lat="49.34125" lon="1.30172">
        <ele>14</ele>
        <time>2010-05-24T06:50:37Z</time>
      </trkpt>
      <trkpt lat="49.34114" lon="1.30169">
        <ele>14</ele>
        <time>2010-05-24T06:50:39Z</time>
      </trkpt>
      <trkpt lat="49.34103" lon="1.30167">
        <ele>14</ele>
        <time>2010-05-24T06:50:41Z</time>
      </trkpt>
      <trkpt lat="49.34092" lon="1.30167">
        <ele>14</ele>
        <time>2010-05-24T06:50:43Z</time>
      </trkpt>
      <trkpt lat="49.3408" lon="1.30172">
        <ele>14</ele>
        <time>2010-05-24T06:50:45Z</time>
      </trkpt>
      <trkpt lat="49.34068" lon="1.30177">
        <ele>14</ele>
        <time>2010-05-24T06:50:47Z</time>
      </trkpt>
      <trkpt lat="49.34056" lon="1.30177">
        <ele>14</ele>
        <time>2010-05-24T06:50:49Z</time>
      </trkpt>
      <trkpt lat="49.34045" lon="1.30169">
        <ele>14</ele>
        <time>2010-05-24T06:50:51Z</time>
      </trkpt>
      <trkpt lat="49.34035" lon="1.3016">
        <ele>19</ele>
        <time>2010-05-24T06:50:53Z</time>
      </trkpt>
      <trkpt lat="49.34024" lon="1.30152">
        <ele>19</ele>
        <time>2010-05-24T06:50:55Z</time>
      </trkpt>
      <trkpt lat="49.34014" lon="1.30143">
        <ele>19</ele>
        <time>2010-05-24T06:50:57Z</time>
      </trkpt>
      <trkpt lat="49.34003" lon="1.30135">
        <ele>19</ele>
        <time>2010-05-24T06:50:59Z</time>
      </trkpt>
      <trkpt lat="49.33993" lon="1.30128">
        <ele>19</ele>
        <time>2010-05-24T06:51:01Z</time>
      </trkpt>
      <trkpt lat="49.33984" lon="1.30119">
        <ele>19</ele>
        <time>2010-05-24T06:51:03Z</time>
      </trkpt>
      <trkpt lat="49.33976" lon="1.30107">
        <ele>19</ele>
        <time>2010-05-24T06:51:05Z</time>
      </trkpt>
      <trkpt lat="49.33971" lon="1.30092">
        <ele>19</ele>
        <time>2010-05-24T06:51:07Z</time>
      </trkpt>
      <trkpt lat="49.33966" lon="1.30077">
        <ele>19</ele>
        <time>2010-05-24T06:51:09Z</time>
      </trkpt>
      <trkpt lat="49.3396" lon="1.30063">
        <ele>19</ele>
        <time>2010-05-24T06:51:11Z</time>
      </trkpt>
      <trkpt lat="49.33955" lon="1.30047">
        <ele>19</ele>
        <time>2010-05-24T06:51:13Z</time>
      </trkpt>
      <trkpt lat="49.33949" lon="1.30033">
        <ele>19</ele>
        <time>2010-05-24T06:51:15Z</time>
      </trkpt>
      <trkpt lat="49.33943" lon="1.30019">
        <ele>19</ele>
        <time>2010-05-24T06:51:17Z</time>
      </trkpt>
      <trkpt lat="49.33937" lon="1.30004">
        <ele>19</ele>
        <time>2010-05-24T06:51:19Z</time>
      </trkpt>
      <trkpt lat="49.33932" lon="1.29992">
        <ele>19</ele>
        <time>2010-05-24T06:51:21Z</time>
      </trkpt>
      <trkpt lat="49.33923" lon="1.29978">
        <ele>19</ele>
        <time>2010-05-24T06:51:24Z</time>
      </trkpt>
      <trkpt lat="49.33914" lon="1.29967">
        <ele>19</ele>
        <time>2010-05-24T06:51:27Z</time>
      </trkpt>
      <trkpt lat="49.33906" lon="1.2996">
        <ele>19</ele>
        <time>2010-05-24T06:51:30Z</time>
      </trkpt>
      <trkpt lat="49.33896" lon="1.29959">
        <ele>19</ele>
        <time>2010-05-24T06:51:33Z</time>
      </trkpt>
      <trkpt lat="49.33886" lon="1.29958">
        <ele>19</ele>
        <time>2010-05-24T06:51:36Z</time>
      </trkpt>
      <trkpt lat="49.33876" lon="1.29958">
        <ele>19</ele>
        <time>2010-05-24T06:51:40Z</time>
      </trkpt>
      <trkpt lat="49.33866" lon="1.29958">
        <ele>19</ele>
        <time>2010-05-24T06:52:41Z</time>
      </trkpt>
      <trkpt lat="49.33859" lon="1.29967">
        <ele>26</ele>
        <time>2010-05-24T06:52:47Z</time>
      </trkpt>
      <trkpt lat="49.33863" lon="1.29982">
        <ele>26</ele>
        <time>2010-05-24T06:52:51Z</time>
      </trkpt>
      <trkpt lat="49.33857" lon="1.29993">
        <ele>26</ele>
        <time>2010-05-24T06:52:54Z</time>
      </trkpt>
      <trkpt lat="49.3385" lon="1.30002">
        <ele>26</ele>
        <time>2010-05-24T06:52:57Z</time>
      </trkpt>
      <trkpt lat="49.33842" lon="1.30015">
        <ele>26</ele>
        <time>2010-05-24T06:53:00Z</time>
      </trkpt>
      <trkpt lat="49.33835" lon="1.30028">
        <ele>26</ele>
        <time>2010-05-24T06:53:03Z</time>
      </trkpt>
      <trkpt lat="49.33829" lon="1.30039">
        <ele>26</ele>
        <time>2010-05-24T06:53:06Z</time>
      </trkpt>
      <trkpt lat="49.33823" lon="1.30052">
        <ele>26</ele>
        <time>2010-05-24T06:53:09Z</time>
      </trkpt>
      <trkpt lat="49.33816" lon="1.30067">
        <ele>26</ele>
        <time>2010-05-24T06:53:12Z</time>
      </trkpt>
      <trkpt lat="49.33812" lon="1.30081">
        <ele>26</ele>
        <time>2010-05-24T06:53:14Z</time>
      </trkpt>
      <trkpt lat="49.33806" lon="1.30098">
        <ele>26</ele>
        <time>2010-05-24T06:53:17Z</time>
      </trkpt>
      <trkpt lat="49.33799" lon="1.30114">
        <ele>26</ele>
        <time>2010-05-24T06:53:21Z</time>
      </trkpt>
      <trkpt lat="49.33792" lon="1.30127">
        <ele>26</ele>
        <time>2010-05-24T06:53:24Z</time>
      </trkpt>
      <trkpt lat="49.33785" lon="1.30141">
        <ele>26</ele>
        <time>2010-05-24T06:53:27Z</time>
      </trkpt>
      <trkpt lat="49.33777" lon="1.30152">
        <ele>26</ele>
        <time>2010-05-24T06:53:30Z</time>
      </trkpt>
      <trkpt lat="49.3377" lon="1.30162">
        <ele>26</ele>
        <time>2010-05-24T06:53:33Z</time>
      </trkpt>
      <trkpt lat="49.33761" lon="1.30173">
        <ele>31</ele>
        <time>2010-05-24T06:53:36Z</time>
      </trkpt>
      <trkpt lat="49.33753" lon="1.30183">
        <ele>31</ele>
        <time>2010-05-24T06:53:39Z</time>
      </trkpt>
      <trkpt lat="49.33745" lon="1.30192">
        <ele>31</ele>
        <time>2010-05-24T06:53:42Z</time>
      </trkpt>
      <trkpt lat="49.33737" lon="1.302">
        <ele>31</ele>
        <time>2010-05-24T06:53:45Z</time>
      </trkpt>
      <trkpt lat="49.33729" lon="1.30207">
        <ele>31</ele>
        <time>2010-05-24T06:53:48Z</time>
      </trkpt>
      <trkpt lat="49.3372" lon="1.30215">
        <ele>31</ele>
        <time>2010-05-24T06:53:52Z</time>
      </trkpt>
      <trkpt lat="49.33712" lon="1.30224">
        <ele>31</ele>
        <time>2010-05-24T06:53:56Z</time>
      </trkpt>
      <trkpt lat="49.33704" lon="1.30232">
        <ele>31</ele>
        <time>2010-05-24T06:54:00Z</time>
      </trkpt>
      <trkpt lat="49.33698" lon="1.30242">
        <ele>31</ele>
        <time>2010-05-24T06:54:43Z</time>
      </trkpt>
      <trkpt lat="49.3369" lon="1.30253">
        <ele>31</ele>
        <time>2010-05-24T06:54:47Z</time>
      </trkpt>
      <trkpt lat="49.33683" lon="1.30265">
        <ele>31</ele>
        <time>2010-05-24T06:54:51Z</time>
      </trkpt>
      <trkpt lat="49.33677" lon="1.30277">
        <ele>36</ele>
        <time>2010-05-24T06:54:55Z</time>
      </trkpt>
      <trkpt lat="49.3367" lon="1.30291">
        <ele>36</ele>
        <time>2010-05-24T06:54:59Z</time>
      </trkpt>
      <trkpt lat="49.33663" lon="1.30304">
        <ele>36</ele>
        <time>2010-05-24T06:55:03Z</time>
      </trkpt>
      <trkpt lat="49.33657" lon="1.30319">
        <ele>36</ele>
        <time>2010-05-24T06:55:07Z</time>
      </trkpt>
      <trkpt lat="49.33652" lon="1.30331">
        <ele>36</ele>
        <time>2010-05-24T06:55:12Z</time>
      </trkpt>
      <trkpt lat="49.33645" lon="1.30346">
        <ele>36</ele>
        <time>2010-05-24T06:56:23Z</time>
      </trkpt>
      <trkpt lat="49.33648" lon="1.30363">
        <ele>36</ele>
        <time>2010-05-24T06:56:27Z</time>
      </trkpt>
      <trkpt lat="49.3365" lon="1.30376">
        <ele>36</ele>
        <time>2010-05-24T06:56:30Z</time>
      </trkpt>
      <trkpt lat="49.33653" lon="1.30394">
        <ele>36</ele>
        <time>2010-05-24T06:56:34Z</time>
      </trkpt>
      <trkpt lat="49.33656" lon="1.30412">
        <ele>36</ele>
        <time>2010-05-24T06:56:38Z</time>
      </trkpt>
      <trkpt lat="49.33657" lon="1.30429">
        <ele>42</ele>
        <time>2010-05-24T06:56:42Z</time>
      </trkpt>
      <trkpt lat="49.33658" lon="1.30445">
        <ele>42</ele>
        <time>2010-05-24T06:56:46Z</time>
      </trkpt>
      <trkpt lat="49.33658" lon="1.30463">
        <ele>42</ele>
        <time>2010-05-24T06:56:50Z</time>
      </trkpt>
      <trkpt lat="49.33658" lon="1.30479">
        <ele>42</ele>
        <time>2010-05-24T06:56:54Z</time>
      </trkpt>
      <trkpt lat="49.33657" lon="1.30497">
        <ele>47</ele>
        <time>2010-05-24T06:56:58Z</time>
      </trkpt>
      <trkpt lat="49.33656" lon="1.30514">
        <ele>47</ele>
        <time>2010-05-24T06:57:02Z</time>
      </trkpt>
      <trkpt lat="49.33654" lon="1.30529">
        <ele>47</ele>
        <time>2010-05-24T06:57:06Z</time>
      </trkpt>
      <trkpt lat="49.33652" lon="1.30546">
        <ele>47</ele>
        <time>2010-05-24T06:57:10Z</time>
      </trkpt>
      <trkpt lat="49.33649" lon="1.30562">
        <ele>47</ele>
        <time>2010-05-24T06:57:14Z</time>
      </trkpt>
      <trkpt lat="49.33647" lon="1.30578">
        <ele>53</ele>
        <time>2010-05-24T06:57:18Z</time>
      </trkpt>
      <trkpt lat="49.33644" lon="1.30594">
        <ele>53</ele>
        <time>2010-05-24T06:57:22Z</time>
      </trkpt>
      <trkpt lat="49.33642" lon="1.30611">
        <ele>53</ele>
        <time>2010-05-24T06:57:26Z</time>
      </trkpt>
      <trkpt lat="49.3364" lon="1.30627">
        <ele>53</ele>
        <time>2010-05-24T06:57:30Z</time>
      </trkpt>
      <trkpt lat="49.33639" lon="1.30641">
        <ele>53</ele>
        <time>2010-05-24T06:57:34Z</time>
      </trkpt>
      <trkpt lat="49.33637" lon="1.30656">
        <ele>53</ele>
        <time>2010-05-24T06:57:38Z</time>
      </trkpt>
      <trkpt lat="49.33635" lon="1.30671">
        <ele>59</ele>
        <time>2010-05-24T06:57:42Z</time>
      </trkpt>
      <trkpt lat="49.33633" lon="1.30685">
        <ele>59</ele>
        <time>2010-05-24T06:57:46Z</time>
      </trkpt>
      <trkpt lat="49.33632" lon="1.30703">
        <ele>59</ele>
        <time>2010-05-24T06:57:51Z</time>
      </trkpt>
      <trkpt lat="49.3363" lon="1.3072">
        <ele>59</ele>
        <time>2010-05-24T06:57:56Z</time>
      </trkpt>
      <trkpt lat="49.33628" lon="1.30737">
        <ele>59</ele>
        <time>2010-05-24T06:58:01Z</time>
      </trkpt>
      <trkpt lat="49.33626" lon="1.30752">
        <ele>59</ele>
        <time>2010-05-24T06:58:05Z</time>
      </trkpt>
      <trkpt lat="49.33625" lon="1.30769">
        <ele>59</ele>
        <time>2010-05-24T06:58:10Z</time>
      </trkpt>
      <trkpt lat="49.33623" lon="1.30783">
        <ele>59</ele>
        <time>2010-05-24T06:58:14Z</time>
      </trkpt>
      <trkpt lat="49.3362" lon="1.30797">
        <ele>59</ele>
        <time>2010-05-24T06:58:18Z</time>
      </trkpt>
      <trkpt lat="49.33619" lon="1.30814">
        <ele>59</ele>
        <time>2010-05-24T06:58:22Z</time>
      </trkpt>
      <trkpt lat="49.33617" lon="1.30829">
        <ele>65</ele>
        <time>2010-05-24T06:58:26Z</time>
      </trkpt>
      <trkpt lat="49.33615" lon="1.30845">
        <ele>65</ele>
        <time>2010-05-24T06:58:30Z</time>
      </trkpt>
      <trkpt lat="49.33613" lon="1.30859">
        <ele>65</ele>
        <time>2010-05-24T06:58:34Z</time>
      </trkpt>
      <trkpt lat="49.33612" lon="1.30876">
        <ele>65</ele>
        <time>2010-05-24T06:58:39Z</time>
      </trkpt>
      <trkpt lat="49.3361" lon="1.30893">
        <ele>70</ele>
        <time>2010-05-24T06:58:44Z</time>
      </trkpt>
      <trkpt lat="49.33607" lon="1.3091">
        <ele>70</ele>
        <time>2010-05-24T06:58:49Z</time>
      </trkpt>
      <trkpt lat="49.33606" lon="1.30925">
        <ele>70</ele>
        <time>2010-05-24T06:58:53Z</time>
      </trkpt>
      <trkpt lat="49.33603" lon="1.30942">
        <ele>70</ele>
        <time>2010-05-24T06:58:57Z</time>
      </trkpt>
      <trkpt lat="49.33602" lon="1.30956">
        <ele>70</ele>
        <time>2010-05-24T06:59:00Z</time>
      </trkpt>
      <trkpt lat="49.33599" lon="1.30974">
        <ele>70</ele>
        <time>2010-05-24T06:59:04Z</time>
      </trkpt>
      <trkpt lat="49.33597" lon="1.30988">
        <ele>70</ele>
        <time>2010-05-24T06:59:07Z</time>
      </trkpt>
      <trkpt lat="49.33594" lon="1.31003">
        <ele>70</ele>
        <time>2010-05-24T06:59:10Z</time>
      </trkpt>
      <trkpt lat="49.33591" lon="1.31018">
        <ele>70</ele>
        <time>2010-05-24T06:59:13Z</time>
      </trkpt>
      <trkpt lat="49.33587" lon="1.31035">
        <ele>70</ele>
        <time>2010-05-24T06:59:16Z</time>
      </trkpt>
      <trkpt lat="49.33583" lon="1.3105">
        <ele>70</ele>
        <time>2010-05-24T06:59:19Z</time>
      </trkpt>
      <trkpt lat="49.33577" lon="1.31065">
        <ele>70</ele>
        <time>2010-05-24T06:59:22Z</time>
      </trkpt>
      <trkpt lat="49.33571" lon="1.3108">
        <ele>70</ele>
        <time>2010-05-24T06:59:25Z</time>
      </trkpt>
      <trkpt lat="49.33565" lon="1.31096">
        <ele>70</ele>
        <time>2010-05-24T06:59:28Z</time>
      </trkpt>
      <trkpt lat="49.33557" lon="1.3111">
        <ele>70</ele>
        <time>2010-05-24T06:59:31Z</time>
      </trkpt>
      <trkpt lat="49.3355" lon="1.31124">
        <ele>70</ele>
        <time>2010-05-24T06:59:34Z</time>
      </trkpt>
      <trkpt lat="49.33541" lon="1.31136">
        <ele>70</ele>
        <time>2010-05-24T06:59:37Z</time>
      </trkpt>
      <trkpt lat="49.33532" lon="1.31148">
        <ele>70</ele>
        <time>2010-05-24T06:59:40Z</time>
      </trkpt>
      <trkpt lat="49.33524" lon="1.31159">
        <ele>70</ele>
        <time>2010-05-24T06:59:43Z</time>
      </trkpt>
      <trkpt lat="49.33515" lon="1.31171">
        <ele>70</ele>
        <time>2010-05-24T06:59:46Z</time>
      </trkpt>
      <trkpt lat="49.33506" lon="1.31184">
        <ele>70</ele>
        <time>2010-05-24T06:59:49Z</time>
      </trkpt>
      <trkpt lat="49.33497" lon="1.31196">
        <ele>70</ele>
        <time>2010-05-24T06:59:52Z</time>
      </trkpt>
      <trkpt lat="49.33488" lon="1.31208">
        <ele>70</ele>
        <time>2010-05-24T06:59:55Z</time>
      </trkpt>
      <trkpt lat="49.33478" lon="1.31221">
        <ele>70</ele>
        <time>2010-05-24T06:59:58Z</time>
      </trkpt>
      <trkpt lat="49.3347" lon="1.31233">
        <ele>70</ele>
        <time>2010-05-24T07:00:00Z</time>
      </trkpt>
      <trkpt lat="49.3346" lon="1.31245">
        <ele>70</ele>
        <time>2010-05-24T07:00:02Z</time>
      </trkpt>
      <trkpt lat="49.33447" lon="1.31255">
        <ele>70</ele>
        <time>2010-05-24T07:00:04Z</time>
      </trkpt>
      <trkpt lat="49.33434" lon="1.31263">
        <ele>70</ele>
        <time>2010-05-24T07:00:06Z</time>
      </trkpt>
      <trkpt lat="49.33418" lon="1.31267">
        <ele>70</ele>
        <time>2010-05-24T07:00:08Z</time>
      </trkpt>
      <trkpt lat="49.33404" lon="1.3127">
        <ele>70</ele>
        <time>2010-05-24T07:00:10Z</time>
      </trkpt>
      <trkpt lat="49.3339" lon="1.3127">
        <ele>70</ele>
        <time>2010-05-24T07:00:12Z</time>
      </trkpt>
      <trkpt lat="49.33377" lon="1.3127">
        <ele>70</ele>
        <time>2010-05-24T07:00:14Z</time>
      </trkpt>
      <trkpt lat="49.33365" lon="1.31271">
        <ele>70</ele>
        <time>2010-05-24T07:00:16Z</time>
      </trkpt>
      <trkpt lat="49.33355" lon="1.31274">
        <ele>70</ele>
        <time>2010-05-24T07:00:18Z</time>
      </trkpt>
      <trkpt lat="49.33345" lon="1.31283">
        <ele>70</ele>
        <time>2010-05-24T07:00:20Z</time>
      </trkpt>
      <trkpt lat="49.33336" lon="1.31292">
        <ele>70</ele>
        <time>2010-05-24T07:00:22Z</time>
      </trkpt>
      <trkpt lat="49.33326" lon="1.31304">
        <ele>70</ele>
        <time>2010-05-24T07:00:24Z</time>
      </trkpt>
      <trkpt lat="49.33315" lon="1.31318">
        <ele>70</ele>
        <time>2010-05-24T07:00:26Z</time>
      </trkpt>
      <trkpt lat="49.33303" lon="1.31331">
        <ele>70</ele>
        <time>2010-05-24T07:00:28Z</time>
      </trkpt>
      <trkpt lat="49.33292" lon="1.31345">
        <ele>70</ele>
        <time>2010-05-24T07:00:30Z</time>
      </trkpt>
      <trkpt lat="49.33281" lon="1.31358">
        <ele>70</ele>
        <time>2010-05-24T07:00:32Z</time>
      </trkpt>
      <trkpt lat="49.33271" lon="1.31371">
        <ele>70</ele>
        <time>2010-05-24T07:00:34Z</time>
      </trkpt>
      <trkpt lat="49.33263" lon="1.31387">
        <ele>70</ele>
        <time>2010-05-24T07:00:36Z</time>
      </trkpt>
      <trkpt lat="49.33258" lon="1.31402">
        <ele>70</ele>
        <time>2010-05-24T07:00:38Z</time>
      </trkpt>
      <trkpt lat="49.33254" lon="1.31416">
        <ele>70</ele>
        <time>2010-05-24T07:00:40Z</time>
      </trkpt>
      <trkpt lat="49.3325" lon="1.31429">
        <ele>70</ele>
        <time>2010-05-24T07:00:42Z</time>
      </trkpt>
      <trkpt lat="49.33245" lon="1.31445">
        <ele>70</ele>
        <time>2010-05-24T07:00:45Z</time>
      </trkpt>
      <trkpt lat="49.33241" lon="1.3146">
        <ele>70</ele>
        <time>2010-05-24T07:00:48Z</time>
      </trkpt>
      <trkpt lat="49.33236" lon="1.31476">
        <ele>70</ele>
        <time>2010-05-24T07:00:51Z</time>
      </trkpt>
      <trkpt lat="49.33229" lon="1.31492">
        <ele>70</ele>
        <time>2010-05-24T07:00:54Z</time>
      </trkpt>
      <trkpt lat="49.33225" lon="1.31504">
        <ele>70</ele>
        <time>2010-05-24T07:00:56Z</time>
      </trkpt>
      <trkpt lat="49.3322" lon="1.31518">
        <ele>70</ele>
        <time>2010-05-24T07:00:58Z</time>
      </trkpt>
      <trkpt lat="49.33215" lon="1.31532">
        <ele>70</ele>
        <time>2010-05-24T07:01:00Z</time>
      </trkpt>
      <trkpt lat="49.33212" lon="1.31548">
        <ele>70</ele>
        <time>2010-05-24T07:01:02Z</time>
      </trkpt>
      <trkpt lat="49.33209" lon="1.31564">
        <ele>70</ele>
        <time>2010-05-24T07:01:04Z</time>
      </trkpt>
      <trkpt lat="49.33207" lon="1.31579">
        <ele>70</ele>
        <time>2010-05-24T07:01:06Z</time>
      </trkpt>
      <trkpt lat="49.33204" lon="1.31592">
        <ele>70</ele>
        <time>2010-05-24T07:01:08Z</time>
      </trkpt>
      <trkpt lat="49.33201" lon="1.3161">
        <ele>70</ele>
        <time>2010-05-24T07:01:11Z</time>
      </trkpt>
      <trkpt lat="49.33199" lon="1.31627">
        <ele>70</ele>
        <time>2010-05-24T07:01:15Z</time>
      </trkpt>
      <trkpt lat="49.33197" lon="1.31643">
        <ele>70</ele>
        <time>2010-05-24T07:01:19Z</time>
      </trkpt>
      <trkpt lat="49.33195" lon="1.31659">
        <ele>70</ele>
        <time>2010-05-24T07:01:23Z</time>
      </trkpt>
      <trkpt lat="49.33192" lon="1.31675">
        <ele>70</ele>
        <time>2010-05-24T07:01:27Z</time>
      </trkpt>
      <trkpt lat="49.3319" lon="1.31691">
        <ele>70</ele>
        <time>2010-05-24T07:01:31Z</time>
      </trkpt>
      <trkpt lat="49.33187" lon="1.31705">
        <ele>70</ele>
        <time>2010-05-24T07:01:34Z</time>
      </trkpt>
      <trkpt lat="49.33182" lon="1.31721">
        <ele>78</ele>
        <time>2010-05-24T07:01:38Z</time>
      </trkpt>
      <trkpt lat="49.33177" lon="1.31733">
        <ele>78</ele>
        <time>2010-05-24T07:01:41Z</time>
      </trkpt>
      <trkpt lat="49.33172" lon="1.31749">
        <ele>78</ele>
        <time>2010-05-24T07:01:45Z</time>
      </trkpt>
      <trkpt lat="49.33168" lon="1.31761">
        <ele>78</ele>
        <time>2010-05-24T07:01:48Z</time>
      </trkpt>
      <trkpt lat="49.33163" lon="1.31773">
        <ele>78</ele>
        <time>2010-05-24T07:01:51Z</time>
      </trkpt>
      <trkpt lat="49.33158" lon="1.31788">
        <ele>85</ele>
        <time>2010-05-24T07:01:55Z</time>
      </trkpt>
      <trkpt lat="49.33153" lon="1.31801">
        <ele>85</ele>
        <time>2010-05-24T07:01:58Z</time>
      </trkpt>
      <trkpt lat="49.33145" lon="1.3181">
        <ele>85</ele>
        <time>2010-05-24T07:02:01Z</time>
      </trkpt>
      <trkpt lat="49.33138" lon="1.31821">
        <ele>85</ele>
        <time>2010-05-24T07:02:04Z</time>
      </trkpt>
      <trkpt lat="49.3313" lon="1.31831">
        <ele>85</ele>
        <time>2010-05-24T07:02:08Z</time>
      </trkpt>
      <trkpt lat="49.3312" lon="1.31839">
        <ele>85</ele>
        <time>2010-05-24T07:02:12Z</time>
      </trkpt>
      <trkpt lat="49.33111" lon="1.3185">
        <ele>85</ele>
        <time>2010-05-24T07:02:16Z</time>
      </trkpt>
      <trkpt lat="49.33103" lon="1.31859">
        <ele>85</ele>
        <time>2010-05-24T07:02:19Z</time>
      </trkpt>
      <trkpt lat="49.33094" lon="1.3187">
        <ele>85</ele>
        <time>2010-05-24T07:02:22Z</time>
      </trkpt>
      <trkpt lat="49.33086" lon="1.3188">
        <ele>85</ele>
        <time>2010-05-24T07:02:25Z</time>
      </trkpt>
      <trkpt lat="49.33076" lon="1.31889">
        <ele>85</ele>
        <time>2010-05-24T07:02:28Z</time>
      </trkpt>
      <trkpt lat="49.33067" lon="1.31901">
        <ele>85</ele>
        <time>2010-05-24T07:02:31Z</time>
      </trkpt>
      <trkpt lat="49.33059" lon="1.31912">
        <ele>85</ele>
        <time>2010-05-24T07:02:34Z</time>
      </trkpt>
      <trkpt lat="49.33049" lon="1.31928">
        <ele>85</ele>
        <time>2010-05-24T07:02:37Z</time>
      </trkpt>
      <trkpt lat="49.33043" lon="1.3194">
        <ele>90</ele>
        <time>2010-05-24T07:02:40Z</time>
      </trkpt>
      <trkpt lat="49.33035" lon="1.31952">
        <ele>90</ele>
        <time>2010-05-24T07:02:44Z</time>
      </trkpt>
      <trkpt lat="49.33027" lon="1.31966">
        <ele>90</ele>
        <time>2010-05-24T07:02:49Z</time>
      </trkpt>
      <trkpt lat="49.33021" lon="1.31981">
        <ele>90</ele>
        <time>2010-05-24T07:02:53Z</time>
      </trkpt>
      <trkpt lat="49.33015" lon="1.31992">
        <ele>90</ele>
        <time>2010-05-24T07:02:56Z</time>
      </trkpt>
      <trkpt lat="49.33009" lon="1.32007">
        <ele>90</ele>
        <time>2010-05-24T07:02:59Z</time>
      </trkpt>
      <trkpt lat="49.33002" lon="1.32023">
        <ele>96</ele>
        <time>2010-05-24T07:03:02Z</time>
      </trkpt>
      <trkpt lat="49.32996" lon="1.32034">
        <ele>96</ele>
        <time>2010-05-24T07:03:04Z</time>
      </trkpt>
      <trkpt lat="49.32989" lon="1.32044">
        <ele>96</ele>
        <time>2010-05-24T07:03:06Z</time>
      </trkpt>
      <trkpt lat="49.32983" lon="1.32055">
        <ele>96</ele>
        <time>2010-05-24T07:03:08Z</time>
      </trkpt>
      <trkpt lat="49.32975" lon="1.32066">
        <ele>96</ele>
        <time>2010-05-24T07:03:10Z</time>
      </trkpt>
      <trkpt lat="49.32968" lon="1.32077">
        <ele>96</ele>
        <time>2010-05-24T07:03:12Z</time>
      </trkpt>
      <trkpt lat="49.32959" lon="1.32087">
        <ele>91</ele>
        <time>2010-05-24T07:03:14Z</time>
      </trkpt>
      <trkpt lat="49.32951" lon="1.32096">
        <ele>91</ele>
        <time>2010-05-24T07:03:16Z</time>
      </trkpt>
      <trkpt lat="49.32942" lon="1.32104">
        <ele>91</ele>
        <time>2010-05-24T07:03:18Z</time>
      </trkpt>
      <trkpt lat="49.3293" lon="1.32113">
        <ele>91</ele>
        <time>2010-05-24T07:03:20Z</time>
      </trkpt>
      <trkpt lat="49.32918" lon="1.32127">
        <ele>91</ele>
        <time>2010-05-24T07:03:22Z</time>
      </trkpt>
      <trkpt lat="49.32907" lon="1.3214">
        <ele>91</ele>
        <time>2010-05-24T07:03:24Z</time>
      </trkpt>
      <trkpt lat="49.32897" lon="1.32152">
        <ele>91</ele>
        <time>2010-05-24T07:03:26Z</time>
      </trkpt>
      <trkpt lat="49.32888" lon="1.32164">
        <ele>91</ele>
        <time>2010-05-24T07:03:28Z</time>
      </trkpt>
      <trkpt lat="49.3288" lon="1.32175">
        <ele>91</ele>
        <time>2010-05-24T07:03:30Z</time>
      </trkpt>
      <trkpt lat="49.32872" lon="1.32185">
        <ele>91</ele>
        <time>2010-05-24T07:03:32Z</time>
      </trkpt>
      <trkpt lat="49.32865" lon="1.32198">
        <ele>91</ele>
        <time>2010-05-24T07:03:36Z</time>
      </trkpt>
      <trkpt lat="49.32861" lon="1.32212">
        <ele>91</ele>
        <time>2010-05-24T07:03:41Z</time>
      </trkpt>
      <trkpt lat="49.32857" lon="1.32227">
        <ele>91</ele>
        <time>2010-05-24T07:03:45Z</time>
      </trkpt>
      <trkpt lat="49.32854" lon="1.3224">
        <ele>91</ele>
        <time>2010-05-24T07:03:49Z</time>
      </trkpt>
      <trkpt lat="49.3285" lon="1.32256">
        <ele>91</ele>
        <time>2010-05-24T07:03:54Z</time>
      </trkpt>
      <trkpt lat="49.32846" lon="1.3227">
        <ele>91</ele>
        <time>2010-05-24T07:03:58Z</time>
      </trkpt>
      <trkpt lat="49.32842" lon="1.32282">
        <ele>91</ele>
        <time>2010-05-24T07:04:02Z</time>
      </trkpt>
      <trkpt lat="49.32837" lon="1.32295">
        <ele>91</ele>
        <time>2010-05-24T07:04:07Z</time>
      </trkpt>
      <trkpt lat="49.32831" lon="1.32308">
        <ele>91</ele>
        <time>2010-05-24T07:04:12Z</time>
      </trkpt>
      <trkpt lat="49.32825" lon="1.32321">
        <ele>97</ele>
        <time>2010-05-24T07:04:18Z</time>
      </trkpt>
      <trkpt lat="49.32818" lon="1.32332">
        <ele>97</ele>
        <time>2010-05-24T07:04:23Z</time>
      </trkpt>
      <trkpt lat="49.32811" lon="1.32343">
        <ele>97</ele>
        <time>2010-05-24T07:04:27Z</time>
      </trkpt>
      <trkpt lat="49.32803" lon="1.32352">
        <ele>97</ele>
        <time>2010-05-24T07:04:31Z</time>
      </trkpt>
      <trkpt lat="49.32794" lon="1.32356">
        <ele>103</ele>
        <time>2010-05-24T07:04:35Z</time>
      </trkpt>
      <trkpt lat="49.32784" lon="1.32357">
        <ele>103</ele>
        <time>2010-05-24T07:04:40Z</time>
      </trkpt>
      <trkpt lat="49.32775" lon="1.32353">
        <ele>103</ele>
        <time>2010-05-24T07:04:44Z</time>
      </trkpt>
      <trkpt lat="49.32765" lon="1.32357">
        <ele>103</ele>
        <time>2010-05-24T07:04:48Z</time>
      </trkpt>
      <trkpt lat="49.32756" lon="1.32361">
        <ele>103</ele>
        <time>2010-05-24T07:04:53Z</time>
      </trkpt>
      <trkpt lat="49.32746" lon="1.32363">
        <ele>112</ele>
        <time>2010-05-24T07:04:57Z</time>
      </trkpt>
      <trkpt lat="49.32733" lon="1.32367">
        <ele>118</ele>
        <time>2010-05-24T07:05:04Z</time>
      </trkpt>
      <trkpt lat="49.32724" lon="1.32364">
        <ele>118</ele>
        <time>2010-05-24T07:05:08Z</time>
      </trkpt>
      <trkpt lat="49.32714" lon="1.32356">
        <ele>118</ele>
        <time>2010-05-24T07:05:12Z</time>
      </trkpt>
      <trkpt lat="49.32707" lon="1.32346">
        <ele>109</ele>
        <time>2010-05-24T07:05:18Z</time>
      </trkpt>
      <trkpt lat="49.327" lon="1.32335">
        <ele>109</ele>
        <time>2010-05-24T07:05:23Z</time>
      </trkpt>
      <trkpt lat="49.32694" lon="1.32321">
        <ele>109</ele>
        <time>2010-05-24T07:05:29Z</time>
      </trkpt>
      <trkpt lat="49.32686" lon="1.32312">
        <ele>109</ele>
        <time>2010-05-24T07:05:34Z</time>
      </trkpt>
      <trkpt lat="49.3268" lon="1.323">
        <ele>109</ele>
        <time>2010-05-24T07:05:39Z</time>
      </trkpt>
      <trkpt lat="49.32674" lon="1.3229">
        <ele>109</ele>
        <time>2010-05-24T07:05:44Z</time>
      </trkpt>
      <trkpt lat="49.32669" lon="1.32277">
        <ele>109</ele>
        <time>2010-05-24T07:05:49Z</time>
      </trkpt>
      <trkpt lat="49.32662" lon="1.32267">
        <ele>109</ele>
        <time>2010-05-24T07:05:54Z</time>
      </trkpt>
      <trkpt lat="49.32655" lon="1.32257">
        <ele>115</ele>
        <time>2010-05-24T07:05:59Z</time>
      </trkpt>
      <trkpt lat="49.32651" lon="1.32242">
        <ele>120</ele>
        <time>2010-05-24T07:06:04Z</time>
      </trkpt>
      <trkpt lat="49.32646" lon="1.32228">
        <ele>120</ele>
        <time>2010-05-24T07:06:09Z</time>
      </trkpt>
      <trkpt lat="49.32639" lon="1.32219">
        <ele>120</ele>
        <time>2010-05-24T07:06:13Z</time>
      </trkpt>
      <trkpt lat="49.32633" lon="1.32208">
        <ele>120</ele>
        <time>2010-05-24T07:06:17Z</time>
      </trkpt>
      <trkpt lat="49.32626" lon="1.32198">
        <ele>120</ele>
        <time>2010-05-24T07:06:20Z</time>
      </trkpt>
      <trkpt lat="49.32618" lon="1.32186">
        <ele>115</ele>
        <time>2010-05-24T07:06:24Z</time>
      </trkpt>
      <trkpt lat="49.32612" lon="1.32171">
        <ele>115</ele>
        <time>2010-05-24T07:06:28Z</time>
      </trkpt>
      <trkpt lat="49.32605" lon="1.32156">
        <ele>115</ele>
        <time>2010-05-24T07:06:32Z</time>
      </trkpt>
      <trkpt lat="49.32597" lon="1.32143">
        <ele>115</ele>
        <time>2010-05-24T07:06:36Z</time>
      </trkpt>
      <trkpt lat="49.32588" lon="1.32133">
        <ele>120</ele>
        <time>2010-05-24T07:06:40Z</time>
      </trkpt>
      <trkpt lat="49.32577" lon="1.32129">
        <ele>120</ele>
        <time>2010-05-24T07:06:44Z</time>
      </trkpt>
      <trkpt lat="49.32565" lon="1.32125">
        <ele>120</ele>
        <time>2010-05-24T07:06:48Z</time>
      </trkpt>
      <trkpt lat="49.32556" lon="1.32125">
        <ele>120</ele>
        <time>2010-05-24T07:06:51Z</time>
      </trkpt>
      <trkpt lat="49.32542" lon="1.32128">
        <ele>120</ele>
        <time>2010-05-24T07:06:54Z</time>
      </trkpt>
      <trkpt lat="49.32531" lon="1.32131">
        <ele>120</ele>
        <time>2010-05-24T07:06:56Z</time>
      </trkpt>
      <trkpt lat="49.3252" lon="1.32132">
        <ele>126</ele>
        <time>2010-05-24T07:06:58Z</time>
      </trkpt>
      <trkpt lat="49.3251" lon="1.32132">
        <ele>126</ele>
        <time>2010-05-24T07:07:00Z</time>
      </trkpt>
      <trkpt lat="49.325" lon="1.32134">
        <ele>126</ele>
        <time>2010-05-24T07:07:02Z</time>
      </trkpt>
      <trkpt lat="49.3249" lon="1.32137">
        <ele>132</ele>
        <time>2010-05-24T07:07:04Z</time>
      </trkpt>
      <trkpt lat="49.32479" lon="1.32144">
        <ele>132</ele>
        <time>2010-05-24T07:07:07Z</time>
      </trkpt>
      <trkpt lat="49.3247" lon="1.3215">
        <ele>132</ele>
        <time>2010-05-24T07:07:10Z</time>
      </trkpt>
      <trkpt lat="49.32463" lon="1.3216">
        <ele>132</ele>
        <time>2010-05-24T07:07:13Z</time>
      </trkpt>
      <trkpt lat="49.32455" lon="1.3217">
        <ele>126</ele>
        <time>2010-05-24T07:07:16Z</time>
      </trkpt>
      <trkpt lat="49.32449" lon="1.32181">
        <ele>126</ele>
        <time>2010-05-24T07:07:19Z</time>
      </trkpt>
      <trkpt lat="49.32443" lon="1.32192">
        <ele>126</ele>
        <time>2010-05-24T07:07:22Z</time>
      </trkpt>
      <trkpt lat="49.32439" lon="1.32205">
        <ele>126</ele>
        <time>2010-05-24T07:07:25Z</time>
      </trkpt>
      <trkpt lat="49.32434" lon="1.32219">
        <ele>126</ele>
        <time>2010-05-24T07:07:29Z</time>
      </trkpt>
      <trkpt lat="49.32429" lon="1.32237">
        <ele>126</ele>
        <time>2010-05-24T07:07:33Z</time>
      </trkpt>
      <trkpt lat="49.32424" lon="1.32252">
        <ele>126</ele>
        <time>2010-05-24T07:07:37Z</time>
      </trkpt>
      <trkpt lat="49.3242" lon="1.32266">
        <ele>126</ele>
        <time>2010-05-24T07:07:41Z</time>
      </trkpt>
      <trkpt lat="49.32415" lon="1.32281">
        <ele>126</ele>
        <time>2010-05-24T07:07:45Z</time>
      </trkpt>
      <trkpt lat="49.3241" lon="1.32296">
        <ele>126</ele>
        <time>2010-05-24T07:07:49Z</time>
      </trkpt>
      <trkpt lat="49.32406" lon="1.32311">
        <ele>126</ele>
        <time>2010-05-24T07:07:53Z</time>
      </trkpt>
      <trkpt lat="49.324" lon="1.32326">
        <ele>126</ele>
        <time>2010-05-24T07:07:57Z</time>
      </trkpt>
      <trkpt lat="49.32395" lon="1.3234">
        <ele>131</ele>
        <time>2010-05-24T07:08:00Z</time>
      </trkpt>
      <trkpt lat="49.3239" lon="1.32352">
        <ele>131</ele>
        <time>2010-05-24T07:08:03Z</time>
      </trkpt>
      <trkpt lat="49.32385" lon="1.32364">
        <ele>131</ele>
        <time>2010-05-24T07:08:06Z</time>
      </trkpt>
      <trkpt lat="49.32379" lon="1.32377">
        <ele>131</ele>
        <time>2010-05-24T07:08:09Z</time>
      </trkpt>
      <trkpt lat="49.32373" lon="1.32389">
        <ele>131</ele>
        <time>2010-05-24T07:08:12Z</time>
      </trkpt>
      <trkpt lat="49.32366" lon="1.32402">
        <ele>131</ele>
        <time>2010-05-24T07:08:15Z</time>
      </trkpt>
      <trkpt lat="49.32359" lon="1.32415">
        <ele>131</ele>
        <time>2010-05-24T07:08:18Z</time>
      </trkpt>
      <trkpt lat="49.32352" lon="1.3243">
        <ele>131</ele>
        <time>2010-05-24T07:08:21Z</time>
      </trkpt>
      <trkpt lat="49.32345" lon="1.32443">
        <ele>131</ele>
        <time>2010-05-24T07:08:24Z</time>
      </trkpt>
      <trkpt lat="49.32338" lon="1.32457">
        <ele>131</ele>
        <time>2010-05-24T07:08:27Z</time>
      </trkpt>
      <trkpt lat="49.3233" lon="1.3247">
        <ele>131</ele>
        <time>2010-05-24T07:08:30Z</time>
      </trkpt>
      <trkpt lat="49.32322" lon="1.32483">
        <ele>131</ele>
        <time>2010-05-24T07:08:33Z</time>
      </trkpt>
      <trkpt lat="49.32313" lon="1.32495">
        <ele>131</ele>
        <time>2010-05-24T07:08:36Z</time>
      </trkpt>
      <trkpt lat="49.32305" lon="1.32508">
        <ele>131</ele>
        <time>2010-05-24T07:08:39Z</time>
      </trkpt>
      <trkpt lat="49.32296" lon="1.3252">
        <ele>131</ele>
        <time>2010-05-24T07:08:42Z</time>
      </trkpt>
      <trkpt lat="49.32287" lon="1.32532">
        <ele>131</ele>
        <time>2010-05-24T07:08:45Z</time>
      </trkpt>
      <trkpt lat="49.32278" lon="1.32545">
        <ele>131</ele>
        <time>2010-05-24T07:08:48Z</time>
      </trkpt>
      <trkpt lat="49.32268" lon="1.32557">
        <ele>131</ele>
        <time>2010-05-24T07:08:51Z</time>
      </trkpt>
      <trkpt lat="49.32258" lon="1.32569">
        <ele>131</ele>
        <time>2010-05-24T07:08:54Z</time>
      </trkpt>
      <trkpt lat="49.32249" lon="1.3258">
        <ele>131</ele>
        <time>2010-05-24T07:08:57Z</time>
      </trkpt>
      <trkpt lat="49.32239" lon="1.3259">
        <ele>131</ele>
        <time>2010-05-24T07:09:00Z</time>
      </trkpt>
      <trkpt lat="49.3223" lon="1.32599">
        <ele>131</ele>
        <time>2010-05-24T07:09:03Z</time>
      </trkpt>
      <trkpt lat="49.32221" lon="1.3261">
        <ele>131</ele>
        <time>2010-05-24T07:09:06Z</time>
      </trkpt>
      <trkpt lat="49.32214" lon="1.32622">
        <ele>131</ele>
        <time>2010-05-24T07:09:09Z</time>
      </trkpt>
      <trkpt lat="49.32206" lon="1.32635">
        <ele>131</ele>
        <time>2010-05-24T07:09:12Z</time>
      </trkpt>
      <trkpt lat="49.322" lon="1.32649">
        <ele>131</ele>
        <time>2010-05-24T07:09:15Z</time>
      </trkpt>
      <trkpt lat="49.32195" lon="1.32667">
        <ele>131</ele>
        <time>2010-05-24T07:09:18Z</time>
      </trkpt>
      <trkpt lat="49.32192" lon="1.3268">
        <ele>131</ele>
        <time>2010-05-24T07:09:20Z</time>
      </trkpt>
      <trkpt lat="49.32187" lon="1.32699">
        <ele>131</ele>
        <time>2010-05-24T07:09:23Z</time>
      </trkpt>
      <trkpt lat="49.32181" lon="1.32719">
        <ele>131</ele>
        <time>2010-05-24T07:09:26Z</time>
      </trkpt>
      <trkpt lat="49.32177" lon="1.32734">
        <ele>131</ele>
        <time>2010-05-24T07:09:28Z</time>
      </trkpt>
      <trkpt lat="49.32173" lon="1.3275">
        <ele>131</ele>
        <time>2010-05-24T07:09:30Z</time>
      </trkpt>
      <trkpt lat="49.32167" lon="1.32768">
        <ele>131</ele>
        <time>2010-05-24T07:09:32Z</time>
      </trkpt>
      <trkpt lat="49.32161" lon="1.32786">
        <ele>131</ele>
        <time>2010-05-24T07:09:34Z</time>
      </trkpt>
      <trkpt lat="49.32155" lon="1.32807">
        <ele>131</ele>
        <time>2010-05-24T07:09:36Z</time>
      </trkpt>
      <trkpt lat="49.3215" lon="1.32829">
        <ele>131</ele>
        <time>2010-05-24T07:09:38Z</time>
      </trkpt>
      <trkpt lat="49.32144" lon="1.32852">
        <ele>131</ele>
        <time>2010-05-24T07:09:40Z</time>
      </trkpt>
      <trkpt lat="49.32139" lon="1.32876">
        <ele>131</ele>
        <time>2010-05-24T07:09:42Z</time>
      </trkpt>
      <trkpt lat="49.32132" lon="1.329">
        <ele>125</ele>
        <time>2010-05-24T07:09:44Z</time>
      </trkpt>
      <trkpt lat="49.32124" lon="1.32924">
        <ele>125</ele>
        <time>2010-05-24T07:09:46Z</time>
      </trkpt>
      <trkpt lat="49.32116" lon="1.32945">
        <ele>125</ele>
        <time>2010-05-24T07:09:48Z</time>
      </trkpt>
      <trkpt lat="49.32109" lon="1.32966">
        <ele>125</ele>
        <time>2010-05-24T07:09:50Z</time>
      </trkpt>
      <trkpt lat="49.32102" lon="1.32987">
        <ele>125</ele>
        <time>2010-05-24T07:09:52Z</time>
      </trkpt>
      <trkpt lat="49.32094" lon="1.33006">
        <ele>125</ele>
        <time>2010-05-24T07:09:54Z</time>
      </trkpt>
      <trkpt lat="49.32087" lon="1.33023">
        <ele>125</ele>
        <time>2010-05-24T07:09:56Z</time>
      </trkpt>
      <trkpt lat="49.32081" lon="1.33038">
        <ele>125</ele>
        <time>2010-05-24T07:09:58Z</time>
      </trkpt>
      <trkpt lat="49.32074" lon="1.3305">
        <ele>125</ele>
        <time>2010-05-24T07:10:00Z</time>
      </trkpt>
      <trkpt lat="49.32064" lon="1.33064">
        <ele>125</ele>
        <time>2010-05-24T07:10:03Z</time>
      </trkpt>
      <trkpt lat="49.32055" lon="1.33075">
        <ele>125</ele>
        <time>2010-05-24T07:10:06Z</time>
      </trkpt>
      <trkpt lat="49.32046" lon="1.33087">
        <ele>125</ele>
        <time>2010-05-24T07:10:10Z</time>
      </trkpt>
      <trkpt lat="49.32038" lon="1.33099">
        <ele>125</ele>
        <time>2010-05-24T07:10:14Z</time>
      </trkpt>
      <trkpt lat="49.3203" lon="1.33108">
        <ele>131</ele>
        <time>2010-05-24T07:10:17Z</time>
      </trkpt>
      <trkpt lat="49.32023" lon="1.33119">
        <ele>131</ele>
        <time>2010-05-24T07:10:21Z</time>
      </trkpt>
      <trkpt lat="49.32015" lon="1.33129">
        <ele>131</ele>
        <time>2010-05-24T07:10:26Z</time>
      </trkpt>
      <trkpt lat="49.32008" lon="1.33141">
        <ele>131</ele>
        <time>2010-05-24T07:10:30Z</time>
      </trkpt>
      <trkpt lat="49.32002" lon="1.33155">
        <ele>131</ele>
        <time>2010-05-24T07:10:34Z</time>
      </trkpt>
      <trkpt lat="49.31998" lon="1.3317">
        <ele>131</ele>
        <time>2010-05-24T07:10:38Z</time>
      </trkpt>
      <trkpt lat="49.31992" lon="1.33184">
        <ele>131</ele>
        <time>2010-05-24T07:10:42Z</time>
      </trkpt>
      <trkpt lat="49.31989" lon="1.33198">
        <ele>131</ele>
        <time>2010-05-24T07:10:45Z</time>
      </trkpt>
      <trkpt lat="49.31985" lon="1.33215">
        <ele>137</ele>
        <time>2010-05-24T07:10:49Z</time>
      </trkpt>
      <trkpt lat="49.31981" lon="1.33229">
        <ele>137</ele>
        <time>2010-05-24T07:10:53Z</time>
      </trkpt>
      <trkpt lat="49.31977" lon="1.33243">
        <ele>137</ele>
        <time>2010-05-24T07:10:57Z</time>
      </trkpt>
      <trkpt lat="49.31973" lon="1.33257">
        <ele>137</ele>
        <time>2010-05-24T07:11:01Z</time>
      </trkpt>
      <trkpt lat="49.3197" lon="1.33273">
        <ele>137</ele>
        <time>2010-05-24T07:11:05Z</time>
      </trkpt>
      <trkpt lat="49.31965" lon="1.33288">
        <ele>137</ele>
        <time>2010-05-24T07:11:09Z</time>
      </trkpt>
      <trkpt lat="49.31962" lon="1.33302">
        <ele>137</ele>
        <time>2010-05-24T07:11:12Z</time>
      </trkpt>
      <trkpt lat="49.31958" lon="1.33316">
        <ele>137</ele>
        <time>2010-05-24T07:11:15Z</time>
      </trkpt>
      <trkpt lat="49.31954" lon="1.33331">
        <ele>137</ele>
        <time>2010-05-24T07:11:18Z</time>
      </trkpt>
      <trkpt lat="49.31951" lon="1.33345">
        <ele>137</ele>
        <time>2010-05-24T07:11:21Z</time>
      </trkpt>
      <trkpt lat="49.31947" lon="1.3336">
        <ele>137</ele>
        <time>2010-05-24T07:11:24Z</time>
      </trkpt>
      <trkpt lat="49.31944" lon="1.33377">
        <ele>137</ele>
        <time>2010-05-24T07:11:27Z</time>
      </trkpt>
      <trkpt lat="49.31941" lon="1.33395">
        <ele>137</ele>
        <time>2010-05-24T07:11:30Z</time>
      </trkpt>
      <trkpt lat="49.31938" lon="1.33413">
        <ele>137</ele>
        <time>2010-05-24T07:11:33Z</time>
      </trkpt>
      <trkpt lat="49.31934" lon="1.33432">
        <ele>137</ele>
        <time>2010-05-24T07:11:36Z</time>
      </trkpt>
      <trkpt lat="49.31929" lon="1.33451">
        <ele>137</ele>
        <time>2010-05-24T07:11:39Z</time>
      </trkpt>
      <trkpt lat="49.31925" lon="1.3347">
        <ele>137</ele>
        <time>2010-05-24T07:11:42Z</time>
      </trkpt>
      <trkpt lat="49.31921" lon="1.33483">
        <ele>137</ele>
        <time>2010-05-24T07:11:44Z</time>
      </trkpt>
      <trkpt lat="49.31916" lon="1.33501">
        <ele>137</ele>
        <time>2010-05-24T07:11:47Z</time>
      </trkpt>
      <trkpt lat="49.31909" lon="1.33518">
        <ele>137</ele>
        <time>2010-05-24T07:11:50Z</time>
      </trkpt>
      <trkpt lat="49.31901" lon="1.33536">
        <ele>137</ele>
        <time>2010-05-24T07:11:53Z</time>
      </trkpt>
      <trkpt lat="49.31892" lon="1.33552">
        <ele>137</ele>
        <time>2010-05-24T07:11:56Z</time>
      </trkpt>
      <trkpt lat="49.31883" lon="1.33566">
        <ele>137</ele>
        <time>2010-05-24T07:11:59Z</time>
      </trkpt>
      <trkpt lat="49.31874" lon="1.3358">
        <ele>137</ele>
        <time>2010-05-24T07:12:02Z</time>
      </trkpt>
      <trkpt lat="49.31863" lon="1.33592">
        <ele>142</ele>
        <time>2010-05-24T07:12:05Z</time>
      </trkpt>
      <trkpt lat="49.31855" lon="1.336">
        <ele>142</ele>
        <time>2010-05-24T07:12:07Z</time>
      </trkpt>
      <trkpt lat="49.31847" lon="1.33608">
        <ele>142</ele>
        <time>2010-05-24T07:12:09Z</time>
      </trkpt>
      <trkpt lat="49.3184" lon="1.33617">
        <ele>142</ele>
        <time>2010-05-24T07:12:11Z</time>
      </trkpt>
      <trkpt lat="49.31832" lon="1.33625">
        <ele>142</ele>
        <time>2010-05-24T07:12:13Z</time>
      </trkpt>
      <trkpt lat="49.31824" lon="1.33633">
        <ele>142</ele>
        <time>2010-05-24T07:12:15Z</time>
      </trkpt>
      <trkpt lat="49.31815" lon="1.33643">
        <ele>142</ele>
        <time>2010-05-24T07:12:17Z</time>
      </trkpt>
      <trkpt lat="49.31807" lon="1.33651">
        <ele>142</ele>
        <time>2010-05-24T07:12:19Z</time>
      </trkpt>
      <trkpt lat="49.318" lon="1.3366">
        <ele>142</ele>
        <time>2010-05-24T07:12:21Z</time>
      </trkpt>
      <trkpt lat="49.31791" lon="1.33668">
        <ele>142</ele>
        <time>2010-05-24T07:12:23Z</time>
      </trkpt>
      <trkpt lat="49.31784" lon="1.33677">
        <ele>142</ele>
        <time>2010-05-24T07:12:25Z</time>
      </trkpt>
      <trkpt lat="49.31777" lon="1.33687">
        <ele>142</ele>
        <time>2010-05-24T07:12:27Z</time>
      </trkpt>
      <trkpt lat="49.31769" lon="1.33696">
        <ele>142</ele>
        <time>2010-05-24T07:12:29Z</time>
      </trkpt>
      <trkpt lat="49.31761" lon="1.33704">
        <ele>142</ele>
        <time>2010-05-24T07:12:31Z</time>
      </trkpt>
      <trkpt lat="49.31749" lon="1.33712">
        <ele>142</ele>
        <time>2010-05-24T07:12:34Z</time>
      </trkpt>
      <trkpt lat="49.31741" lon="1.33719">
        <ele>142</ele>
        <time>2010-05-24T07:12:36Z</time>
      </trkpt>
      <trkpt lat="49.31729" lon="1.33728">
        <ele>142</ele>
        <time>2010-05-24T07:12:39Z</time>
      </trkpt>
      <trkpt lat="49.3172" lon="1.33734">
        <ele>142</ele>
        <time>2010-05-24T07:12:41Z</time>
      </trkpt>
      <trkpt lat="49.31711" lon="1.33733">
        <ele>142</ele>
        <time>2010-05-24T07:12:43Z</time>
      </trkpt>
      <trkpt lat="49.31702" lon="1.33728">
        <ele>142</ele>
        <time>2010-05-24T07:12:45Z</time>
      </trkpt>
      <trkpt lat="49.31693" lon="1.33721">
        <ele>142</ele>
        <time>2010-05-24T07:12:47Z</time>
      </trkpt>
      <trkpt lat="49.31683" lon="1.33719">
        <ele>142</ele>
        <time>2010-05-24T07:12:49Z</time>
      </trkpt>
      <trkpt lat="49.31673" lon="1.33721">
        <ele>142</ele>
        <time>2010-05-24T07:12:51Z</time>
      </trkpt>
      <trkpt lat="49.31663" lon="1.33724">
        <ele>142</ele>
        <time>2010-05-24T07:12:53Z</time>
      </trkpt>
      <trkpt lat="49.31653" lon="1.33729">
        <ele>142</ele>
        <time>2010-05-24T07:12:55Z</time>
      </trkpt>
      <trkpt lat="49.31644" lon="1.33734">
        <ele>142</ele>
        <time>2010-05-24T07:12:57Z</time>
      </trkpt>
      <trkpt lat="49.31635" lon="1.33741">
        <ele>142</ele>
        <time>2010-05-24T07:12:59Z</time>
      </trkpt>
      <trkpt lat="49.31628" lon="1.3375">
        <ele>142</ele>
        <time>2010-05-24T07:13:01Z</time>
      </trkpt>
      <trkpt lat="49.31621" lon="1.3376">
        <ele>142</ele>
        <time>2010-05-24T07:13:03Z</time>
      </trkpt>
      <trkpt lat="49.31615" lon="1.33771">
        <ele>142</ele>
        <time>2010-05-24T07:13:05Z</time>
      </trkpt>
      <trkpt lat="49.31609" lon="1.33783">
        <ele>142</ele>
        <time>2010-05-24T07:13:07Z</time>
      </trkpt>
      <trkpt lat="49.31603" lon="1.33794">
        <ele>142</ele>
        <time>2010-05-24T07:13:09Z</time>
      </trkpt>
      <trkpt lat="49.31594" lon="1.3381">
        <ele>142</ele>
        <time>2010-05-24T07:13:12Z</time>
      </trkpt>
      <trkpt lat="49.31584" lon="1.33824">
        <ele>142</ele>
        <time>2010-05-24T07:13:15Z</time>
      </trkpt>
      <trkpt lat="49.31578" lon="1.33835">
        <ele>142</ele>
        <time>2010-05-24T07:13:17Z</time>
      </trkpt>
      <trkpt lat="49.31574" lon="1.33848">
        <ele>142</ele>
        <time>2010-05-24T07:13:19Z</time>
      </trkpt>
      <trkpt lat="49.31574" lon="1.33864">
        <ele>142</ele>
        <time>2010-05-24T07:13:21Z</time>
      </trkpt>
      <trkpt lat="49.31578" lon="1.3388">
        <ele>142</ele>
        <time>2010-05-24T07:13:23Z</time>
      </trkpt>
      <trkpt lat="49.31583" lon="1.33893">
        <ele>142</ele>
        <time>2010-05-24T07:13:25Z</time>
      </trkpt>
      <trkpt lat="49.31588" lon="1.33907">
        <ele>142</ele>
        <time>2010-05-24T07:13:27Z</time>
      </trkpt>
      <trkpt lat="49.31592" lon="1.33923">
        <ele>142</ele>
        <time>2010-05-24T07:13:29Z</time>
      </trkpt>
      <trkpt lat="49.31596" lon="1.33938">
        <ele>142</ele>
        <time>2010-05-24T07:13:31Z</time>
      </trkpt>
      <trkpt lat="49.316" lon="1.33955">
        <ele>142</ele>
        <time>2010-05-24T07:13:33Z</time>
      </trkpt>
      <trkpt lat="49.31604" lon="1.33972">
        <ele>142</ele>
        <time>2010-05-24T07:13:35Z</time>
      </trkpt>
      <trkpt lat="49.31608" lon="1.33989">
        <ele>142</ele>
        <time>2010-05-24T07:13:37Z</time>
      </trkpt>
      <trkpt lat="49.31612" lon="1.34006">
        <ele>142</ele>
        <time>2010-05-24T07:13:39Z</time>
      </trkpt>
      <trkpt lat="49.31617" lon="1.34023">
        <ele>142</ele>
        <time>2010-05-24T07:13:41Z</time>
      </trkpt>
      <trkpt lat="49.31622" lon="1.34041">
        <ele>142</ele>
        <time>2010-05-24T07:13:43Z</time>
      </trkpt>
      <trkpt lat="49.31626" lon="1.34059">
        <ele>142</ele>
        <time>2010-05-24T07:13:45Z</time>
      </trkpt>
      <trkpt lat="49.31631" lon="1.34077">
        <ele>142</ele>
        <time>2010-05-24T07:13:47Z</time>
      </trkpt>
      <trkpt lat="49.31637" lon="1.34095">
        <ele>142</ele>
        <time>2010-05-24T07:13:49Z</time>
      </trkpt>
      <trkpt lat="49.31642" lon="1.34115">
        <ele>142</ele>
        <time>2010-05-24T07:13:51Z</time>
      </trkpt>
      <trkpt lat="49.31647" lon="1.34134">
        <ele>142</ele>
        <time>2010-05-24T07:13:53Z</time>
      </trkpt>
      <trkpt lat="49.31652" lon="1.34154">
        <ele>142</ele>
        <time>2010-05-24T07:13:55Z</time>
      </trkpt>
      <trkpt lat="49.31657" lon="1.34174">
        <ele>142</ele>
        <time>2010-05-24T07:13:57Z</time>
      </trkpt>
      <trkpt lat="49.31662" lon="1.34194">
        <ele>142</ele>
        <time>2010-05-24T07:13:59Z</time>
      </trkpt>
      <trkpt lat="49.31668" lon="1.34216">
        <ele>142</ele>
        <time>2010-05-24T07:14:01Z</time>
      </trkpt>
      <trkpt lat="49.31673" lon="1.34237">
        <ele>142</ele>
        <time>2010-05-24T07:14:03Z</time>
      </trkpt>
      <trkpt lat="49.31679" lon="1.34259">
        <ele>142</ele>
        <time>2010-05-24T07:14:05Z</time>
      </trkpt>
      <trkpt lat="49.31685" lon="1.34281">
        <ele>142</ele>
        <time>2010-05-24T07:14:07Z</time>
      </trkpt>
      <trkpt lat="49.3169" lon="1.34304">
        <ele>142</ele>
        <time>2010-05-24T07:14:09Z</time>
      </trkpt>
      <trkpt lat="49.31696" lon="1.34327">
        <ele>142</ele>
        <time>2010-05-24T07:14:11Z</time>
      </trkpt>
      <trkpt lat="49.31703" lon="1.34351">
        <ele>137</ele>
        <time>2010-05-24T07:14:13Z</time>
      </trkpt>
      <trkpt lat="49.31706" lon="1.34365">
        <ele>137</ele>
        <time>2010-05-24T07:14:14Z</time>
      </trkpt>
      <trkpt lat="49.31712" lon="1.34391">
        <ele>137</ele>
        <time>2010-05-24T07:14:16Z</time>
      </trkpt>
      <trkpt lat="49.31715" lon="1.34404">
        <ele>137</ele>
        <time>2010-05-24T07:14:17Z</time>
      </trkpt>
      <trkpt lat="49.31716" lon="1.34419">
        <ele>137</ele>
        <time>2010-05-24T07:14:18Z</time>
      </trkpt>
      <trkpt lat="49.31717" lon="1.34433">
        <ele>137</ele>
        <time>2010-05-24T07:14:19Z</time>
      </trkpt>
      <trkpt lat="49.31716" lon="1.34448">
        <ele>137</ele>
        <time>2010-05-24T07:14:20Z</time>
      </trkpt>
      <trkpt lat="49.31715" lon="1.34463">
        <ele>137</ele>
        <time>2010-05-24T07:14:21Z</time>
      </trkpt>
      <trkpt lat="49.31713" lon="1.34478">
        <ele>137</ele>
        <time>2010-05-24T07:14:22Z</time>
      </trkpt>
      <trkpt lat="49.3171" lon="1.34493">
        <ele>132</ele>
        <time>2010-05-24T07:14:23Z</time>
      </trkpt>
      <trkpt lat="49.31707" lon="1.34508">
        <ele>132</ele>
        <time>2010-05-24T07:14:24Z</time>
      </trkpt>
      <trkpt lat="49.31704" lon="1.34524">
        <ele>132</ele>
        <time>2010-05-24T07:14:25Z</time>
      </trkpt>
      <trkpt lat="49.31701" lon="1.34539">
        <ele>132</ele>
        <time>2010-05-24T07:14:26Z</time>
      </trkpt>
      <trkpt lat="49.31698" lon="1.34554">
        <ele>132</ele>
        <time>2010-05-24T07:14:27Z</time>
      </trkpt>
      <trkpt lat="49.31696" lon="1.34569">
        <ele>132</ele>
        <time>2010-05-24T07:14:28Z</time>
      </trkpt>
      <trkpt lat="49.31693" lon="1.34584">
        <ele>132</ele>
        <time>2010-05-24T07:14:29Z</time>
      </trkpt>
      <trkpt lat="49.31692" lon="1.34598">
        <ele>132</ele>
        <time>2010-05-24T07:14:30Z</time>
      </trkpt>
      <trkpt lat="49.31689" lon="1.34626">
        <ele>132</ele>
        <time>2010-05-24T07:14:32Z</time>
      </trkpt>
      <trkpt lat="49.31688" lon="1.34652">
        <ele>132</ele>
        <time>2010-05-24T07:14:34Z</time>
      </trkpt>
      <trkpt lat="49.31686" lon="1.34675">
        <ele>132</ele>
        <time>2010-05-24T07:14:36Z</time>
      </trkpt>
      <trkpt lat="49.31686" lon="1.34697">
        <ele>132</ele>
        <time>2010-05-24T07:14:38Z</time>
      </trkpt>
      <trkpt lat="49.31686" lon="1.34717">
        <ele>132</ele>
        <time>2010-05-24T07:14:40Z</time>
      </trkpt>
      <trkpt lat="49.31685" lon="1.34737">
        <ele>132</ele>
        <time>2010-05-24T07:14:42Z</time>
      </trkpt>
      <trkpt lat="49.31685" lon="1.34754">
        <ele>132</ele>
        <time>2010-05-24T07:14:44Z</time>
      </trkpt>
      <trkpt lat="49.31683" lon="1.34771">
        <ele>132</ele>
        <time>2010-05-24T07:14:46Z</time>
      </trkpt>
      <trkpt lat="49.3168" lon="1.3479">
        <ele>132</ele>
        <time>2010-05-24T07:14:49Z</time>
      </trkpt>
      <trkpt lat="49.31678" lon="1.34807">
        <ele>132</ele>
        <time>2010-05-24T07:14:51Z</time>
      </trkpt>
      <trkpt lat="49.31676" lon="1.34823">
        <ele>132</ele>
        <time>2010-05-24T07:14:53Z</time>
      </trkpt>
      <trkpt lat="49.31673" lon="1.3484">
        <ele>132</ele>
        <time>2010-05-24T07:14:55Z</time>
      </trkpt>
      <trkpt lat="49.3167" lon="1.34855">
        <ele>132</ele>
        <time>2010-05-24T07:14:57Z</time>
      </trkpt>
      <trkpt lat="49.31666" lon="1.34871">
        <ele>132</ele>
        <time>2010-05-24T07:14:59Z</time>
      </trkpt>
      <trkpt lat="49.31663" lon="1.34888">
        <ele>132</ele>
        <time>2010-05-24T07:15:01Z</time>
      </trkpt>
      <trkpt lat="49.31659" lon="1.34904">
        <ele>137</ele>
        <time>2010-05-24T07:15:03Z</time>
      </trkpt>
      <trkpt lat="49.31655" lon="1.3492">
        <ele>137</ele>
        <time>2010-05-24T07:15:05Z</time>
      </trkpt>
      <trkpt lat="49.31651" lon="1.34935">
        <ele>137</ele>
        <time>2010-05-24T07:15:07Z</time>
      </trkpt>
      <trkpt lat="49.31648" lon="1.3495">
        <ele>137</ele>
        <time>2010-05-24T07:15:09Z</time>
      </trkpt>
      <trkpt lat="49.31644" lon="1.34966">
        <ele>137</ele>
        <time>2010-05-24T07:15:11Z</time>
      </trkpt>
      <trkpt lat="49.31641" lon="1.34981">
        <ele>137</ele>
        <time>2010-05-24T07:15:13Z</time>
      </trkpt>
      <trkpt lat="49.31638" lon="1.34995">
        <ele>137</ele>
        <time>2010-05-24T07:15:15Z</time>
      </trkpt>
      <trkpt lat="49.31636" lon="1.3501">
        <ele>137</ele>
        <time>2010-05-24T07:15:17Z</time>
      </trkpt>
      <trkpt lat="49.31632" lon="1.35025">
        <ele>137</ele>
        <time>2010-05-24T07:15:19Z</time>
      </trkpt>
      <trkpt lat="49.31629" lon="1.3504">
        <ele>137</ele>
        <time>2010-05-24T07:15:21Z</time>
      </trkpt>
      <trkpt lat="49.31626" lon="1.35055">
        <ele>137</ele>
        <time>2010-05-24T07:15:23Z</time>
      </trkpt>
      <trkpt lat="49.31623" lon="1.35072">
        <ele>137</ele>
        <time>2010-05-24T07:15:25Z</time>
      </trkpt>
      <trkpt lat="49.31621" lon="1.35089">
        <ele>137</ele>
        <time>2010-05-24T07:15:27Z</time>
      </trkpt>
      <trkpt lat="49.31618" lon="1.35105">
        <ele>137</ele>
        <time>2010-05-24T07:15:29Z</time>
      </trkpt>
      <trkpt lat="49.31615" lon="1.35123">
        <ele>137</ele>
        <time>2010-05-24T07:15:31Z</time>
      </trkpt>
      <trkpt lat="49.31612" lon="1.35142">
        <ele>137</ele>
        <time>2010-05-24T07:15:33Z</time>
      </trkpt>
      <trkpt lat="49.31609" lon="1.3516">
        <ele>137</ele>
        <time>2010-05-24T07:15:35Z</time>
      </trkpt>
      <trkpt lat="49.31606" lon="1.35179">
        <ele>137</ele>
        <time>2010-05-24T07:15:37Z</time>
      </trkpt>
      <trkpt lat="49.31603" lon="1.35198">
        <ele>137</ele>
        <time>2010-05-24T07:15:39Z</time>
      </trkpt>
      <trkpt lat="49.31601" lon="1.35218">
        <ele>137</ele>
        <time>2010-05-24T07:15:41Z</time>
      </trkpt>
      <trkpt lat="49.31598" lon="1.35238">
        <ele>137</ele>
        <time>2010-05-24T07:15:43Z</time>
      </trkpt>
      <trkpt lat="49.31595" lon="1.35253">
        <ele>137</ele>
        <time>2010-05-24T07:15:45Z</time>
      </trkpt>
      <trkpt lat="49.31592" lon="1.35267">
        <ele>137</ele>
        <time>2010-05-24T07:15:47Z</time>
      </trkpt>
      <trkpt lat="49.3159" lon="1.35281">
        <ele>137</ele>
        <time>2010-05-24T07:15:49Z</time>
      </trkpt>
      <trkpt lat="49.31588" lon="1.35294">
        <ele>137</ele>
        <time>2010-05-24T07:15:51Z</time>
      </trkpt>
      <trkpt lat="49.31585" lon="1.3531">
        <ele>137</ele>
        <time>2010-05-24T07:15:53Z</time>
      </trkpt>
      <trkpt lat="49.31583" lon="1.35325">
        <ele>137</ele>
        <time>2010-05-24T07:15:55Z</time>
      </trkpt>
      <trkpt lat="49.31581" lon="1.35339">
        <ele>137</ele>
        <time>2010-05-24T07:15:57Z</time>
      </trkpt>
      <trkpt lat="49.31579" lon="1.35353">
        <ele>137</ele>
        <time>2010-05-24T07:15:59Z</time>
      </trkpt>
      <trkpt lat="49.31577" lon="1.35368">
        <ele>137</ele>
        <time>2010-05-24T07:16:01Z</time>
      </trkpt>
      <trkpt lat="49.31575" lon="1.35382">
        <ele>137</ele>
        <time>2010-05-24T07:16:03Z</time>
      </trkpt>
      <trkpt lat="49.31574" lon="1.35398">
        <ele>137</ele>
        <time>2010-05-24T07:16:05Z</time>
      </trkpt>
      <trkpt lat="49.31572" lon="1.35413">
        <ele>137</ele>
        <time>2010-05-24T07:16:07Z</time>
      </trkpt>
      <trkpt lat="49.3157" lon="1.35427">
        <ele>137</ele>
        <time>2010-05-24T07:16:09Z</time>
      </trkpt>
      <trkpt lat="49.31568" lon="1.35443">
        <ele>137</ele>
        <time>2010-05-24T07:16:11Z</time>
      </trkpt>
      <trkpt lat="49.31567" lon="1.35457">
        <ele>137</ele>
        <time>2010-05-24T07:16:13Z</time>
      </trkpt>
      <trkpt lat="49.31565" lon="1.35472">
        <ele>137</ele>
        <time>2010-05-24T07:16:15Z</time>
      </trkpt>
      <trkpt lat="49.31564" lon="1.35487">
        <ele>137</ele>
        <time>2010-05-24T07:16:17Z</time>
      </trkpt>
      <trkpt lat="49.31562" lon="1.35502">
        <ele>137</ele>
        <time>2010-05-24T07:16:19Z</time>
      </trkpt>
      <trkpt lat="49.3156" lon="1.35522">
        <ele>137</ele>
        <time>2010-05-24T07:16:22Z</time>
      </trkpt>
      <trkpt lat="49.31558" lon="1.35542">
        <ele>137</ele>
        <time>2010-05-24T07:16:25Z</time>
      </trkpt>
      <trkpt lat="49.31556" lon="1.35557">
        <ele>137</ele>
        <time>2010-05-24T07:16:27Z</time>
      </trkpt>
      <trkpt lat="49.31555" lon="1.35571">
        <ele>137</ele>
        <time>2010-05-24T07:16:29Z</time>
      </trkpt>
      <trkpt lat="49.31553" lon="1.35586">
        <ele>137</ele>
        <time>2010-05-24T07:16:31Z</time>
      </trkpt>
      <trkpt lat="49.31551" lon="1.35605">
        <ele>137</ele>
        <time>2010-05-24T07:16:34Z</time>
      </trkpt>
      <trkpt lat="49.31548" lon="1.35624">
        <ele>137</ele>
        <time>2010-05-24T07:16:37Z</time>
      </trkpt>
      <trkpt lat="49.31545" lon="1.35643">
        <ele>137</ele>
        <time>2010-05-24T07:16:40Z</time>
      </trkpt>
      <trkpt lat="49.31542" lon="1.35664">
        <ele>137</ele>
        <time>2010-05-24T07:16:43Z</time>
      </trkpt>
      <trkpt lat="49.31539" lon="1.35677">
        <ele>137</ele>
        <time>2010-05-24T07:16:45Z</time>
      </trkpt>
      <trkpt lat="49.31537" lon="1.35691">
        <ele>137</ele>
        <time>2010-05-24T07:16:47Z</time>
      </trkpt>
      <trkpt lat="49.31534" lon="1.35707">
        <ele>137</ele>
        <time>2010-05-24T07:16:49Z</time>
      </trkpt>
      <trkpt lat="49.31532" lon="1.35727">
        <ele>137</ele>
        <time>2010-05-24T07:16:52Z</time>
      </trkpt>
      <trkpt lat="49.31529" lon="1.35745">
        <ele>137</ele>
        <time>2010-05-24T07:16:55Z</time>
      </trkpt>
      <trkpt lat="49.31527" lon="1.35763">
        <ele>137</ele>
        <time>2010-05-24T07:16:58Z</time>
      </trkpt>
      <trkpt lat="49.31524" lon="1.35781">
        <ele>137</ele>
        <time>2010-05-24T07:17:01Z</time>
      </trkpt>
      <trkpt lat="49.31521" lon="1.35799">
        <ele>143</ele>
        <time>2010-05-24T07:17:04Z</time>
      </trkpt>
      <trkpt lat="49.31518" lon="1.35815">
        <ele>143</ele>
        <time>2010-05-24T07:17:07Z</time>
      </trkpt>
      <trkpt lat="49.31515" lon="1.3583">
        <ele>143</ele>
        <time>2010-05-24T07:17:10Z</time>
      </trkpt>
      <trkpt lat="49.31511" lon="1.35847">
        <ele>143</ele>
        <time>2010-05-24T07:17:14Z</time>
      </trkpt>
      <trkpt lat="49.31507" lon="1.35864">
        <ele>143</ele>
        <time>2010-05-24T07:17:18Z</time>
      </trkpt>
      <trkpt lat="49.31504" lon="1.35877">
        <ele>143</ele>
        <time>2010-05-24T07:17:21Z</time>
      </trkpt>
      <trkpt lat="49.31501" lon="1.35894">
        <ele>143</ele>
        <time>2010-05-24T07:17:25Z</time>
      </trkpt>
      <trkpt lat="49.31497" lon="1.35907">
        <ele>143</ele>
        <time>2010-05-24T07:17:29Z</time>
      </trkpt>
      <trkpt lat="49.31493" lon="1.35924">
        <ele>143</ele>
        <time>2010-05-24T07:17:33Z</time>
      </trkpt>
      <trkpt lat="49.31491" lon="1.35938">
        <ele>143</ele>
        <time>2010-05-24T07:17:36Z</time>
      </trkpt>
      <trkpt lat="49.31487" lon="1.35955">
        <ele>143</ele>
        <time>2010-05-24T07:17:40Z</time>
      </trkpt>
      <trkpt lat="49.31484" lon="1.35969">
        <ele>143</ele>
        <time>2010-05-24T07:17:45Z</time>
      </trkpt>
      <trkpt lat="49.31482" lon="1.35983">
        <ele>143</ele>
        <time>2010-05-24T07:17:49Z</time>
      </trkpt>
      <trkpt lat="49.31479" lon="1.35999">
        <ele>143</ele>
        <time>2010-05-24T07:17:53Z</time>
      </trkpt>
      <trkpt lat="49.31475" lon="1.36014">
        <ele>143</ele>
        <time>2010-05-24T07:17:57Z</time>
      </trkpt>
      <trkpt lat="49.31472" lon="1.3603">
        <ele>143</ele>
        <time>2010-05-24T07:18:01Z</time>
      </trkpt>
      <trkpt lat="49.3147" lon="1.36045">
        <ele>143</ele>
        <time>2010-05-24T07:18:04Z</time>
      </trkpt>
      <trkpt lat="49.31466" lon="1.3606">
        <ele>143</ele>
        <time>2010-05-24T07:18:07Z</time>
      </trkpt>
      <trkpt lat="49.31463" lon="1.36076">
        <ele>143</ele>
        <time>2010-05-24T07:18:10Z</time>
      </trkpt>
      <trkpt lat="49.31459" lon="1.36092">
        <ele>143</ele>
        <time>2010-05-24T07:18:13Z</time>
      </trkpt>
      <trkpt lat="49.31455" lon="1.3611">
        <ele>143</ele>
        <time>2010-05-24T07:18:16Z</time>
      </trkpt>
      <trkpt lat="49.31451" lon="1.36129">
        <ele>143</ele>
        <time>2010-05-24T07:18:19Z</time>
      </trkpt>
      <trkpt lat="49.31448" lon="1.36148">
        <ele>143</ele>
        <time>2010-05-24T07:18:22Z</time>
      </trkpt>
      <trkpt lat="49.31444" lon="1.36165">
        <ele>143</ele>
        <time>2010-05-24T07:18:25Z</time>
      </trkpt>
      <trkpt lat="49.3144" lon="1.36183">
        <ele>143</ele>
        <time>2010-05-24T07:18:28Z</time>
      </trkpt>
      <trkpt lat="49.31437" lon="1.36202">
        <ele>143</ele>
        <time>2010-05-24T07:18:31Z</time>
      </trkpt>
      <trkpt lat="49.31433" lon="1.36221">
        <ele>143</ele>
        <time>2010-05-24T07:18:34Z</time>
      </trkpt>
      <trkpt lat="49.31429" lon="1.36239">
        <ele>143</ele>
        <time>2010-05-24T07:18:37Z</time>
      </trkpt>
      <trkpt lat="49.31426" lon="1.36257">
        <ele>143</ele>
        <time>2010-05-24T07:18:40Z</time>
      </trkpt>
      <trkpt lat="49.31423" lon="1.36271">
        <ele>149</ele>
        <time>2010-05-24T07:18:42Z</time>
      </trkpt>
      <trkpt lat="49.3142" lon="1.3629">
        <ele>149</ele>
        <time>2010-05-24T07:18:45Z</time>
      </trkpt>
      <trkpt lat="49.31417" lon="1.36304">
        <ele>149</ele>
        <time>2010-05-24T07:18:47Z</time>
      </trkpt>
      <trkpt lat="49.31414" lon="1.36319">
        <ele>149</ele>
        <time>2010-05-24T07:18:49Z</time>
      </trkpt>
      <trkpt lat="49.31412" lon="1.36334">
        <ele>149</ele>
        <time>2010-05-24T07:18:51Z</time>
      </trkpt>
      <trkpt lat="49.3141" lon="1.36349">
        <ele>149</ele>
        <time>2010-05-24T07:18:53Z</time>
      </trkpt>
      <trkpt lat="49.31407" lon="1.36363">
        <ele>149</ele>
        <time>2010-05-24T07:18:55Z</time>
      </trkpt>
      <trkpt lat="49.31404" lon="1.36378">
        <ele>149</ele>
        <time>2010-05-24T07:18:57Z</time>
      </trkpt>
      <trkpt lat="49.31401" lon="1.36392">
        <ele>149</ele>
        <time>2010-05-24T07:18:59Z</time>
      </trkpt>
      <trkpt lat="49.31397" lon="1.36407">
        <ele>149</ele>
        <time>2010-05-24T07:19:01Z</time>
      </trkpt>
      <trkpt lat="49.31393" lon="1.36421">
        <ele>149</ele>
        <time>2010-05-24T07:19:03Z</time>
      </trkpt>
      <trkpt lat="49.31388" lon="1.36434">
        <ele>149</ele>
        <time>2010-05-24T07:19:05Z</time>
      </trkpt>
      <trkpt lat="49.31382" lon="1.36445">
        <ele>149</ele>
        <time>2010-05-24T07:19:07Z</time>
      </trkpt>
      <trkpt lat="49.31375" lon="1.36455">
        <ele>149</ele>
        <time>2010-05-24T07:19:09Z</time>
      </trkpt>
      <trkpt lat="49.31366" lon="1.36468">
        <ele>149</ele>
        <time>2010-05-24T07:19:12Z</time>
      </trkpt>
      <trkpt lat="49.31357" lon="1.36479">
        <ele>149</ele>
        <time>2010-05-24T07:19:15Z</time>
      </trkpt>
      <trkpt lat="49.31349" lon="1.36494">
        <ele>149</ele>
        <time>2010-05-24T07:19:18Z</time>
      </trkpt>
      <trkpt lat="49.31341" lon="1.36508">
        <ele>149</ele>
        <time>2010-05-24T07:19:21Z</time>
      </trkpt>
      <trkpt lat="49.31335" lon="1.36519">
        <ele>149</ele>
        <time>2010-05-24T07:19:23Z</time>
      </trkpt>
      <trkpt lat="49.31329" lon="1.36529">
        <ele>149</ele>
        <time>2010-05-24T07:19:25Z</time>
      </trkpt>
      <trkpt lat="49.31323" lon="1.3654">
        <ele>149</ele>
        <time>2010-05-24T07:19:27Z</time>
      </trkpt>
      <trkpt lat="49.31317" lon="1.36552">
        <ele>149</ele>
        <time>2010-05-24T07:19:29Z</time>
      </trkpt>
      <trkpt lat="49.31311" lon="1.36563">
        <ele>149</ele>
        <time>2010-05-24T07:19:31Z</time>
      </trkpt>
      <trkpt lat="49.31305" lon="1.36575">
        <ele>149</ele>
        <time>2010-05-24T07:19:33Z</time>
      </trkpt>
      <trkpt lat="49.313" lon="1.36586">
        <ele>149</ele>
        <time>2010-05-24T07:19:35Z</time>
      </trkpt>
      <trkpt lat="49.31294" lon="1.36598">
        <ele>149</ele>
        <time>2010-05-24T07:19:37Z</time>
      </trkpt>
      <trkpt lat="49.31288" lon="1.3661">
        <ele>149</ele>
        <time>2010-05-24T07:19:39Z</time>
      </trkpt>
      <trkpt lat="49.31282" lon="1.36624">
        <ele>149</ele>
        <time>2010-05-24T07:19:41Z</time>
      </trkpt>
      <trkpt lat="49.31276" lon="1.36637">
        <ele>149</ele>
        <time>2010-05-24T07:19:43Z</time>
      </trkpt>
      <trkpt lat="49.31271" lon="1.36651">
        <ele>149</ele>
        <time>2010-05-24T07:19:45Z</time>
      </trkpt>
      <trkpt lat="49.31265" lon="1.36664">
        <ele>149</ele>
        <time>2010-05-24T07:19:47Z</time>
      </trkpt>
      <trkpt lat="49.31259" lon="1.36677">
        <ele>149</ele>
        <time>2010-05-24T07:19:49Z</time>
      </trkpt>
      <trkpt lat="49.31253" lon="1.3669">
        <ele>149</ele>
        <time>2010-05-24T07:19:51Z</time>
      </trkpt>
      <trkpt lat="49.31248" lon="1.36704">
        <ele>149</ele>
        <time>2010-05-24T07:19:53Z</time>
      </trkpt>
      <trkpt lat="49.31242" lon="1.36718">
        <ele>149</ele>
        <time>2010-05-24T07:19:55Z</time>
      </trkpt>
      <trkpt lat="49.31236" lon="1.36732">
        <ele>149</ele>
        <time>2010-05-24T07:19:57Z</time>
      </trkpt>
      <trkpt lat="49.31231" lon="1.36746">
        <ele>149</ele>
        <time>2010-05-24T07:19:59Z</time>
      </trkpt>
      <trkpt lat="49.31225" lon="1.36759">
        <ele>149</ele>
        <time>2010-05-24T07:20:01Z</time>
      </trkpt>
      <trkpt lat="49.31218" lon="1.36772">
        <ele>149</ele>
        <time>2010-05-24T07:20:03Z</time>
      </trkpt>
      <trkpt lat="49.31213" lon="1.36786">
        <ele>149</ele>
        <time>2010-05-24T07:20:05Z</time>
      </trkpt>
      <trkpt lat="49.31207" lon="1.36799">
        <ele>149</ele>
        <time>2010-05-24T07:20:07Z</time>
      </trkpt>
      <trkpt lat="49.31201" lon="1.36812">
        <ele>149</ele>
        <time>2010-05-24T07:20:09Z</time>
      </trkpt>
      <trkpt lat="49.31195" lon="1.36824">
        <ele>149</ele>
        <time>2010-05-24T07:20:11Z</time>
      </trkpt>
      <trkpt lat="49.31188" lon="1.36837">
        <ele>149</ele>
        <time>2010-05-24T07:20:13Z</time>
      </trkpt>
      <trkpt lat="49.31182" lon="1.36849">
        <ele>149</ele>
        <time>2010-05-24T07:20:15Z</time>
      </trkpt>
      <trkpt lat="49.31176" lon="1.36861">
        <ele>149</ele>
        <time>2010-05-24T07:20:17Z</time>
      </trkpt>
      <trkpt lat="49.3117" lon="1.36872">
        <ele>149</ele>
        <time>2010-05-24T07:20:19Z</time>
      </trkpt>
      <trkpt lat="49.31164" lon="1.36883">
        <ele>149</ele>
        <time>2010-05-24T07:20:21Z</time>
      </trkpt>
      <trkpt lat="49.31158" lon="1.36894">
        <ele>149</ele>
        <time>2010-05-24T07:20:23Z</time>
      </trkpt>
      <trkpt lat="49.31151" lon="1.36906">
        <ele>149</ele>
        <time>2010-05-24T07:20:25Z</time>
      </trkpt>
      <trkpt lat="49.31141" lon="1.36917">
        <ele>149</ele>
        <time>2010-05-24T07:20:28Z</time>
      </trkpt>
      <trkpt lat="49.31131" lon="1.36919">
        <ele>149</ele>
        <time>2010-05-24T07:20:30Z</time>
      </trkpt>
      <trkpt lat="49.31118" lon="1.36924">
        <ele>149</ele>
        <time>2010-05-24T07:20:33Z</time>
      </trkpt>
      <trkpt lat="49.3111" lon="1.36929">
        <ele>149</ele>
        <time>2010-05-24T07:20:35Z</time>
      </trkpt>
      <trkpt lat="49.31101" lon="1.36934">
        <ele>149</ele>
        <time>2010-05-24T07:20:37Z</time>
      </trkpt>
      <trkpt lat="49.31091" lon="1.36938">
        <ele>149</ele>
        <time>2010-05-24T07:20:39Z</time>
      </trkpt>
      <trkpt lat="49.31082" lon="1.36943">
        <ele>149</ele>
        <time>2010-05-24T07:20:41Z</time>
      </trkpt>
      <trkpt lat="49.31071" lon="1.36945">
        <ele>149</ele>
        <time>2010-05-24T07:20:43Z</time>
      </trkpt>
      <trkpt lat="49.31061" lon="1.36946">
        <ele>149</ele>
        <time>2010-05-24T07:20:45Z</time>
      </trkpt>
      <trkpt lat="49.31051" lon="1.36943">
        <ele>149</ele>
        <time>2010-05-24T07:20:47Z</time>
      </trkpt>
      <trkpt lat="49.31041" lon="1.36939">
        <ele>149</ele>
        <time>2010-05-24T07:20:49Z</time>
      </trkpt>
      <trkpt lat="49.31031" lon="1.36933">
        <ele>149</ele>
        <time>2010-05-24T07:20:51Z</time>
      </trkpt>
      <trkpt lat="49.31022" lon="1.36928">
        <ele>149</ele>
        <time>2010-05-24T07:20:53Z</time>
      </trkpt>
      <trkpt lat="49.31013" lon="1.36922">
        <ele>149</ele>
        <time>2010-05-24T07:20:55Z</time>
      </trkpt>
      <trkpt lat="49.31004" lon="1.36918">
        <ele>149</ele>
        <time>2010-05-24T07:20:57Z</time>
      </trkpt>
      <trkpt lat="49.30995" lon="1.36913">
        <ele>149</ele>
        <time>2010-05-24T07:20:59Z</time>
      </trkpt>
      <trkpt lat="49.30986" lon="1.36909">
        <ele>149</ele>
        <time>2010-05-24T07:21:01Z</time>
      </trkpt>
      <trkpt lat="49.30977" lon="1.36904">
        <ele>149</ele>
        <time>2010-05-24T07:21:03Z</time>
      </trkpt>
      <trkpt lat="49.30969" lon="1.36899">
        <ele>149</ele>
        <time>2010-05-24T07:21:05Z</time>
      </trkpt>
      <trkpt lat="49.3096" lon="1.36895">
        <ele>149</ele>
        <time>2010-05-24T07:21:07Z</time>
      </trkpt>
      <trkpt lat="49.30947" lon="1.36888">
        <ele>149</ele>
        <time>2010-05-24T07:21:10Z</time>
      </trkpt>
      <trkpt lat="49.30935" lon="1.36881">
        <ele>149</ele>
        <time>2010-05-24T07:21:13Z</time>
      </trkpt>
      <trkpt lat="49.30926" lon="1.36877">
        <ele>149</ele>
        <time>2010-05-24T07:21:15Z</time>
      </trkpt>
      <trkpt lat="49.30914" lon="1.3687">
        <ele>149</ele>
        <time>2010-05-24T07:21:18Z</time>
      </trkpt>
      <trkpt lat="49.30905" lon="1.36866">
        <ele>149</ele>
        <time>2010-05-24T07:21:20Z</time>
      </trkpt>
      <trkpt lat="49.30896" lon="1.36861">
        <ele>149</ele>
        <time>2010-05-24T07:21:22Z</time>
      </trkpt>
      <trkpt lat="49.30888" lon="1.36857">
        <ele>149</ele>
        <time>2010-05-24T07:21:24Z</time>
      </trkpt>
      <trkpt lat="49.30879" lon="1.36852">
        <ele>149</ele>
        <time>2010-05-24T07:21:26Z</time>
      </trkpt>
      <trkpt lat="49.3087" lon="1.36848">
        <ele>149</ele>
        <time>2010-05-24T07:21:28Z</time>
      </trkpt>
      <trkpt lat="49.30861" lon="1.36843">
        <ele>149</ele>
        <time>2010-05-24T07:21:30Z</time>
      </trkpt>
      <trkpt lat="49.30848" lon="1.36836">
        <ele>149</ele>
        <time>2010-05-24T07:21:33Z</time>
      </trkpt>
      <trkpt lat="49.30835" lon="1.36829">
        <ele>149</ele>
        <time>2010-05-24T07:21:36Z</time>
      </trkpt>
      <trkpt lat="49.30826" lon="1.36824">
        <ele>149</ele>
        <time>2010-05-24T07:21:38Z</time>
      </trkpt>
      <trkpt lat="49.30818" lon="1.3682">
        <ele>149</ele>
        <time>2010-05-24T07:21:40Z</time>
      </trkpt>
      <trkpt lat="49.30809" lon="1.36814">
        <ele>149</ele>
        <time>2010-05-24T07:21:42Z</time>
      </trkpt>
      <trkpt lat="49.308" lon="1.36811">
        <ele>149</ele>
        <time>2010-05-24T07:21:44Z</time>
      </trkpt>
      <trkpt lat="49.30788" lon="1.36805">
        <ele>149</ele>
        <time>2010-05-24T07:21:47Z</time>
      </trkpt>
      <trkpt lat="49.30776" lon="1.36798">
        <ele>149</ele>
        <time>2010-05-24T07:21:50Z</time>
      </trkpt>
      <trkpt lat="49.30768" lon="1.36808">
        <ele>149</ele>
        <time>2010-05-24T07:21:54Z</time>
      </trkpt>
      <trkpt lat="49.30768" lon="1.36826">
        <ele>149</ele>
        <time>2010-05-24T07:21:57Z</time>
      </trkpt>
      <trkpt lat="49.30767" lon="1.36846">
        <ele>149</ele>
        <time>2010-05-24T07:22:00Z</time>
      </trkpt>
      <trkpt lat="49.30767" lon="1.36866">
        <ele>149</ele>
        <time>2010-05-24T07:22:03Z</time>
      </trkpt>
      <trkpt lat="49.30767" lon="1.36886">
        <ele>149</ele>
        <time>2010-05-24T07:22:06Z</time>
      </trkpt>
      <trkpt lat="49.30767" lon="1.36901">
        <ele>149</ele>
        <time>2010-05-24T07:22:08Z</time>
      </trkpt>
      <trkpt lat="49.30766" lon="1.36916">
        <ele>149</ele>
        <time>2010-05-24T07:22:10Z</time>
      </trkpt>
      <trkpt lat="49.30765" lon="1.3693">
        <ele>149</ele>
        <time>2010-05-24T07:22:12Z</time>
      </trkpt>
      <trkpt lat="49.30765" lon="1.36945">
        <ele>149</ele>
        <time>2010-05-24T07:22:14Z</time>
      </trkpt>
      <trkpt lat="49.30765" lon="1.3696">
        <ele>149</ele>
        <time>2010-05-24T07:22:16Z</time>
      </trkpt>
      <trkpt lat="49.30764" lon="1.36975">
        <ele>149</ele>
        <time>2010-05-24T07:22:18Z</time>
      </trkpt>
      <trkpt lat="49.30764" lon="1.3699">
        <ele>149</ele>
        <time>2010-05-24T07:22:20Z</time>
      </trkpt>
      <trkpt lat="49.30763" lon="1.37006">
        <ele>149</ele>
        <time>2010-05-24T07:22:22Z</time>
      </trkpt>
      <trkpt lat="49.30762" lon="1.37021">
        <ele>149</ele>
        <time>2010-05-24T07:22:24Z</time>
      </trkpt>
      <trkpt lat="49.30762" lon="1.37035">
        <ele>149</ele>
        <time>2010-05-24T07:22:26Z</time>
      </trkpt>
      <trkpt lat="49.30762" lon="1.3705">
        <ele>149</ele>
        <time>2010-05-24T07:22:28Z</time>
      </trkpt>
      <trkpt lat="49.30761" lon="1.37065">
        <ele>149</ele>
        <time>2010-05-24T07:22:30Z</time>
      </trkpt>
      <trkpt lat="49.30761" lon="1.37081">
        <ele>149</ele>
        <time>2010-05-24T07:22:32Z</time>
      </trkpt>
      <trkpt lat="49.3076" lon="1.37098">
        <ele>149</ele>
        <time>2010-05-24T07:22:34Z</time>
      </trkpt>
      <trkpt lat="49.3076" lon="1.37114">
        <ele>149</ele>
        <time>2010-05-24T07:22:36Z</time>
      </trkpt>
      <trkpt lat="49.3076" lon="1.3713">
        <ele>149</ele>
        <time>2010-05-24T07:22:38Z</time>
      </trkpt>
      <trkpt lat="49.30759" lon="1.37146">
        <ele>149</ele>
        <time>2010-05-24T07:22:40Z</time>
      </trkpt>
      <trkpt lat="49.30759" lon="1.37162">
        <ele>149</ele>
        <time>2010-05-24T07:22:42Z</time>
      </trkpt>
      <trkpt lat="49.30759" lon="1.37179">
        <ele>149</ele>
        <time>2010-05-24T07:22:44Z</time>
      </trkpt>
      <trkpt lat="49.30758" lon="1.37195">
        <ele>149</ele>
        <time>2010-05-24T07:22:46Z</time>
      </trkpt>
      <trkpt lat="49.30758" lon="1.37211">
        <ele>149</ele>
        <time>2010-05-24T07:22:48Z</time>
      </trkpt>
      <trkpt lat="49.30757" lon="1.37228">
        <ele>149</ele>
        <time>2010-05-24T07:22:50Z</time>
      </trkpt>
      <trkpt lat="49.30757" lon="1.37245">
        <ele>149</ele>
        <time>2010-05-24T07:22:52Z</time>
      </trkpt>
      <trkpt lat="49.30756" lon="1.37262">
        <ele>149</ele>
        <time>2010-05-24T07:22:54Z</time>
      </trkpt>
      <trkpt lat="49.30755" lon="1.37278">
        <ele>149</ele>
        <time>2010-05-24T07:22:56Z</time>
      </trkpt>
      <trkpt lat="49.30755" lon="1.37295">
        <ele>149</ele>
        <time>2010-05-24T07:22:58Z</time>
      </trkpt>
      <trkpt lat="49.30754" lon="1.37311">
        <ele>149</ele>
        <time>2010-05-24T07:23:00Z</time>
      </trkpt>
      <trkpt lat="49.30754" lon="1.37329">
        <ele>149</ele>
        <time>2010-05-24T07:23:02Z</time>
      </trkpt>
      <trkpt lat="49.30754" lon="1.37346">
        <ele>149</ele>
        <time>2010-05-24T07:23:04Z</time>
      </trkpt>
      <trkpt lat="49.30754" lon="1.37362">
        <ele>149</ele>
        <time>2010-05-24T07:23:06Z</time>
      </trkpt>
      <trkpt lat="49.30754" lon="1.37379">
        <ele>149</ele>
        <time>2010-05-24T07:23:08Z</time>
      </trkpt>
      <trkpt lat="49.30755" lon="1.37395">
        <ele>149</ele>
        <time>2010-05-24T07:23:10Z</time>
      </trkpt>
      <trkpt lat="49.30755" lon="1.37411">
        <ele>149</ele>
        <time>2010-05-24T07:23:12Z</time>
      </trkpt>
      <trkpt lat="49.30757" lon="1.37427">
        <ele>149</ele>
        <time>2010-05-24T07:23:14Z</time>
      </trkpt>
      <trkpt lat="49.30757" lon="1.37441">
        <ele>149</ele>
        <time>2010-05-24T07:23:16Z</time>
      </trkpt>
      <trkpt lat="49.30751" lon="1.37454">
        <ele>149</ele>
        <time>2010-05-24T07:23:18Z</time>
      </trkpt>
      <trkpt lat="49.30741" lon="1.37459">
        <ele>149</ele>
        <time>2010-05-24T07:23:20Z</time>
      </trkpt>
      <trkpt lat="49.3073" lon="1.37463">
        <ele>149</ele>
        <time>2010-05-24T07:23:22Z</time>
      </trkpt>
      <trkpt lat="49.30718" lon="1.37466">
        <ele>149</ele>
        <time>2010-05-24T07:23:24Z</time>
      </trkpt>
      <trkpt lat="49.30707" lon="1.37468">
        <ele>149</ele>
        <time>2010-05-24T07:23:26Z</time>
      </trkpt>
      <trkpt lat="49.30696" lon="1.37471">
        <ele>149</ele>
        <time>2010-05-24T07:23:28Z</time>
      </trkpt>
      <trkpt lat="49.30686" lon="1.37475">
        <ele>149</ele>
        <time>2010-05-24T07:23:30Z</time>
      </trkpt>
      <trkpt lat="49.30675" lon="1.37478">
        <ele>149</ele>
        <time>2010-05-24T07:23:32Z</time>
      </trkpt>
      <trkpt lat="49.30664" lon="1.37482">
        <ele>149</ele>
        <time>2010-05-24T07:23:34Z</time>
      </trkpt>
      <trkpt lat="49.30654" lon="1.37485">
        <ele>154</ele>
        <time>2010-05-24T07:23:36Z</time>
      </trkpt>
      <trkpt lat="49.30644" lon="1.37488">
        <ele>154</ele>
        <time>2010-05-24T07:23:38Z</time>
      </trkpt>
      <trkpt lat="49.30633" lon="1.37492">
        <ele>154</ele>
        <time>2010-05-24T07:23:40Z</time>
      </trkpt>
      <trkpt lat="49.30623" lon="1.37495">
        <ele>154</ele>
        <time>2010-05-24T07:23:42Z</time>
      </trkpt>
      <trkpt lat="49.30613" lon="1.37499">
        <ele>154</ele>
        <time>2010-05-24T07:23:44Z</time>
      </trkpt>
      <trkpt lat="49.30602" lon="1.37504">
        <ele>154</ele>
        <time>2010-05-24T07:23:46Z</time>
      </trkpt>
      <trkpt lat="49.30592" lon="1.3751">
        <ele>154</ele>
        <time>2010-05-24T07:23:48Z</time>
      </trkpt>
      <trkpt lat="49.3058" lon="1.37515">
        <ele>154</ele>
        <time>2010-05-24T07:23:50Z</time>
      </trkpt>
      <trkpt lat="49.30569" lon="1.3752">
        <ele>154</ele>
        <time>2010-05-24T07:23:52Z</time>
      </trkpt>
      <trkpt lat="49.30557" lon="1.37526">
        <ele>154</ele>
        <time>2010-05-24T07:23:54Z</time>
      </trkpt>
      <trkpt lat="49.30546" lon="1.37532">
        <ele>154</ele>
        <time>2010-05-24T07:23:56Z</time>
      </trkpt>
      <trkpt lat="49.30535" lon="1.3754">
        <ele>154</ele>
        <time>2010-05-24T07:23:58Z</time>
      </trkpt>
      <trkpt lat="49.30525" lon="1.37551">
        <ele>154</ele>
        <time>2010-05-24T07:24:00Z</time>
      </trkpt>
      <trkpt lat="49.30516" lon="1.37564">
        <ele>154</ele>
        <time>2010-05-24T07:24:02Z</time>
      </trkpt>
      <trkpt lat="49.30509" lon="1.37578">
        <ele>154</ele>
        <time>2010-05-24T07:24:04Z</time>
      </trkpt>
      <trkpt lat="49.30503" lon="1.37594">
        <ele>154</ele>
        <time>2010-05-24T07:24:06Z</time>
      </trkpt>
      <trkpt lat="49.30499" lon="1.37611">
        <ele>154</ele>
        <time>2010-05-24T07:24:08Z</time>
      </trkpt>
      <trkpt lat="49.30494" lon="1.37628">
        <ele>154</ele>
        <time>2010-05-24T07:24:10Z</time>
      </trkpt>
      <trkpt lat="49.30489" lon="1.37646">
        <ele>154</ele>
        <time>2010-05-24T07:24:12Z</time>
      </trkpt>
      <trkpt lat="49.30484" lon="1.37665">
        <ele>154</ele>
        <time>2010-05-24T07:24:14Z</time>
      </trkpt>
      <trkpt lat="49.30479" lon="1.37684">
        <ele>154</ele>
        <time>2010-05-24T07:24:16Z</time>
      </trkpt>
      <trkpt lat="49.30475" lon="1.37701">
        <ele>154</ele>
        <time>2010-05-24T07:24:18Z</time>
      </trkpt>
      <trkpt lat="49.30469" lon="1.3772">
        <ele>154</ele>
        <time>2010-05-24T07:24:20Z</time>
      </trkpt>
      <trkpt lat="49.30464" lon="1.37739">
        <ele>154</ele>
        <time>2010-05-24T07:24:22Z</time>
      </trkpt>
      <trkpt lat="49.30458" lon="1.37758">
        <ele>154</ele>
        <time>2010-05-24T07:24:24Z</time>
      </trkpt>
      <trkpt lat="49.30453" lon="1.37776">
        <ele>154</ele>
        <time>2010-05-24T07:24:26Z</time>
      </trkpt>
      <trkpt lat="49.30447" lon="1.37794">
        <ele>154</ele>
        <time>2010-05-24T07:24:28Z</time>
      </trkpt>
      <trkpt lat="49.30441" lon="1.37812">
        <ele>154</ele>
        <time>2010-05-24T07:24:30Z</time>
      </trkpt>
      <trkpt lat="49.30436" lon="1.3783">
        <ele>154</ele>
        <time>2010-05-24T07:24:32Z</time>
      </trkpt>
      <trkpt lat="49.30431" lon="1.37847">
        <ele>154</ele>
        <time>2010-05-24T07:24:34Z</time>
      </trkpt>
      <trkpt lat="49.30425" lon="1.37864">
        <ele>154</ele>
        <time>2010-05-24T07:24:36Z</time>
      </trkpt>
      <trkpt lat="49.30417" lon="1.37881">
        <ele>154</ele>
        <time>2010-05-24T07:24:38Z</time>
      </trkpt>
      <trkpt lat="49.30407" lon="1.37892">
        <ele>154</ele>
        <time>2010-05-24T07:24:40Z</time>
      </trkpt>
      <trkpt lat="49.30395" lon="1.37898">
        <ele>154</ele>
        <time>2010-05-24T07:24:42Z</time>
      </trkpt>
      <trkpt lat="49.30383" lon="1.37898">
        <ele>154</ele>
        <time>2010-05-24T07:24:44Z</time>
      </trkpt>
      <trkpt lat="49.30371" lon="1.37896">
        <ele>154</ele>
        <time>2010-05-24T07:24:46Z</time>
      </trkpt>
      <trkpt lat="49.30361" lon="1.37894">
        <ele>154</ele>
        <time>2010-05-24T07:24:48Z</time>
      </trkpt>
      <trkpt lat="49.3035" lon="1.37892">
        <ele>154</ele>
        <time>2010-05-24T07:24:50Z</time>
      </trkpt>
      <trkpt lat="49.3034" lon="1.37891">
        <ele>149</ele>
        <time>2010-05-24T07:24:52Z</time>
      </trkpt>
      <trkpt lat="49.30327" lon="1.37891">
        <ele>149</ele>
        <time>2010-05-24T07:24:55Z</time>
      </trkpt>
      <trkpt lat="49.30319" lon="1.37904">
        <ele>149</ele>
        <time>2010-05-24T07:24:58Z</time>
      </trkpt>
      <trkpt lat="49.30311" lon="1.37916">
        <ele>149</ele>
        <time>2010-05-24T07:25:00Z</time>
      </trkpt>
      <trkpt lat="49.30304" lon="1.37926">
        <ele>149</ele>
        <time>2010-05-24T07:25:02Z</time>
      </trkpt>
      <trkpt lat="49.30295" lon="1.37938">
        <ele>149</ele>
        <time>2010-05-24T07:25:04Z</time>
      </trkpt>
      <trkpt lat="49.30287" lon="1.37949">
        <ele>149</ele>
        <time>2010-05-24T07:25:06Z</time>
      </trkpt>
      <trkpt lat="49.30279" lon="1.3796">
        <ele>149</ele>
        <time>2010-05-24T07:25:08Z</time>
      </trkpt>
      <trkpt lat="49.30271" lon="1.3797">
        <ele>149</ele>
        <time>2010-05-24T07:25:10Z</time>
      </trkpt>
      <trkpt lat="49.30263" lon="1.37981">
        <ele>149</ele>
        <time>2010-05-24T07:25:12Z</time>
      </trkpt>
      <trkpt lat="49.30254" lon="1.37993">
        <ele>149</ele>
        <time>2010-05-24T07:25:14Z</time>
      </trkpt>
      <trkpt lat="49.30246" lon="1.38004">
        <ele>149</ele>
        <time>2010-05-24T07:25:16Z</time>
      </trkpt>
      <trkpt lat="49.30237" lon="1.38015">
        <ele>149</ele>
        <time>2010-05-24T07:25:18Z</time>
      </trkpt>
      <trkpt lat="49.30229" lon="1.38026">
        <ele>149</ele>
        <time>2010-05-24T07:25:20Z</time>
      </trkpt>
      <trkpt lat="49.30221" lon="1.38037">
        <ele>149</ele>
        <time>2010-05-24T07:25:22Z</time>
      </trkpt>
      <trkpt lat="49.30212" lon="1.38049">
        <ele>149</ele>
        <time>2010-05-24T07:25:24Z</time>
      </trkpt>
      <trkpt lat="49.30203" lon="1.3806">
        <ele>149</ele>
        <time>2010-05-24T07:25:26Z</time>
      </trkpt>
      <trkpt lat="49.30195" lon="1.38071">
        <ele>149</ele>
        <time>2010-05-24T07:25:28Z</time>
      </trkpt>
      <trkpt lat="49.30186" lon="1.38082">
        <ele>149</ele>
        <time>2010-05-24T07:25:30Z</time>
      </trkpt>
      <trkpt lat="49.30176" lon="1.38094">
        <ele>149</ele>
        <time>2010-05-24T07:25:32Z</time>
      </trkpt>
      <trkpt lat="49.30167" lon="1.38106">
        <ele>149</ele>
        <time>2010-05-24T07:25:34Z</time>
      </trkpt>
      <trkpt lat="49.30158" lon="1.38119">
        <ele>149</ele>
        <time>2010-05-24T07:25:36Z</time>
      </trkpt>
      <trkpt lat="49.30149" lon="1.38131">
        <ele>149</ele>
        <time>2010-05-24T07:25:38Z</time>
      </trkpt>
      <trkpt lat="49.30139" lon="1.38143">
        <ele>149</ele>
        <time>2010-05-24T07:25:40Z</time>
      </trkpt>
      <trkpt lat="49.30129" lon="1.38155">
        <ele>149</ele>
        <time>2010-05-24T07:25:42Z</time>
      </trkpt>
      <trkpt lat="49.30119" lon="1.38167">
        <ele>149</ele>
        <time>2010-05-24T07:25:44Z</time>
      </trkpt>
      <trkpt lat="49.30109" lon="1.3818">
        <ele>149</ele>
        <time>2010-05-24T07:25:46Z</time>
      </trkpt>
      <trkpt lat="49.301" lon="1.38192">
        <ele>149</ele>
        <time>2010-05-24T07:25:48Z</time>
      </trkpt>
      <trkpt lat="49.3009" lon="1.38205">
        <ele>149</ele>
        <time>2010-05-24T07:25:50Z</time>
      </trkpt>
      <trkpt lat="49.3008" lon="1.38218">
        <ele>149</ele>
        <time>2010-05-24T07:25:52Z</time>
      </trkpt>
      <trkpt lat="49.30071" lon="1.3823">
        <ele>149</ele>
        <time>2010-05-24T07:25:54Z</time>
      </trkpt>
      <trkpt lat="49.30061" lon="1.38242">
        <ele>149</ele>
        <time>2010-05-24T07:25:56Z</time>
      </trkpt>
      <trkpt lat="49.30051" lon="1.38254">
        <ele>149</ele>
        <time>2010-05-24T07:25:58Z</time>
      </trkpt>
      <trkpt lat="49.30039" lon="1.38266">
        <ele>149</ele>
        <time>2010-05-24T07:26:00Z</time>
      </trkpt>
      <trkpt lat="49.30028" lon="1.38278">
        <ele>149</ele>
        <time>2010-05-24T07:26:02Z</time>
      </trkpt>
      <trkpt lat="49.30016" lon="1.38289">
        <ele>144</ele>
        <time>2010-05-24T07:26:04Z</time>
      </trkpt>
      <trkpt lat="49.30005" lon="1.383">
        <ele>144</ele>
        <time>2010-05-24T07:26:06Z</time>
      </trkpt>
      <trkpt lat="49.29994" lon="1.38311">
        <ele>144</ele>
        <time>2010-05-24T07:26:08Z</time>
      </trkpt>
      <trkpt lat="49.29983" lon="1.38322">
        <ele>144</ele>
        <time>2010-05-24T07:26:10Z</time>
      </trkpt>
      <trkpt lat="49.29972" lon="1.38333">
        <ele>144</ele>
        <time>2010-05-24T07:26:12Z</time>
      </trkpt>
      <trkpt lat="49.29961" lon="1.38343">
        <ele>144</ele>
        <time>2010-05-24T07:26:14Z</time>
      </trkpt>
      <trkpt lat="49.29951" lon="1.38354">
        <ele>144</ele>
        <time>2010-05-24T07:26:16Z</time>
      </trkpt>
      <trkpt lat="49.29939" lon="1.38364">
        <ele>144</ele>
        <time>2010-05-24T07:26:18Z</time>
      </trkpt>
      <trkpt lat="49.29929" lon="1.38375">
        <ele>144</ele>
        <time>2010-05-24T07:26:20Z</time>
      </trkpt>
      <trkpt lat="49.29918" lon="1.38385">
        <ele>144</ele>
        <time>2010-05-24T07:26:22Z</time>
      </trkpt>
      <trkpt lat="49.29907" lon="1.38394">
        <ele>144</ele>
        <time>2010-05-24T07:26:24Z</time>
      </trkpt>
      <trkpt lat="49.29897" lon="1.38403">
        <ele>144</ele>
        <time>2010-05-24T07:26:26Z</time>
      </trkpt>
      <trkpt lat="49.29887" lon="1.38412">
        <ele>144</ele>
        <time>2010-05-24T07:26:28Z</time>
      </trkpt>
      <trkpt lat="49.29876" lon="1.3842">
        <ele>144</ele>
        <time>2010-05-24T07:26:30Z</time>
      </trkpt>
      <trkpt lat="49.29866" lon="1.38428">
        <ele>144</ele>
        <time>2010-05-24T07:26:32Z</time>
      </trkpt>
      <trkpt lat="49.29857" lon="1.38436">
        <ele>144</ele>
        <time>2010-05-24T07:26:34Z</time>
      </trkpt>
      <trkpt lat="49.29847" lon="1.38443">
        <ele>144</ele>
        <time>2010-05-24T07:26:36Z</time>
      </trkpt>
      <trkpt lat="49.29837" lon="1.38449">
        <ele>139</ele>
        <time>2010-05-24T07:26:38Z</time>
      </trkpt>
      <trkpt lat="49.29828" lon="1.38455">
        <ele>139</ele>
        <time>2010-05-24T07:26:40Z</time>
      </trkpt>
      <trkpt lat="49.29818" lon="1.38461">
        <ele>139</ele>
        <time>2010-05-24T07:26:42Z</time>
      </trkpt>
      <trkpt lat="49.29809" lon="1.38464">
        <ele>139</ele>
        <time>2010-05-24T07:26:44Z</time>
      </trkpt>
      <trkpt lat="49.29796" lon="1.38464">
        <ele>139</ele>
        <time>2010-05-24T07:26:47Z</time>
      </trkpt>
      <trkpt lat="49.29786" lon="1.38471">
        <ele>139</ele>
        <time>2010-05-24T07:26:50Z</time>
      </trkpt>
      <trkpt lat="49.29782" lon="1.38483">
        <ele>139</ele>
        <time>2010-05-24T07:26:53Z</time>
      </trkpt>
      <trkpt lat="49.29779" lon="1.38499">
        <ele>139</ele>
        <time>2010-05-24T07:26:56Z</time>
      </trkpt>
      <trkpt lat="49.29775" lon="1.38514">
        <ele>139</ele>
        <time>2010-05-24T07:26:59Z</time>
      </trkpt>
      <trkpt lat="49.2977" lon="1.3853">
        <ele>139</ele>
        <time>2010-05-24T07:27:02Z</time>
      </trkpt>
      <trkpt lat="49.29767" lon="1.38547">
        <ele>139</ele>
        <time>2010-05-24T07:27:05Z</time>
      </trkpt>
      <trkpt lat="49.29763" lon="1.38563">
        <ele>139</ele>
        <time>2010-05-24T07:27:08Z</time>
      </trkpt>
      <trkpt lat="49.29759" lon="1.3858">
        <ele>139</ele>
        <time>2010-05-24T07:27:11Z</time>
      </trkpt>
      <trkpt lat="49.29754" lon="1.38596">
        <ele>139</ele>
        <time>2010-05-24T07:27:14Z</time>
      </trkpt>
      <trkpt lat="49.29749" lon="1.38611">
        <ele>139</ele>
        <time>2010-05-24T07:27:17Z</time>
      </trkpt>
      <trkpt lat="49.29743" lon="1.38625">
        <ele>139</ele>
        <time>2010-05-24T07:27:20Z</time>
      </trkpt>
      <trkpt lat="49.29737" lon="1.38641">
        <ele>139</ele>
        <time>2010-05-24T07:27:23Z</time>
      </trkpt>
      <trkpt lat="49.29731" lon="1.38656">
        <ele>139</ele>
        <time>2010-05-24T07:27:26Z</time>
      </trkpt>
      <trkpt lat="49.29724" lon="1.3867">
        <ele>139</ele>
        <time>2010-05-24T07:27:29Z</time>
      </trkpt>
      <trkpt lat="49.29718" lon="1.38685">
        <ele>139</ele>
        <time>2010-05-24T07:27:32Z</time>
      </trkpt>
      <trkpt lat="49.29712" lon="1.38696">
        <ele>139</ele>
        <time>2010-05-24T07:27:35Z</time>
      </trkpt>
      <trkpt lat="49.29706" lon="1.38707">
        <ele>139</ele>
        <time>2010-05-24T07:27:38Z</time>
      </trkpt>
      <trkpt lat="49.297" lon="1.38718">
        <ele>139</ele>
        <time>2010-05-24T07:27:41Z</time>
      </trkpt>
      <trkpt lat="49.29693" lon="1.38728">
        <ele>139</ele>
        <time>2010-05-24T07:27:44Z</time>
      </trkpt>
      <trkpt lat="49.29685" lon="1.38737">
        <ele>139</ele>
        <time>2010-05-24T07:27:47Z</time>
      </trkpt>
      <trkpt lat="49.29676" lon="1.38744">
        <ele>139</ele>
        <time>2010-05-24T07:27:50Z</time>
      </trkpt>
      <trkpt lat="49.29667" lon="1.38752">
        <ele>139</ele>
        <time>2010-05-24T07:27:53Z</time>
      </trkpt>
      <trkpt lat="49.29658" lon="1.38759">
        <ele>139</ele>
        <time>2010-05-24T07:27:56Z</time>
      </trkpt>
      <trkpt lat="49.29648" lon="1.38766">
        <ele>139</ele>
        <time>2010-05-24T07:27:59Z</time>
      </trkpt>
      <trkpt lat="49.29639" lon="1.38773">
        <ele>139</ele>
        <time>2010-05-24T07:28:02Z</time>
      </trkpt>
      <trkpt lat="49.2963" lon="1.38779">
        <ele>139</ele>
        <time>2010-05-24T07:28:05Z</time>
      </trkpt>
      <trkpt lat="49.2962" lon="1.38785">
        <ele>139</ele>
        <time>2010-05-24T07:28:08Z</time>
      </trkpt>
      <trkpt lat="49.2961" lon="1.38792">
        <ele>139</ele>
        <time>2010-05-24T07:28:11Z</time>
      </trkpt>
      <trkpt lat="49.29601" lon="1.38799">
        <ele>139</ele>
        <time>2010-05-24T07:28:14Z</time>
      </trkpt>
      <trkpt lat="49.2959" lon="1.38807">
        <ele>139</ele>
        <time>2010-05-24T07:28:17Z</time>
      </trkpt>
      <trkpt lat="49.29579" lon="1.38814">
        <ele>139</ele>
        <time>2010-05-24T07:28:20Z</time>
      </trkpt>
      <trkpt lat="49.29568" lon="1.38822">
        <ele>139</ele>
        <time>2010-05-24T07:28:23Z</time>
      </trkpt>
      <trkpt lat="49.29556" lon="1.3883">
        <ele>139</ele>
        <time>2010-05-24T07:28:26Z</time>
      </trkpt>
      <trkpt lat="49.29545" lon="1.38837">
        <ele>139</ele>
        <time>2010-05-24T07:28:29Z</time>
      </trkpt>
      <trkpt lat="49.29534" lon="1.38845">
        <ele>139</ele>
        <time>2010-05-24T07:28:32Z</time>
      </trkpt>
      <trkpt lat="49.29524" lon="1.38852">
        <ele>139</ele>
        <time>2010-05-24T07:28:35Z</time>
      </trkpt>
      <trkpt lat="49.29515" lon="1.38858">
        <ele>139</ele>
        <time>2010-05-24T07:28:38Z</time>
      </trkpt>
      <trkpt lat="49.29506" lon="1.38864">
        <ele>139</ele>
        <time>2010-05-24T07:28:41Z</time>
      </trkpt>
      <trkpt lat="49.29496" lon="1.38872">
        <ele>144</ele>
        <time>2010-05-24T07:28:44Z</time>
      </trkpt>
      <trkpt lat="49.29487" lon="1.38878">
        <ele>144</ele>
        <time>2010-05-24T07:28:47Z</time>
      </trkpt>
      <trkpt lat="49.29478" lon="1.38883">
        <ele>144</ele>
        <time>2010-05-24T07:28:50Z</time>
      </trkpt>
      <trkpt lat="49.29469" lon="1.3889">
        <ele>144</ele>
        <time>2010-05-24T07:28:53Z</time>
      </trkpt>
      <trkpt lat="49.2946" lon="1.38896">
        <ele>144</ele>
        <time>2010-05-24T07:28:56Z</time>
      </trkpt>
      <trkpt lat="49.2945" lon="1.38903">
        <ele>144</ele>
        <time>2010-05-24T07:29:00Z</time>
      </trkpt>
      <trkpt lat="49.2944" lon="1.3891">
        <ele>144</ele>
        <time>2010-05-24T07:29:04Z</time>
      </trkpt>
      <trkpt lat="49.29431" lon="1.38916">
        <ele>144</ele>
        <time>2010-05-24T07:29:07Z</time>
      </trkpt>
      <trkpt lat="49.29422" lon="1.38922">
        <ele>144</ele>
        <time>2010-05-24T07:29:10Z</time>
      </trkpt>
      <trkpt lat="49.29414" lon="1.38928">
        <ele>144</ele>
        <time>2010-05-24T07:29:13Z</time>
      </trkpt>
      <trkpt lat="49.29403" lon="1.38935">
        <ele>144</ele>
        <time>2010-05-24T07:29:17Z</time>
      </trkpt>
      <trkpt lat="49.29391" lon="1.38942">
        <ele>144</ele>
        <time>2010-05-24T07:29:21Z</time>
      </trkpt>
      <trkpt lat="49.29383" lon="1.38949">
        <ele>144</ele>
        <time>2010-05-24T07:29:24Z</time>
      </trkpt>
      <trkpt lat="49.29373" lon="1.38955">
        <ele>144</ele>
        <time>2010-05-24T07:29:27Z</time>
      </trkpt>
      <trkpt lat="49.29365" lon="1.38961">
        <ele>144</ele>
        <time>2010-05-24T07:29:30Z</time>
      </trkpt>
      <trkpt lat="49.29357" lon="1.38968">
        <ele>144</ele>
        <time>2010-05-24T07:29:33Z</time>
      </trkpt>
      <trkpt lat="49.29348" lon="1.38974">
        <ele>144</ele>
        <time>2010-05-24T07:29:36Z</time>
      </trkpt>
      <trkpt lat="49.29338" lon="1.38981">
        <ele>144</ele>
        <time>2010-05-24T07:29:40Z</time>
      </trkpt>
      <trkpt lat="49.2933" lon="1.38987">
        <ele>144</ele>
        <time>2010-05-24T07:29:43Z</time>
      </trkpt>
      <trkpt lat="49.29319" lon="1.38995">
        <ele>144</ele>
        <time>2010-05-24T07:29:47Z</time>
      </trkpt>
      <trkpt lat="49.2931" lon="1.39001">
        <ele>144</ele>
        <time>2010-05-24T07:29:50Z</time>
      </trkpt>
      <trkpt lat="49.29302" lon="1.39007">
        <ele>144</ele>
        <time>2010-05-24T07:29:53Z</time>
      </trkpt>
      <trkpt lat="49.29293" lon="1.39013">
        <ele>144</ele>
        <time>2010-05-24T07:29:56Z</time>
      </trkpt>
      <trkpt lat="49.29284" lon="1.39019">
        <ele>144</ele>
        <time>2010-05-24T07:29:59Z</time>
      </trkpt>
      <trkpt lat="49.29275" lon="1.39025">
        <ele>149</ele>
        <time>2010-05-24T07:30:02Z</time>
      </trkpt>
      <trkpt lat="49.29266" lon="1.39032">
        <ele>149</ele>
        <time>2010-05-24T07:30:05Z</time>
      </trkpt>
      <trkpt lat="49.29257" lon="1.39039">
        <ele>149</ele>
        <time>2010-05-24T07:30:08Z</time>
      </trkpt>
      <trkpt lat="49.29248" lon="1.39045">
        <ele>149</ele>
        <time>2010-05-24T07:30:11Z</time>
      </trkpt>
      <trkpt lat="49.29238" lon="1.39051">
        <ele>149</ele>
        <time>2010-05-24T07:30:14Z</time>
      </trkpt>
      <trkpt lat="49.29227" lon="1.39058">
        <ele>149</ele>
        <time>2010-05-24T07:30:17Z</time>
      </trkpt>
      <trkpt lat="49.29217" lon="1.39066">
        <ele>149</ele>
        <time>2010-05-24T07:30:20Z</time>
      </trkpt>
      <trkpt lat="49.29206" lon="1.39074">
        <ele>149</ele>
        <time>2010-05-24T07:30:23Z</time>
      </trkpt>
      <trkpt lat="49.29195" lon="1.39082">
        <ele>149</ele>
        <time>2010-05-24T07:30:26Z</time>
      </trkpt>
      <trkpt lat="49.29183" lon="1.3909">
        <ele>149</ele>
        <time>2010-05-24T07:30:29Z</time>
      </trkpt>
      <trkpt lat="49.2917" lon="1.39097">
        <ele>149</ele>
        <time>2010-05-24T07:30:32Z</time>
      </trkpt>
      <trkpt lat="49.29159" lon="1.39106">
        <ele>149</ele>
        <time>2010-05-24T07:30:35Z</time>
      </trkpt>
      <trkpt lat="49.29148" lon="1.39115">
        <ele>149</ele>
        <time>2010-05-24T07:30:38Z</time>
      </trkpt>
      <trkpt lat="49.29139" lon="1.39119">
        <ele>149</ele>
        <time>2010-05-24T07:30:40Z</time>
      </trkpt>
      <trkpt lat="49.29126" lon="1.39128">
        <ele>149</ele>
        <time>2010-05-24T07:30:43Z</time>
      </trkpt>
      <trkpt lat="49.29118" lon="1.39133">
        <ele>149</ele>
        <time>2010-05-24T07:30:45Z</time>
      </trkpt>
      <trkpt lat="49.29109" lon="1.39137">
        <ele>149</ele>
        <time>2010-05-24T07:30:47Z</time>
      </trkpt>
      <trkpt lat="49.291" lon="1.39143">
        <ele>149</ele>
        <time>2010-05-24T07:30:49Z</time>
      </trkpt>
      <trkpt lat="49.29091" lon="1.39149">
        <ele>149</ele>
        <time>2010-05-24T07:30:51Z</time>
      </trkpt>
      <trkpt lat="49.29082" lon="1.39156">
        <ele>149</ele>
        <time>2010-05-24T07:30:53Z</time>
      </trkpt>
      <trkpt lat="49.29073" lon="1.39163">
        <ele>149</ele>
        <time>2010-05-24T07:30:55Z</time>
      </trkpt>
      <trkpt lat="49.29063" lon="1.39171">
        <ele>149</ele>
        <time>2010-05-24T07:30:57Z</time>
      </trkpt>
      <trkpt lat="49.29054" lon="1.39178">
        <ele>149</ele>
        <time>2010-05-24T07:30:59Z</time>
      </trkpt>
      <trkpt lat="49.29045" lon="1.39184">
        <ele>149</ele>
        <time>2010-05-24T07:31:01Z</time>
      </trkpt>
      <trkpt lat="49.29036" lon="1.3919">
        <ele>149</ele>
        <time>2010-05-24T07:31:03Z</time>
      </trkpt>
      <trkpt lat="49.29026" lon="1.39196">
        <ele>149</ele>
        <time>2010-05-24T07:31:06Z</time>
      </trkpt>
      <trkpt lat="49.29021" lon="1.3921">
        <ele>149</ele>
        <time>2010-05-24T07:31:09Z</time>
      </trkpt>
      <trkpt lat="49.29021" lon="1.39231">
        <ele>149</ele>
        <time>2010-05-24T07:31:12Z</time>
      </trkpt>
      <trkpt lat="49.29023" lon="1.39246">
        <ele>149</ele>
        <time>2010-05-24T07:31:14Z</time>
      </trkpt>
      <trkpt lat="49.29025" lon="1.3926">
        <ele>149</ele>
        <time>2010-05-24T07:31:16Z</time>
      </trkpt>
      <trkpt lat="49.29027" lon="1.39276">
        <ele>149</ele>
        <time>2010-05-24T07:31:18Z</time>
      </trkpt>
      <trkpt lat="49.2903" lon="1.39291">
        <ele>149</ele>
        <time>2010-05-24T07:31:20Z</time>
      </trkpt>
      <trkpt lat="49.29033" lon="1.39306">
        <ele>149</ele>
        <time>2010-05-24T07:31:22Z</time>
      </trkpt>
      <trkpt lat="49.29038" lon="1.39321">
        <ele>149</ele>
        <time>2010-05-24T07:31:24Z</time>
      </trkpt>
      <trkpt lat="49.29042" lon="1.39335">
        <ele>149</ele>
        <time>2010-05-24T07:31:26Z</time>
      </trkpt>
      <trkpt lat="49.29048" lon="1.39349">
        <ele>149</ele>
        <time>2010-05-24T07:31:28Z</time>
      </trkpt>
      <trkpt lat="49.29054" lon="1.39364">
        <ele>149</ele>
        <time>2010-05-24T07:31:30Z</time>
      </trkpt>
      <trkpt lat="49.29062" lon="1.39377">
        <ele>149</ele>
        <time>2010-05-24T07:31:32Z</time>
      </trkpt>
      <trkpt lat="49.29069" lon="1.39392">
        <ele>149</ele>
        <time>2010-05-24T07:31:34Z</time>
      </trkpt>
      <trkpt lat="49.29076" lon="1.39406">
        <ele>149</ele>
        <time>2010-05-24T07:31:36Z</time>
      </trkpt>
      <trkpt lat="49.29085" lon="1.39419">
        <ele>149</ele>
        <time>2010-05-24T07:31:38Z</time>
      </trkpt>
      <trkpt lat="49.29093" lon="1.39434">
        <ele>149</ele>
        <time>2010-05-24T07:31:40Z</time>
      </trkpt>
      <trkpt lat="49.29101" lon="1.39448">
        <ele>149</ele>
        <time>2010-05-24T07:31:42Z</time>
      </trkpt>
      <trkpt lat="49.29109" lon="1.39463">
        <ele>149</ele>
        <time>2010-05-24T07:31:44Z</time>
      </trkpt>
      <trkpt lat="49.29118" lon="1.39479">
        <ele>149</ele>
        <time>2010-05-24T07:31:46Z</time>
      </trkpt>
      <trkpt lat="49.29126" lon="1.39493">
        <ele>149</ele>
        <time>2010-05-24T07:31:48Z</time>
      </trkpt>
      <trkpt lat="49.29135" lon="1.39508">
        <ele>149</ele>
        <time>2010-05-24T07:31:50Z</time>
      </trkpt>
      <trkpt lat="49.29143" lon="1.39524">
        <ele>149</ele>
        <time>2010-05-24T07:31:52Z</time>
      </trkpt>
      <trkpt lat="49.29152" lon="1.39539">
        <ele>149</ele>
        <time>2010-05-24T07:31:54Z</time>
      </trkpt>
      <trkpt lat="49.2916" lon="1.39554">
        <ele>149</ele>
        <time>2010-05-24T07:31:56Z</time>
      </trkpt>
      <trkpt lat="49.29169" lon="1.3957">
        <ele>149</ele>
        <time>2010-05-24T07:31:58Z</time>
      </trkpt>
      <trkpt lat="49.29178" lon="1.39586">
        <ele>149</ele>
        <time>2010-05-24T07:32:00Z</time>
      </trkpt>
      <trkpt lat="49.29187" lon="1.39602">
        <ele>144</ele>
        <time>2010-05-24T07:32:02Z</time>
      </trkpt>
      <trkpt lat="49.29196" lon="1.39619">
        <ele>144</ele>
        <time>2010-05-24T07:32:04Z</time>
      </trkpt>
      <trkpt lat="49.29206" lon="1.39636">
        <ele>144</ele>
        <time>2010-05-24T07:32:06Z</time>
      </trkpt>
      <trkpt lat="49.29215" lon="1.39654">
        <ele>144</ele>
        <time>2010-05-24T07:32:08Z</time>
      </trkpt>
      <trkpt lat="49.29224" lon="1.39673">
        <ele>144</ele>
        <time>2010-05-24T07:32:10Z</time>
      </trkpt>
      <trkpt lat="49.29234" lon="1.39692">
        <ele>144</ele>
        <time>2010-05-24T07:32:12Z</time>
      </trkpt>
      <trkpt lat="49.29244" lon="1.3971">
        <ele>144</ele>
        <time>2010-05-24T07:32:14Z</time>
      </trkpt>
      <trkpt lat="49.29254" lon="1.39729">
        <ele>144</ele>
        <time>2010-05-24T07:32:16Z</time>
      </trkpt>
      <trkpt lat="49.29264" lon="1.39747">
        <ele>144</ele>
        <time>2010-05-24T07:32:18Z</time>
      </trkpt>
      <trkpt lat="49.29275" lon="1.39764">
        <ele>144</ele>
        <time>2010-05-24T07:32:20Z</time>
      </trkpt>
      <trkpt lat="49.29286" lon="1.3978">
        <ele>144</ele>
        <time>2010-05-24T07:32:22Z</time>
      </trkpt>
      <trkpt lat="49.29296" lon="1.39795">
        <ele>138</ele>
        <time>2010-05-24T07:32:24Z</time>
      </trkpt>
      <trkpt lat="49.29304" lon="1.39808">
        <ele>138</ele>
        <time>2010-05-24T07:32:26Z</time>
      </trkpt>
      <trkpt lat="49.29303" lon="1.39826">
        <ele>138</ele>
        <time>2010-05-24T07:32:29Z</time>
      </trkpt>
      <trkpt lat="49.29298" lon="1.39843">
        <ele>138</ele>
        <time>2010-05-24T07:32:32Z</time>
      </trkpt>
      <trkpt lat="49.2929" lon="1.3986">
        <ele>138</ele>
        <time>2010-05-24T07:32:35Z</time>
      </trkpt>
      <trkpt lat="49.29283" lon="1.39877">
        <ele>138</ele>
        <time>2010-05-24T07:32:38Z</time>
      </trkpt>
      <trkpt lat="49.29277" lon="1.39889">
        <ele>138</ele>
        <time>2010-05-24T07:32:40Z</time>
      </trkpt>
      <trkpt lat="49.29271" lon="1.39901">
        <ele>138</ele>
        <time>2010-05-24T07:32:42Z</time>
      </trkpt>
      <trkpt lat="49.29264" lon="1.39913">
        <ele>138</ele>
        <time>2010-05-24T07:32:44Z</time>
      </trkpt>
      <trkpt lat="49.29257" lon="1.39924">
        <ele>138</ele>
        <time>2010-05-24T07:32:46Z</time>
      </trkpt>
      <trkpt lat="49.2925" lon="1.39935">
        <ele>138</ele>
        <time>2010-05-24T07:32:48Z</time>
      </trkpt>
      <trkpt lat="49.29243" lon="1.39946">
        <ele>138</ele>
        <time>2010-05-24T07:32:50Z</time>
      </trkpt>
      <trkpt lat="49.29235" lon="1.39957">
        <ele>138</ele>
        <time>2010-05-24T07:32:52Z</time>
      </trkpt>
      <trkpt lat="49.29227" lon="1.39966">
        <ele>138</ele>
        <time>2010-05-24T07:32:54Z</time>
      </trkpt>
      <trkpt lat="49.29219" lon="1.39975">
        <ele>138</ele>
        <time>2010-05-24T07:32:56Z</time>
      </trkpt>
      <trkpt lat="49.29212" lon="1.39984">
        <ele>138</ele>
        <time>2010-05-24T07:32:58Z</time>
      </trkpt>
      <trkpt lat="49.29204" lon="1.39993">
        <ele>138</ele>
        <time>2010-05-24T07:33:00Z</time>
      </trkpt>
      <trkpt lat="49.29196" lon="1.40002">
        <ele>138</ele>
        <time>2010-05-24T07:33:02Z</time>
      </trkpt>
      <trkpt lat="49.29189" lon="1.40011">
        <ele>138</ele>
        <time>2010-05-24T07:33:04Z</time>
      </trkpt>
      <trkpt lat="49.29181" lon="1.4002">
        <ele>138</ele>
        <time>2010-05-24T07:33:06Z</time>
      </trkpt>
      <trkpt lat="49.29173" lon="1.40029">
        <ele>138</ele>
        <time>2010-05-24T07:33:08Z</time>
      </trkpt>
      <trkpt lat="49.29165" lon="1.40038">
        <ele>138</ele>
        <time>2010-05-24T07:33:10Z</time>
      </trkpt>
      <trkpt lat="49.29157" lon="1.40046">
        <ele>138</ele>
        <time>2010-05-24T07:33:12Z</time>
      </trkpt>
      <trkpt lat="49.29149" lon="1.40055">
        <ele>138</ele>
        <time>2010-05-24T07:33:14Z</time>
      </trkpt>
      <trkpt lat="49.2914" lon="1.40064">
        <ele>138</ele>
        <time>2010-05-24T07:33:16Z</time>
      </trkpt>
      <trkpt lat="49.29133" lon="1.40072">
        <ele>138</ele>
        <time>2010-05-24T07:33:18Z</time>
      </trkpt>
      <trkpt lat="49.29125" lon="1.40081">
        <ele>138</ele>
        <time>2010-05-24T07:33:20Z</time>
      </trkpt>
      <trkpt lat="49.29113" lon="1.40091">
        <ele>138</ele>
        <time>2010-05-24T07:33:23Z</time>
      </trkpt>
      <trkpt lat="49.29105" lon="1.40097">
        <ele>138</ele>
        <time>2010-05-24T07:33:25Z</time>
      </trkpt>
      <trkpt lat="49.29093" lon="1.40105">
        <ele>138</ele>
        <time>2010-05-24T07:33:28Z</time>
      </trkpt>
      <trkpt lat="49.29082" lon="1.40116">
        <ele>138</ele>
        <time>2010-05-24T07:33:31Z</time>
      </trkpt>
      <trkpt lat="49.2907" lon="1.40126">
        <ele>138</ele>
        <time>2010-05-24T07:33:34Z</time>
      </trkpt>
      <trkpt lat="49.29058" lon="1.40134">
        <ele>138</ele>
        <time>2010-05-24T07:33:37Z</time>
      </trkpt>
      <trkpt lat="49.29046" lon="1.40142">
        <ele>138</ele>
        <time>2010-05-24T07:33:40Z</time>
      </trkpt>
      <trkpt lat="49.29034" lon="1.40149">
        <ele>138</ele>
        <time>2010-05-24T07:33:43Z</time>
      </trkpt>
      <trkpt lat="49.29022" lon="1.40155">
        <ele>138</ele>
        <time>2010-05-24T07:33:46Z</time>
      </trkpt>
      <trkpt lat="49.2901" lon="1.40162">
        <ele>138</ele>
        <time>2010-05-24T07:33:49Z</time>
      </trkpt>
      <trkpt lat="49.29001" lon="1.40167">
        <ele>138</ele>
        <time>2010-05-24T07:33:51Z</time>
      </trkpt>
      <trkpt lat="49.28989" lon="1.40173">
        <ele>138</ele>
        <time>2010-05-24T07:33:54Z</time>
      </trkpt>
      <trkpt lat="49.28977" lon="1.40179">
        <ele>138</ele>
        <time>2010-05-24T07:33:57Z</time>
      </trkpt>
      <trkpt lat="49.28965" lon="1.40186">
        <ele>138</ele>
        <time>2010-05-24T07:34:00Z</time>
      </trkpt>
      <trkpt lat="49.28953" lon="1.40192">
        <ele>138</ele>
        <time>2010-05-24T07:34:03Z</time>
      </trkpt>
      <trkpt lat="49.28945" lon="1.40203">
        <ele>138</ele>
        <time>2010-05-24T07:34:06Z</time>
      </trkpt>
      <trkpt lat="49.28947" lon="1.40219">
        <ele>138</ele>
        <time>2010-05-24T07:34:09Z</time>
      </trkpt>
      <trkpt lat="49.28958" lon="1.4023">
        <ele>138</ele>
        <time>2010-05-24T07:34:12Z</time>
      </trkpt>
      <trkpt lat="49.28965" lon="1.40238">
        <ele>138</ele>
        <time>2010-05-24T07:34:14Z</time>
      </trkpt>
      <trkpt lat="49.28974" lon="1.40248">
        <ele>138</ele>
        <time>2010-05-24T07:34:16Z</time>
      </trkpt>
      <trkpt lat="49.28981" lon="1.40259">
        <ele>138</ele>
        <time>2010-05-24T07:34:18Z</time>
      </trkpt>
      <trkpt lat="49.28989" lon="1.40267">
        <ele>138</ele>
        <time>2010-05-24T07:34:20Z</time>
      </trkpt>
      <trkpt lat="49.28996" lon="1.4028">
        <ele>138</ele>
        <time>2010-05-24T07:34:22Z</time>
      </trkpt>
      <trkpt lat="49.28997" lon="1.40294">
        <ele>138</ele>
        <time>2010-05-24T07:34:24Z</time>
      </trkpt>
      <trkpt lat="49.28991" lon="1.40308">
        <ele>138</ele>
        <time>2010-05-24T07:34:26Z</time>
      </trkpt>
      <trkpt lat="49.2898" lon="1.40313">
        <ele>138</ele>
        <time>2010-05-24T07:34:28Z</time>
      </trkpt>
      <trkpt lat="49.28971" lon="1.4032">
        <ele>138</ele>
        <time>2010-05-24T07:34:30Z</time>
      </trkpt>
      <trkpt lat="49.28962" lon="1.40329">
        <ele>138</ele>
        <time>2010-05-24T07:34:32Z</time>
      </trkpt>
      <trkpt lat="49.28955" lon="1.40341">
        <ele>138</ele>
        <time>2010-05-24T07:34:34Z</time>
      </trkpt>
      <trkpt lat="49.28954" lon="1.40357">
        <ele>138</ele>
        <time>2010-05-24T07:34:36Z</time>
      </trkpt>
      <trkpt lat="49.28957" lon="1.40371">
        <ele>138</ele>
        <time>2010-05-24T07:34:38Z</time>
      </trkpt>
      <trkpt lat="49.28968" lon="1.40375">
        <ele>138</ele>
        <time>2010-05-24T07:34:40Z</time>
      </trkpt>
      <trkpt lat="49.28979" lon="1.40389">
        <ele>138</ele>
        <time>2010-05-24T07:34:43Z</time>
      </trkpt>
      <trkpt lat="49.28988" lon="1.40402">
        <ele>138</ele>
        <time>2010-05-24T07:34:46Z</time>
      </trkpt>
      <trkpt lat="49.28995" lon="1.40418">
        <ele>138</ele>
        <time>2010-05-24T07:34:49Z</time>
      </trkpt>
      <trkpt lat="49.28998" lon="1.40432">
        <ele>138</ele>
        <time>2010-05-24T07:34:51Z</time>
      </trkpt>
      <trkpt lat="49.28997" lon="1.40446">
        <ele>138</ele>
        <time>2010-05-24T07:34:53Z</time>
      </trkpt>
      <trkpt lat="49.28991" lon="1.40456">
        <ele>138</ele>
        <time>2010-05-24T07:34:55Z</time>
      </trkpt>
      <trkpt lat="49.28982" lon="1.40471">
        <ele>138</ele>
        <time>2010-05-24T07:34:58Z</time>
      </trkpt>
      <trkpt lat="49.28973" lon="1.40485">
        <ele>138</ele>
        <time>2010-05-24T07:35:01Z</time>
      </trkpt>
      <trkpt lat="49.28966" lon="1.40495">
        <ele>144</ele>
        <time>2010-05-24T07:35:03Z</time>
      </trkpt>
      <trkpt lat="49.28961" lon="1.40506">
        <ele>144</ele>
        <time>2010-05-24T07:35:05Z</time>
      </trkpt>
      <trkpt lat="49.28954" lon="1.40517">
        <ele>144</ele>
        <time>2010-05-24T07:35:07Z</time>
      </trkpt>
      <trkpt lat="49.28945" lon="1.40533">
        <ele>144</ele>
        <time>2010-05-24T07:35:10Z</time>
      </trkpt>
      <trkpt lat="49.2894" lon="1.40545">
        <ele>144</ele>
        <time>2010-05-24T07:35:12Z</time>
      </trkpt>
      <trkpt lat="49.28932" lon="1.40555">
        <ele>144</ele>
        <time>2010-05-24T07:35:14Z</time>
      </trkpt>
      <trkpt lat="49.28925" lon="1.40565">
        <ele>144</ele>
        <time>2010-05-24T07:35:16Z</time>
      </trkpt>
      <trkpt lat="49.28918" lon="1.40574">
        <ele>144</ele>
        <time>2010-05-24T07:35:18Z</time>
      </trkpt>
      <trkpt lat="49.2891" lon="1.40582">
        <ele>144</ele>
        <time>2010-05-24T07:35:20Z</time>
      </trkpt>
      <trkpt lat="49.28902" lon="1.40592">
        <ele>144</ele>
        <time>2010-05-24T07:35:22Z</time>
      </trkpt>
      <trkpt lat="49.28895" lon="1.40602">
        <ele>144</ele>
        <time>2010-05-24T07:35:24Z</time>
      </trkpt>
      <trkpt lat="49.28888" lon="1.40612">
        <ele>144</ele>
        <time>2010-05-24T07:35:26Z</time>
      </trkpt>
      <trkpt lat="49.28881" lon="1.4062">
        <ele>144</ele>
        <time>2010-05-24T07:35:28Z</time>
      </trkpt>
      <trkpt lat="49.28874" lon="1.4063">
        <ele>144</ele>
        <time>2010-05-24T07:35:30Z</time>
      </trkpt>
      <trkpt lat="49.28864" lon="1.40643">
        <ele>144</ele>
        <time>2010-05-24T07:35:33Z</time>
      </trkpt>
      <trkpt lat="49.28854" lon="1.40657">
        <ele>144</ele>
        <time>2010-05-24T07:35:36Z</time>
      </trkpt>
      <trkpt lat="49.28846" lon="1.40669">
        <ele>144</ele>
        <time>2010-05-24T07:35:39Z</time>
      </trkpt>
      <trkpt lat="49.28844" lon="1.40683">
        <ele>144</ele>
        <time>2010-05-24T07:35:43Z</time>
      </trkpt>
      <trkpt lat="49.28853" lon="1.40688">
        <ele>144</ele>
        <time>2010-05-24T07:35:47Z</time>
      </trkpt>
      <trkpt lat="49.28862" lon="1.40693">
        <ele>144</ele>
        <time>2010-05-24T07:35:51Z</time>
      </trkpt>
      <trkpt lat="49.28866" lon="1.40708">
        <ele>144</ele>
        <time>2010-05-24T07:35:56Z</time>
      </trkpt>
      <trkpt lat="49.28871" lon="1.40723">
        <ele>144</ele>
        <time>2010-05-24T07:36:01Z</time>
      </trkpt>
      <trkpt lat="49.28878" lon="1.40736">
        <ele>144</ele>
        <time>2010-05-24T07:36:06Z</time>
      </trkpt>
    </trkseg>
  </trk>
</gpx>